| time (UTC) | temp C | wind direction | speed KPH | gust KPH | rain 1hr cm | rain 24hr cm | rain mn cm | humidity % | barometer mb |
| 20260510173241 | 20 | 235 | 3.2 | 11.3 | 0.00 | 0.00 | 0.00 | 66 | 1013.8 |
| 20260510173226 | 20 | 193 | 3.2 | 11.3 | 0.00 | 0.00 | 0.00 | 66 | 1013.9 |
| 20260510173016 | 21 | 245 | 3.2 | 11.3 | 0.00 | 0.00 | 0.00 | 66 | 1013.9 |
| 20260510172916 | 20 | 277 | 3.2 | 11.3 | 0.00 | 0.00 | 0.00 | 67 | 1013.9 |
| 20260510172839 | 20 | 231 | 3.2 | 11.3 | 0.00 | 0.00 | 0.00 | 67 | 1013.9 |
| 20260510172814 | 20 | 190 | 3.2 | 11.3 | 0.00 | 0.00 | 0.00 | 67 | 1013.8 |
| 20260510172729 | 20 | 287 | 3.2 | 11.3 | 0.00 | 0.00 | 0.00 | 67 | 1013.9 |
| 20260510172718 | 20 | 231 | 3.2 | 11.3 | 0.00 | 0.00 | 0.00 | 67 | 1013.9 |
| 20260510172508 | 20 | 225 | 3.2 | 11.3 | 0.00 | 0.00 | 0.00 | 69 | 1013.9 |
| 20260510172409 | 20 | 191 | 3.2 | 14.5 | 0.00 | 0.00 | 0.00 | 68 | 1013.9 |
| 20260510172308 | 20 | 237 | 3.2 | 16.1 | 0.00 | 0.00 | 0.00 | 69 | 1013.9 |
| 20260510172208 | 20 | 230 | 3.2 | 16.1 | 0.00 | 0.00 | 0.00 | 70 | 1013.8 |
| 20260510172108 | 20 | 187 | 4.8 | 16.1 | 0.00 | 0.00 | 0.00 | 70 | 1013.9 |
| 20260510172000 | 20 | 233 | 4.8 | 16.1 | 0.00 | 0.00 | 0.00 | 70 | 1013.8 |
| 20260510171901 | 19 | 229 | 4.8 | 16.1 | 0.00 | 0.00 | 0.00 | 71 | 1013.9 |
| 20260510171800 | 19 | 288 | 3.2 | 16.1 | 0.00 | 0.00 | 0.00 | 71 | 1013.8 |
| 20260510171701 | 19 | 224 | 4.8 | 16.1 | 0.00 | 0.00 | 0.00 | 71 | 1013.9 |
| 20260510171602 | 19 | 248 | 4.8 | 16.1 | 0.00 | 0.00 | 0.00 | 70 | 1013.8 |
| 20260510171454 | 19 | 201 | 6.4 | 16.1 | 0.00 | 0.00 | 0.00 | 69 | 1013.8 |
| 20260510171354 | 19 | 203 | 4.8 | 16.1 | 0.00 | 0.00 | 0.00 | 71 | 1013.8 |
| 20260510171316 | 19 | 280 | 6.4 | 16.1 | 0.00 | 0.00 | 0.00 | 72 | 1013.8 |
| 20260510171254 | 19 | 214 | 4.8 | 16.1 | 0.00 | 0.00 | 0.00 | 71 | 1013.8 |
| 20260510171210 | 19 | 215 | 4.8 | 16.1 | 0.00 | 0.00 | 0.00 | 71 | 1013.8 |
| 20260510171200 | 19 | 280 | 6.4 | 16.1 | 0.00 | 0.00 | 0.00 | 72 | 1013.8 |
| 20260510170950 | 18 | 219 | 6.4 | 16.1 | 0.00 | 0.00 | 0.00 | 72 | 1013.8 |
| 20260510170848 | 18 | 256 | 6.4 | 16.1 | 0.00 | 0.00 | 0.00 | 72 | 1013.8 |
| 20260510170749 | 18 | 264 | 6.4 | 16.1 | 0.00 | 0.00 | 0.00 | 71 | 1013.8 |
| 20260510170648 | 18 | 238 | 6.4 | 16.1 | 0.00 | 0.00 | 0.00 | 71 | 1013.8 |
| 20260510170551 | 18 | 248 | 4.8 | 16.1 | 0.00 | 0.00 | 0.00 | 71 | 1013.8 |
| 20260510170442 | 18 | 211 | 4.8 | 14.5 | 0.00 | 0.00 | 0.00 | 72 | 1013.7 |
| 20260510170342 | 18 | 236 | 4.8 | 14.5 | 0.00 | 0.00 | 0.00 | 71 | 1013.8 |
| 20260510170243 | 18 | 238 | 4.8 | 14.5 | 0.00 | 0.00 | 0.00 | 71 | 1013.7 |
| 20260510170142 | 18 | 238 | 4.8 | 14.5 | 0.00 | 0.00 | 0.00 | 71 | 1013.7 |
| 20260510170057 | 18 | 231 | 4.8 | 14.5 | 0.00 | 0.00 | 0.00 | 72 | 1013.8 |
| 20260510165938 | 18 | 256 | 6.4 | 16.1 | 0.00 | 0.00 | 0.00 | 73 | 1013.7 |
| 20260510165836 | 18 | 211 | 6.4 | 16.1 | 0.00 | 0.00 | 0.00 | 73 | 1013.8 |
| 20260510165738 | 18 | 232 | 6.4 | 16.1 | 0.00 | 0.00 | 0.00 | 73 | 1013.8 |
| 20260510165636 | 18 | 225 | 6.4 | 16.1 | 0.00 | 0.00 | 0.00 | 73 | 1013.8 |
| 20260510165538 | 18 | 231 | 6.4 | 16.1 | 0.00 | 0.00 | 0.00 | 75 | 1013.8 |
| 20260510165432 | 18 | 229 | 6.4 | 16.1 | 0.00 | 0.00 | 0.00 | 74 | 1013.8 |
| 20260510165330 | 18 | 238 | 8.0 | 16.1 | 0.00 | 0.00 | 0.00 | 74 | 1013.8 |
| 20260510165230 | 18 | 221 | 6.4 | 16.1 | 0.00 | 0.00 | 0.00 | 74 | 1013.8 |
| 20260510165130 | 18 | 225 | 8.0 | 16.1 | 0.00 | 0.00 | 0.00 | 74 | 1013.8 |
| 20260510165033 | 18 | 214 | 6.4 | 16.1 | 0.00 | 0.00 | 0.00 | 73 | 1013.8 |
| 20260510164924 | 18 | 212 | 6.4 | 16.1 | 0.00 | 0.00 | 0.00 | 75 | 1013.8 |
| 20260510164824 | 18 | 243 | 6.4 | 12.9 | 0.00 | 0.00 | 0.00 | 74 | 1013.8 |
| 20260510164749 | 17 | 193 | 6.4 | 12.9 | 0.00 | 0.00 | 0.00 | 75 | 1013.8 |
| 20260510164724 | 18 | 239 | 6.4 | 12.9 | 0.00 | 0.00 | 0.00 | 74 | 1013.7 |
| 20260510164642 | 17 | 187 | 6.4 | 12.9 | 0.00 | 0.00 | 0.00 | 75 | 1013.8 |
| 20260510164632 | 17 | 193 | 6.4 | 12.9 | 0.00 | 0.00 | 0.00 | 75 | 1013.8 |
| 20260510164418 | 17 | 246 | 6.4 | 14.5 | 0.00 | 0.00 | 0.00 | 75 | 1013.8 |
| 20260510164319 | 17 | 246 | 6.4 | 14.5 | 0.00 | 0.00 | 0.00 | 75 | 1013.8 |
| 20260510164218 | 17 | 253 | 6.4 | 14.5 | 0.00 | 0.00 | 0.00 | 74 | 1013.8 |
| 20260510164118 | 17 | 228 | 6.4 | 14.5 | 0.00 | 0.00 | 0.00 | 75 | 1013.8 |
| 20260510164021 | 17 | 228 | 6.4 | 14.5 | 0.00 | 0.00 | 0.00 | 76 | 1013.8 |
| 20260510163912 | 17 | 305 | 6.4 | 14.5 | 0.00 | 0.00 | 0.00 | 76 | 1013.8 |
| 20260510163813 | 17 | 229 | 6.4 | 14.5 | 0.00 | 0.00 | 0.00 | 76 | 1013.8 |
| 20260510163712 | 17 | 235 | 8.0 | 14.5 | 0.00 | 0.00 | 0.00 | 75 | 1013.8 |
| 20260510163612 | 17 | 241 | 8.0 | 14.5 | 0.00 | 0.00 | 0.00 | 75 | 1013.9 |
| 20260510163514 | 17 | 205 | 8.0 | 14.5 | 0.00 | 0.00 | 0.00 | 75 | 1013.9 |
| 20260510163407 | 17 | 248 | 8.0 | 14.5 | 0.00 | 0.00 | 0.00 | 75 | 1013.8 |
| 20260510163306 | 17 | 186 | 8.0 | 14.5 | 0.00 | 0.00 | 0.00 | 76 | 1013.8 |
| 20260510163107 | 17 | 245 | 8.0 | 14.5 | 0.00 | 0.00 | 0.00 | 76 | 1013.8 |
| 20260510163007 | 17 | 209 | 8.0 | 14.5 | 0.00 | 0.00 | 0.00 | 76 | 1013.9 |
| 20260510162901 | 17 | 193 | 8.0 | 14.5 | 0.00 | 0.00 | 0.00 | 76 | 1013.8 |
| 20260510162800 | 17 | 184 | 8.0 | 14.5 | 0.00 | 0.00 | 0.00 | 75 | 1013.8 |
| 20260510162700 | 17 | 225 | 8.0 | 14.5 | 0.00 | 0.00 | 0.00 | 76 | 1013.8 |
| 20260510162600 | 17 | 245 | 8.0 | 14.5 | 0.00 | 0.00 | 0.00 | 76 | 1013.8 |
| 20260510162502 | 17 | 240 | 8.0 | 14.5 | 0.00 | 0.00 | 0.00 | 75 | 1013.8 |
| 20260510162356 | 17 | 226 | 8.0 | 12.9 | 0.00 | 0.00 | 0.00 | 76 | 1013.8 |
| 20260510162256 | 17 | 197 | 6.4 | 12.9 | 0.00 | 0.00 | 0.00 | 76 | 1013.8 |
| 20260510162156 | 17 | 226 | 6.4 | 12.9 | 0.00 | 0.00 | 0.00 | 76 | 1013.8 |
| 20260510162056 | 17 | 203 | 6.4 | 12.9 | 0.00 | 0.00 | 0.00 | 76 | 1013.8 |
| 20260510161956 | 17 | 221 | 6.4 | 12.9 | 0.00 | 0.00 | 0.00 | 76 | 1013.9 |
| 20260510161850 | 17 | 224 | 6.4 | 12.9 | 0.00 | 0.00 | 0.00 | 76 | 1013.8 |
| 20260510161748 | 17 | 235 | 4.8 | 12.9 | 0.00 | 0.00 | 0.00 | 77 | 1013.9 |
| 20260510161649 | 17 | 214 | 4.8 | 16.1 | 0.00 | 0.00 | 0.00 | 76 | 1013.9 |
| 20260510161548 | 17 | 231 | 6.4 | 16.1 | 0.00 | 0.00 | 0.00 | 75 | 1013.9 |
| 20260510161450 | 17 | 211 | 4.8 | 16.1 | 0.00 | 0.00 | 0.00 | 76 | 1013.8 |
| 20260510161342 | 17 | 243 | 6.4 | 16.1 | 0.00 | 0.00 | 0.00 | 76 | 1013.8 |
| 20260510161242 | 17 | 212 | 6.4 | 16.1 | 0.00 | 0.00 | 0.00 | 77 | 1013.8 |
| 20260510161142 | 17 | 219 | 6.4 | 16.1 | 0.00 | 0.00 | 0.00 | 77 | 1013.8 |
| 20260510161043 | 17 | 161 | 6.4 | 16.1 | 0.00 | 0.00 | 0.00 | 76 | 1013.9 |
| 20260510160949 | 17 | 148 | 6.4 | 16.1 | 0.00 | 0.00 | 0.00 | 77 | 1013.8 |
| 20260510160838 | 17 | 280 | 6.4 | 16.1 | 0.00 | 0.00 | 0.00 | 77 | 1013.8 |
| 20260510160738 | 16 | 194 | 6.4 | 16.1 | 0.00 | 0.00 | 0.00 | 77 | 1013.9 |
| 20260510160636 | 16 | 146 | 6.4 | 14.5 | 0.00 | 0.00 | 0.00 | 77 | 1013.7 |
| 20260510160536 | 16 | 235 | 6.4 | 12.9 | 0.00 | 0.00 | 0.00 | 78 | 1013.8 |
| 20260510160330 | 16 | 174 | 6.4 | 12.9 | 0.00 | 0.00 | 0.00 | 78 | 1013.7 |
| 20260510160231 | 16 | 241 | 6.4 | 12.9 | 0.00 | 0.00 | 0.00 | 78 | 1013.7 |
| 20260510160130 | 16 | 211 | 6.4 | 12.9 | 0.00 | 0.00 | 0.00 | 78 | 1013.8 |
| 20260510160029 | 16 | 136 | 4.8 | 12.9 | 0.00 | 0.00 | 0.00 | 78 | 1013.7 |
| 20260510155932 | 16 | 201 | 6.4 | 12.9 | 0.00 | 0.00 | 0.00 | 78 | 1013.7 |
| 20260510155827 | 16 | 136 | 6.4 | 14.5 | 0.00 | 0.00 | 0.00 | 78 | 1013.7 |
| 20260510155727 | 16 | 248 | 6.4 | 14.5 | 0.00 | 0.00 | 0.00 | 78 | 1013.7 |
| 20260510155646 | 16 | 224 | 6.4 | 14.5 | 0.00 | 0.00 | 0.00 | 79 | 1013.7 |
| 20260510155626 | 16 | 236 | 6.4 | 14.5 | 0.00 | 0.00 | 0.00 | 79 | 1013.7 |
| 20260510155541 | 16 | 221 | 6.4 | 14.5 | 0.00 | 0.00 | 0.00 | 79 | 1013.7 |
| 20260510155531 | 16 | 224 | 6.4 | 14.5 | 0.00 | 0.00 | 0.00 | 79 | 1013.7 |
| 20260510155318 | 16 | 232 | 6.4 | 14.5 | 0.00 | 0.00 | 0.00 | 80 | 1013.7 |
| 20260510155219 | 16 | 229 | 6.4 | 14.5 | 0.00 | 0.00 | 0.00 | 80 | 1013.7 |
| 20260510155118 | 16 | 224 | 6.4 | 14.5 | 0.00 | 0.00 | 0.00 | 80 | 1013.7 |
| 20260510155018 | 16 | 238 | 6.4 | 14.5 | 0.00 | 0.00 | 0.00 | 80 | 1013.7 |
| 20260510154920 | 16 | 204 | 6.4 | 14.5 | 0.00 | 0.00 | 0.00 | 79 | 1013.8 |
| 20260510154812 | 16 | 221 | 6.4 | 12.9 | 0.00 | 0.00 | 0.00 | 79 | 1013.7 |
| 20260510154712 | 16 | 190 | 4.8 | 12.9 | 0.00 | 0.00 | 0.00 | 79 | 1013.8 |
| 20260510154612 | 16 | 239 | 4.8 | 12.9 | 0.00 | 0.00 | 0.00 | 80 | 1013.7 |
| 20260510154512 | 16 | 242 | 4.8 | 12.9 | 0.00 | 0.00 | 0.00 | 80 | 1013.7 |
| 20260510154413 | 16 | 234 | 3.2 | 12.9 | 0.00 | 0.00 | 0.00 | 79 | 1013.7 |
| 20260510154310 | 16 | 233 | 3.2 | 11.3 | 0.00 | 0.00 | 0.00 | 79 | 1013.7 |
| 20260510154210 | 16 | 224 | 3.2 | 11.3 | 0.00 | 0.00 | 0.00 | 79 | 1013.7 |
| 20260510154110 | 16 | 245 | 3.2 | 9.7 | 0.00 | 0.00 | 0.00 | 79 | 1013.7 |
| 20260510154008 | 16 | 236 | 3.2 | 9.7 | 0.00 | 0.00 | 0.00 | 80 | 1013.7 |
| 20260510153921 | 16 | 232 | 3.2 | 9.7 | 0.00 | 0.00 | 0.00 | 81 | 1013.7 |
| 20260510153801 | 16 | 255 | 3.2 | 9.7 | 0.00 | 0.00 | 0.00 | 81 | 1013.7 |
| 20260510153700 | 15 | 120 | 4.8 | 12.9 | 0.00 | 0.00 | 0.00 | 81 | 1013.7 |
| 20260510153623 | 15 | 214 | 4.8 | 12.9 | 0.00 | 0.00 | 0.00 | 81 | 1013.7 |
| 20260510153600 | 15 | 120 | 4.8 | 12.9 | 0.00 | 0.00 | 0.00 | 81 | 1013.8 |
| 20260510153517 | 15 | 245 | 4.8 | 12.9 | 0.00 | 0.00 | 0.00 | 81 | 1013.7 |
| 20260510153507 | 15 | 214 | 4.8 | 12.9 | 0.00 | 0.00 | 0.00 | 81 | 1013.7 |
| 20260510153254 | 15 | 236 | 4.8 | 12.9 | 0.00 | 0.00 | 0.00 | 81 | 1013.7 |
| 20260510153155 | 15 | 236 | 4.8 | 12.9 | 0.00 | 0.00 | 0.00 | 81 | 1013.7 |
| 20260510153054 | 15 | 235 | 4.8 | 12.9 | 0.00 | 0.00 | 0.00 | 81 | 1013.7 |
| 20260510152954 | 15 | 236 | 4.8 | 12.9 | 0.00 | 0.00 | 0.00 | 81 | 1013.8 |
| 20260510152856 | 15 | 236 | 3.2 | 12.9 | 0.00 | 0.00 | 0.00 | 81 | 1013.7 |
| 20260510152750 | 15 | 245 | 3.2 | 12.9 | 0.00 | 0.00 | 0.00 | 81 | 1013.8 |
| 20260510152650 | 15 | 248 | 3.2 | 12.9 | 0.00 | 0.00 | 0.00 | 81 | 1013.7 |
| 20260510152551 | 15 | 235 | 3.2 | 11.3 | 0.00 | 0.00 | 0.00 | 82 | 1013.8 |
| 20260510152451 | 15 | 217 | 3.2 | 11.3 | 0.00 | 0.00 | 0.00 | 82 | 1013.7 |
| 20260510152353 | 15 | 200 | 3.2 | 12.9 | 0.00 | 0.00 | 0.00 | 82 | 1013.7 |
| 20260510152248 | 15 | 221 | 3.2 | 12.9 | 0.00 | 0.00 | 0.00 | 83 | 1013.7 |
| 20260510152146 | 15 | 221 | 4.8 | 14.5 | 0.00 | 0.00 | 0.00 | 83 | 1013.7 |
| 20260510152044 | 15 | 233 | 4.8 | 14.5 | 0.00 | 0.00 | 0.00 | 83 | 1013.7 |
| 20260510151944 | 15 | 257 | 6.4 | 14.5 | 0.00 | 0.00 | 0.00 | 84 | 1013.7 |
| 20260510151847 | 15 | 257 | 6.4 | 14.5 | 0.00 | 0.00 | 0.00 | 83 | 1013.7 |
| 20260510151738 | 15 | 218 | 6.4 | 14.5 | 0.00 | 0.00 | 0.00 | 83 | 1013.7 |
| 20260510151637 | 15 | 238 | 6.4 | 14.5 | 0.00 | 0.00 | 0.00 | 83 | 1013.6 |
| 20260510151620 | 15 | 241 | 4.8 | 14.5 | 0.00 | 0.00 | 0.00 | 82 | 1013.6 |
| 20260510151537 | 15 | 232 | 4.8 | 14.5 | 0.00 | 0.00 | 0.00 | 83 | 1013.6 |
| 20260510151510 | 15 | 224 | 6.4 | 14.5 | 0.00 | 0.00 | 0.00 | 83 | 1013.6 |
| 20260510151459 | 15 | 241 | 4.8 | 14.5 | 0.00 | 0.00 | 0.00 | 82 | 1013.6 |
| 20260510151230 | 15 | 256 | 4.8 | 14.5 | 0.00 | 0.00 | 0.00 | 83 | 1013.6 |
| 20260510151131 | 15 | 228 | 4.8 | 12.9 | 0.00 | 0.00 | 0.00 | 83 | 1013.6 |
| 20260510151030 | 15 | 237 | 4.8 | 12.9 | 0.00 | 0.00 | 0.00 | 83 | 1013.6 |
| 20260510150930 | 15 | 221 | 4.8 | 12.9 | 0.00 | 0.00 | 0.00 | 83 | 1013.6 |
| 20260510150833 | 15 | 245 | 4.8 | 12.9 | 0.00 | 0.00 | 0.00 | 83 | 1013.6 |
| 20260510150725 | 15 | 212 | 3.2 | 12.9 | 0.00 | 0.00 | 0.00 | 83 | 1013.6 |
| 20260510150624 | 15 | 248 | 4.8 | 12.9 | 0.00 | 0.00 | 0.00 | 83 | 1013.6 |
| 20260510150553 | 15 | 295 | 4.8 | 12.9 | 0.00 | 0.00 | 0.00 | 84 | 1013.6 |
| 20260510150525 | 15 | 210 | 3.2 | 12.9 | 0.00 | 0.00 | 0.00 | 82 | 1013.6 |
| 20260510150440 | 15 | 233 | 3.2 | 12.9 | 0.00 | 0.00 | 0.00 | 83 | 1013.6 |
| 20260510150430 | 15 | 295 | 4.8 | 12.9 | 0.00 | 0.00 | 0.00 | 84 | 1013.6 |
| 20260510150218 | 15 | 139 | 4.8 | 12.9 | 0.00 | 0.00 | 0.00 | 84 | 1013.6 |
| 20260510150118 | 14 | 233 | 4.8 | 12.9 | 0.00 | 0.00 | 0.00 | 84 | 1013.5 |
| 20260510150051 | 14 | 224 | 4.8 | 12.9 | 0.00 | 0.00 | 0.00 | 84 | 1013.5 |
| 20260510150018 | 14 | 248 | 4.8 | 12.9 | 0.00 | 0.00 | 0.00 | 84 | 1013.5 |
| 20260510145936 | 14 | 233 | 4.8 | 12.9 | 0.00 | 0.00 | 0.00 | 84 | 1013.5 |
| 20260510145925 | 14 | 224 | 4.8 | 12.9 | 0.00 | 0.00 | 0.00 | 84 | 1013.5 |
| 20260510145803 | 14 | 250 | 6.4 | 14.5 | 0.00 | 0.00 | 0.00 | 85 | 1013.5 |
| 20260510145712 | 14 | 221 | 4.8 | 14.5 | 0.00 | 0.00 | 0.00 | 85 | 1013.5 |
| 20260510145646 | 14 | 225 | 4.8 | 14.5 | 0.00 | 0.00 | 0.00 | 85 | 1013.5 |
| 20260510145512 | 14 | 219 | 6.4 | 14.5 | 0.00 | 0.00 | 0.00 | 84 | 1013.5 |
| 20260510145428 | 14 | 232 | 6.4 | 14.5 | 0.00 | 0.00 | 0.00 | 84 | 1013.5 |
| 20260510145418 | 14 | 250 | 6.4 | 14.5 | 0.00 | 0.00 | 0.00 | 85 | 1013.5 |
| 20260510145206 | 14 | 231 | 4.8 | 14.5 | 0.00 | 0.00 | 0.00 | 85 | 1013.5 |
| 20260510145106 | 14 | 124 | 6.4 | 14.5 | 0.00 | 0.00 | 0.00 | 85 | 1013.5 |
| 20260510145007 | 14 | 231 | 6.4 | 14.5 | 0.00 | 0.00 | 0.00 | 85 | 1013.5 |
| 20260510144906 | 13 | 174 | 6.4 | 14.5 | 0.00 | 0.00 | 0.00 | 85 | 1013.5 |
| 20260510144808 | 13 | 223 | 6.4 | 14.5 | 0.00 | 0.00 | 0.00 | 85 | 1013.5 |
| 20260510144701 | 13 | 223 | 4.8 | 14.5 | 0.00 | 0.00 | 0.00 | 85 | 1013.5 |
| 20260510144600 | 13 | 248 | 4.8 | 14.5 | 0.00 | 0.00 | 0.00 | 85 | 1013.5 |
| 20260510144500 | 13 | 240 | 4.8 | 14.5 | 0.00 | 0.00 | 0.00 | 85 | 1013.5 |
| 20260510144400 | 13 | 216 | 4.8 | 14.5 | 0.00 | 0.00 | 0.00 | 85 | 1013.5 |
| 20260510144302 | 13 | 204 | 4.8 | 12.9 | 0.00 | 0.00 | 0.00 | 86 | 1013.5 |
| 20260510144154 | 13 | 231 | 4.8 | 12.9 | 0.00 | 0.00 | 0.00 | 86 | 1013.4 |
| 20260510144054 | 13 | 225 | 4.8 | 12.9 | 0.00 | 0.00 | 0.00 | 86 | 1013.4 |
| 20260510143955 | 13 | 194 | 4.8 | 12.9 | 0.00 | 0.00 | 0.00 | 86 | 1013.4 |
| 20260510143855 | 13 | 233 | 4.8 | 12.9 | 0.00 | 0.00 | 0.00 | 86 | 1013.4 |
| 20260510143757 | 13 | 256 | 4.8 | 12.9 | 0.00 | 0.00 | 0.00 | 86 | 1013.4 |
| 20260510143649 | 13 | 200 | 4.8 | 14.5 | 0.00 | 0.00 | 0.00 | 86 | 1013.5 |
| 20260510143548 | 13 | 232 | 4.8 | 14.5 | 0.00 | 0.00 | 0.00 | 86 | 1013.4 |
| 20260510143448 | 13 | 233 | 4.8 | 14.5 | 0.00 | 0.00 | 0.00 | 86 | 1013.4 |
| 20260510143348 | 13 | 236 | 4.8 | 14.5 | 0.00 | 0.00 | 0.00 | 86 | 1013.4 |
| 20260510143249 | 13 | 226 | 4.8 | 14.5 | 0.00 | 0.00 | 0.00 | 86 | 1013.4 |
| 20260510143143 | 13 | 250 | 4.8 | 14.5 | 0.00 | 0.00 | 0.00 | 86 | 1013.3 |
| 20260510143042 | 13 | 218 | 4.8 | 14.5 | 0.00 | 0.00 | 0.00 | 86 | 1013.4 |
| 20260510142942 | 13 | 288 | 4.8 | 14.5 | 0.00 | 0.00 | 0.00 | 86 | 1013.4 |
| 20260510142842 | 13 | 267 | 4.8 | 14.5 | 0.00 | 0.00 | 0.00 | 86 | 1013.3 |
| 20260510142744 | 13 | 215 | 4.8 | 14.5 | 0.00 | 0.00 | 0.00 | 86 | 1013.4 |
| 20260510142636 | 13 | 233 | 4.8 | 12.9 | 0.00 | 0.00 | 0.00 | 86 | 1013.4 |
| 20260510142536 | 13 | 298 | 4.8 | 12.9 | 0.00 | 0.00 | 0.00 | 86 | 1013.3 |
| 20260510142436 | 13 | 230 | 4.8 | 12.9 | 0.00 | 0.00 | 0.00 | 86 | 1013.3 |
| 20260510142336 | 13 | 231 | 4.8 | 14.5 | 0.00 | 0.00 | 0.00 | 86 | 1013.4 |
| 20260510142240 | 13 | 249 | 3.2 | 14.5 | 0.00 | 0.00 | 0.00 | 86 | 1013.3 |
| 20260510142132 | 13 | 243 | 3.2 | 14.5 | 0.00 | 0.00 | 0.00 | 87 | 1013.3 |
| 20260510142033 | 13 | 224 | 4.8 | 14.5 | 0.00 | 0.00 | 0.00 | 87 | 1013.3 |
| 20260510141933 | 13 | 218 | 4.8 | 14.5 | 0.00 | 0.00 | 0.00 | 87 | 1013.3 |
| 20260510141832 | 13 | 198 | 4.8 | 14.5 | 0.00 | 0.00 | 0.00 | 87 | 1013.3 |
| 20260510141731 | 13 | 239 | 3.2 | 14.5 | 0.00 | 0.00 | 0.00 | 87 | 1013.3 |
| 20260510141626 | 13 | 198 | 3.2 | 14.5 | 0.00 | 0.00 | 0.00 | 86 | 1013.2 |
| 20260510141524 | 13 | 243 | 4.8 | 14.5 | 0.00 | 0.00 | 0.00 | 86 | 1013.2 |
| 20260510141459 | 13 | 239 | 3.2 | 9.7 | 0.00 | 0.00 | 0.00 | 87 | 1013.2 |
| 20260510141424 | 13 | 239 | 3.2 | 14.5 | 0.00 | 0.00 | 0.00 | 87 | 1013.2 |
| 20260510141354 | 13 | 207 | 3.2 | 14.5 | 0.00 | 0.00 | 0.00 | 87 | 1013.2 |
| 20260510141344 | 13 | 239 | 3.2 | 9.7 | 0.00 | 0.00 | 0.00 | 87 | 1013.2 |
| 20260510141122 | 13 | 224 | 3.2 | 9.7 | 0.00 | 0.00 | 0.00 | 87 | 1013.2 |
| 20260510141022 | 13 | 232 | 3.2 | 9.7 | 0.00 | 0.00 | 0.00 | 87 | 1013.2 |
| 20260510140923 | 13 | 215 | 3.2 | 9.7 | 0.00 | 0.00 | 0.00 | 87 | 1013.2 |
| 20260510140821 | 13 | 233 | 3.2 | 9.7 | 0.00 | 0.00 | 0.00 | 87 | 1013.2 |
| 20260510140719 | 13 | 232 | 3.2 | 9.7 | 0.00 | 0.00 | 0.00 | 87 | 1013.2 |
| 20260510140616 | 13 | 164 | 3.2 | 8.0 | 0.00 | 0.00 | 0.00 | 87 | 1013.2 |
| 20260510140516 | 13 | 218 | 3.2 | 8.0 | 0.00 | 0.00 | 0.00 | 87 | 1013.1 |
| 20260510140416 | 13 | 146 | 3.2 | 12.9 | 0.00 | 0.00 | 0.00 | 87 | 1013.1 |
| 20260510140315 | 13 | 212 | 3.2 | 12.9 | 0.00 | 0.00 | 0.00 | 88 | 1013.1 |
| 20260510140216 | 13 | 211 | 3.2 | 12.9 | 0.00 | 0.00 | 0.00 | 88 | 1013.1 |
| 20260510140106 | 13 | 217 | 4.8 | 12.9 | 0.00 | 0.00 | 0.00 | 88 | 1013.1 |
| 20260510140006 | 13 | 230 | 4.8 | 12.9 | 0.00 | 0.00 | 0.00 | 88 | 1013.1 |
| 20260510135906 | 13 | 215 | 4.8 | 12.9 | 0.00 | 0.00 | 0.00 | 88 | 1013.1 |
| 20260510135806 | 13 | 226 | 4.8 | 12.9 | 0.00 | 0.00 | 0.00 | 88 | 1013.1 |
| 20260510135708 | 13 | 203 | 4.8 | 12.9 | 0.00 | 0.00 | 0.00 | 88 | 1013.0 |
| 20260510135604 | 13 | 197 | 4.8 | 12.9 | 0.00 | 0.00 | 0.00 | 88 | 1013.0 |
| 20260510135504 | 13 | 203 | 6.4 | 12.9 | 0.00 | 0.00 | 0.00 | 88 | 1013.1 |
| 20260510135422 | 12 | 193 | 4.8 | 14.5 | 0.00 | 0.00 | 0.00 | 89 | 1013.0 |
| 20260510135405 | 13 | 214 | 6.4 | 14.5 | 0.00 | 0.00 | 0.00 | 88 | 1013.0 |
| 20260510135317 | 13 | 155 | 4.8 | 14.5 | 0.00 | 0.00 | 0.00 | 88 | 1013.0 |
| 20260510135307 | 12 | 193 | 4.8 | 14.5 | 0.00 | 0.00 | 0.00 | 89 | 1013.0 |
| 20260510135056 | 12 | 139 | 4.8 | 14.5 | 0.00 | 0.00 | 0.00 | 89 | 1013.0 |
| 20260510134954 | 12 | 214 | 4.8 | 14.5 | 0.00 | 0.00 | 0.00 | 89 | 1013.0 |
| 20260510134913 | 12 | 207 | 4.8 | 14.5 | 0.00 | 0.00 | 0.00 | 89 | 1012.9 |
| 20260510134854 | 12 | 207 | 4.8 | 14.5 | 0.00 | 0.00 | 0.00 | 89 | 1012.9 |
| 20260510134810 | 12 | 198 | 4.8 | 14.5 | 0.00 | 0.00 | 0.00 | 89 | 1012.9 |
| 20260510134800 | 12 | 207 | 4.8 | 14.5 | 0.00 | 0.00 | 0.00 | 89 | 1012.9 |
| 20260510134549 | 12 | 198 | 4.8 | 14.5 | 0.00 | 0.00 | 0.00 | 89 | 1012.8 |
| 20260510134449 | 12 | 217 | 4.8 | 14.5 | 0.00 | 0.00 | 0.00 | 89 | 1012.9 |
| 20260510134411 | 12 | 239 | 4.8 | 14.5 | 0.00 | 0.00 | 0.00 | 89 | 1012.9 |
| 20260510134349 | 12 | 193 | 4.8 | 14.5 | 0.00 | 0.00 | 0.00 | 89 | 1012.9 |
| 20260510134305 | 12 | 205 | 4.8 | 14.5 | 0.00 | 0.00 | 0.00 | 89 | 1012.8 |
| 20260510134255 | 12 | 239 | 4.8 | 14.5 | 0.00 | 0.00 | 0.00 | 89 | 1012.9 |
| 20260510134045 | 12 | 208 | 4.8 | 14.5 | 0.00 | 0.00 | 0.00 | 89 | 1012.8 |
| 20260510133944 | 12 | 146 | 4.8 | 12.9 | 0.00 | 0.00 | 0.00 | 89 | 1012.8 |
| 20260510133844 | 12 | 192 | 4.8 | 12.9 | 0.00 | 0.00 | 0.00 | 89 | 1012.8 |
| 20260510133745 | 12 | 225 | 4.8 | 12.9 | 0.00 | 0.00 | 0.00 | 89 | 1012.9 |
| 20260510133644 | 12 | 215 | 4.8 | 12.9 | 0.00 | 0.00 | 0.00 | 90 | 1012.8 |
| 20260510133536 | 12 | 183 | 4.8 | 12.9 | 0.00 | 0.00 | 0.00 | 90 | 1012.8 |
| 20260510133436 | 12 | 195 | 4.8 | 12.9 | 0.00 | 0.00 | 0.00 | 90 | 1012.8 |
| 20260510133336 | 12 | 169 | 4.8 | 11.3 | 0.00 | 0.00 | 0.00 | 90 | 1012.7 |
| 20260510133238 | 12 | 197 | 4.8 | 11.3 | 0.00 | 0.00 | 0.00 | 90 | 1012.7 |
| 20260510133138 | 12 | 233 | 4.8 | 9.7 | 0.00 | 0.00 | 0.00 | 90 | 1012.7 |
| 20260510133030 | 12 | 243 | 3.2 | 9.7 | 0.00 | 0.00 | 0.00 | 90 | 1012.7 |
| 20260510132930 | 12 | 245 | 3.2 | 9.7 | 0.00 | 0.00 | 0.00 | 90 | 1012.7 |
| 20260510132830 | 12 | 246 | 3.2 | 8.0 | 0.00 | 0.00 | 0.00 | 90 | 1012.7 |
| 20260510132730 | 12 | 204 | 3.2 | 8.0 | 0.00 | 0.00 | 0.00 | 90 | 1012.7 |
| 20260510132632 | 12 | 223 | 3.2 | 8.0 | 0.00 | 0.00 | 0.00 | 90 | 1012.7 |
| 20260510132524 | 12 | 228 | 3.2 | 8.0 | 0.00 | 0.00 | 0.00 | 90 | 1012.6 |
| 20260510132347 | 12 | 221 | 3.2 | 8.0 | 0.00 | 0.00 | 0.00 | 90 | 1012.6 |
| 20260510132247 | 12 | 160 | 3.2 | 8.0 | 0.00 | 0.00 | 0.00 | 90 | 1012.6 |
| 20260510132234 | 12 | 221 | 3.2 | 8.0 | 0.00 | 0.00 | 0.00 | 90 | 1012.6 |
| 20260510132035 | 12 | 200 | 3.2 | 8.0 | 0.00 | 0.00 | 0.00 | 90 | 1012.6 |
| 20260510131918 | 12 | 214 | 3.2 | 8.0 | 0.00 | 0.00 | 0.00 | 90 | 1012.6 |
| 20260510131818 | 12 | 225 | 3.2 | 8.0 | 0.00 | 0.00 | 0.00 | 90 | 1012.6 |
| 20260510131718 | 12 | 219 | 3.2 | 9.7 | 0.00 | 0.00 | 0.00 | 89 | 1012.6 |
| 20260510131637 | 12 | 211 | 3.2 | 9.7 | 0.00 | 0.00 | 0.00 | 89 | 1012.5 |
| 20260510131618 | 12 | 231 | 3.2 | 9.7 | 0.00 | 0.00 | 0.00 | 89 | 1012.5 |
| 20260510131512 | 12 | 239 | 3.2 | 9.7 | 0.00 | 0.00 | 0.00 | 89 | 1012.5 |
| 20260510131412 | 12 | 239 | 3.2 | 9.7 | 0.00 | 0.00 | 0.00 | 89 | 1012.5 |
| 20260510131312 | 12 | 219 | 3.2 | 9.7 | 0.00 | 0.00 | 0.00 | 89 | 1012.5 |
| 20260510131212 | 12 | 233 | 3.2 | 9.7 | 0.00 | 0.00 | 0.00 | 89 | 1012.5 |
| 20260510131122 | 12 | 127 | 3.2 | 9.7 | 0.00 | 0.00 | 0.00 | 89 | 1012.5 |
| 20260510131112 | 12 | 141 | 3.2 | 12.9 | 0.00 | 0.00 | 0.00 | 89 | 1012.5 |
| 20260510131008 | 12 | 229 | 3.2 | 12.9 | 0.00 | 0.00 | 0.00 | 89 | 1012.5 |
| 20260510130907 | 12 | 212 | 3.2 | 12.9 | 0.00 | 0.00 | 0.00 | 89 | 1012.5 |
| 20260510130840 | 12 | 176 | 3.2 | 12.9 | 0.00 | 0.00 | 0.00 | 89 | 1012.4 |
| 20260510130806 | 12 | 207 | 3.2 | 12.9 | 0.00 | 0.00 | 0.00 | 89 | 1012.5 |
| 20260510130734 | 12 | 214 | 3.2 | 12.9 | 0.00 | 0.00 | 0.00 | 89 | 1012.5 |
| 20260510130607 | 12 | 176 | 3.2 | 12.9 | 0.00 | 0.00 | 0.00 | 89 | 1012.4 |
| 20260510130507 | 12 | 243 | 3.2 | 12.9 | 0.00 | 0.00 | 0.00 | 89 | 1012.4 |
| 20260510130405 | 12 | 207 | 4.8 | 12.9 | 0.00 | 0.00 | 0.00 | 89 | 1012.5 |
| 20260510130303 | 12 | 212 | 4.8 | 12.9 | 0.00 | 0.00 | 0.00 | 89 | 1012.4 |
| 20260510130203 | 12 | 233 | 4.8 | 12.9 | 0.00 | 0.00 | 0.00 | 89 | 1012.4 |
| 20260510130120 | 12 | 221 | 4.8 | 12.9 | 0.00 | 0.00 | 0.00 | 89 | 1012.5 |
| 20260510130100 | 12 | 233 | 4.8 | 11.3 | 0.00 | 0.00 | 0.00 | 89 | 1012.5 |
| 20260510125956 | 12 | 132 | 4.8 | 11.3 | 0.00 | 0.00 | 0.00 | 89 | 1012.4 |
| 20260510125854 | 12 | 217 | 4.8 | 11.3 | 0.00 | 0.00 | 0.00 | 89 | 1012.4 |
| 20260510125754 | 12 | 222 | 4.8 | 11.3 | 0.00 | 0.00 | 0.00 | 89 | 1012.4 |
| 20260510125654 | 12 | 224 | 4.8 | 11.3 | 0.00 | 0.00 | 0.00 | 89 | 1012.5 |
| 20260510125620 | 12 | 232 | 4.8 | 11.3 | 0.00 | 0.00 | 0.00 | 89 | 1012.5 |
| 20260510125554 | 12 | 225 | 4.8 | 11.3 | 0.00 | 0.00 | 0.00 | 89 | 1012.5 |
| 20260510125450 | 12 | 225 | 4.8 | 11.3 | 0.00 | 0.00 | 0.00 | 89 | 1012.5 |
| 20260510125350 | 12 | 250 | 4.8 | 11.3 | 0.00 | 0.00 | 0.00 | 89 | 1012.5 |
| 20260510125340 | 12 | 241 | 4.8 | 11.3 | 0.00 | 0.00 | 0.00 | 89 | 1012.5 |
| 20260510125250 | 12 | 162 | 4.8 | 11.3 | 0.00 | 0.00 | 0.00 | 89 | 1012.5 |
| 20260510125231 | 12 | 230 | 4.8 | 11.3 | 0.00 | 0.00 | 0.00 | 89 | 1012.5 |
| 20260510125048 | 12 | 143 | 4.8 | 11.3 | 0.00 | 0.00 | 0.00 | 89 | 1012.5 |
| 20260510124942 | 12 | 233 | 3.2 | 11.3 | 0.00 | 0.00 | 0.00 | 89 | 1012.5 |
| 20260510124842 | 12 | 219 | 3.2 | 8.0 | 0.00 | 0.00 | 0.00 | 89 | 1012.5 |
| 20260510124742 | 12 | 215 | 3.2 | 8.0 | 0.00 | 0.00 | 0.00 | 89 | 1012.5 |
| 20260510124642 | 12 | 146 | 4.8 | 9.7 | 0.00 | 0.00 | 0.00 | 89 | 1012.5 |
| 20260510124620 | 12 | 243 | 4.8 | 9.7 | 0.00 | 0.00 | 0.00 | 89 | 1012.5 |
| 20260510124542 | 12 | 165 | 4.8 | 9.7 | 0.00 | 0.00 | 0.00 | 89 | 1012.5 |
| 20260510124336 | 12 | 242 | 4.8 | 9.7 | 0.00 | 0.00 | 0.00 | 89 | 1012.4 |
| 20260510124136 | 12 | 218 | 3.2 | 11.3 | 0.00 | 0.00 | 0.00 | 89 | 1012.4 |
| 20260510124120 | 12 | 158 | 3.2 | 11.3 | 0.00 | 0.00 | 0.00 | 89 | 1012.4 |
| 20260510124036 | 12 | 211 | 3.2 | 11.3 | 0.00 | 0.00 | 0.00 | 89 | 1012.4 |
| 20260510123935 | 12 | 245 | 4.8 | 11.3 | 0.00 | 0.00 | 0.00 | 89 | 1012.4 |
| 20260510123834 | 12 | 186 | 3.2 | 11.3 | 0.00 | 0.00 | 0.00 | 89 | 1012.4 |
| 20260510123734 | 12 | 238 | 3.2 | 11.3 | 0.00 | 0.00 | 0.00 | 89 | 1012.4 |
| 20260510123632 | 12 | 201 | 3.2 | 11.3 | 0.00 | 0.00 | 0.00 | 89 | 1012.4 |
| 20260510123621 | 12 | 149 | 3.2 | 11.3 | 0.00 | 0.00 | 0.00 | 89 | 1012.4 |
| 20260510123530 | 12 | 238 | 3.2 | 11.3 | 0.00 | 0.00 | 0.00 | 89 | 1012.4 |
| 20260510123426 | 12 | 225 | 3.2 | 11.3 | 0.00 | 0.00 | 0.00 | 89 | 1012.4 |
| 20260510123325 | 12 | 166 | 3.2 | 11.3 | 0.00 | 0.00 | 0.00 | 88 | 1012.4 |
| 20260510123225 | 12 | 240 | 3.2 | 8.0 | 0.00 | 0.00 | 0.00 | 88 | 1012.4 |
| 20260510123119 | 12 | 169 | 3.2 | 8.0 | 0.00 | 0.00 | 0.00 | 88 | 1012.4 |
| 20260510123024 | 12 | 203 | 3.2 | 8.0 | 0.00 | 0.00 | 0.00 | 88 | 1012.4 |
| 20260510122918 | 12 | 210 | 1.6 | 8.0 | 0.00 | 0.00 | 0.00 | 88 | 1012.4 |
| 20260510122818 | 12 | 195 | 1.6 | 8.0 | 0.00 | 0.00 | 0.00 | 88 | 1012.4 |
| 20260510122718 | 12 | 259 | 1.6 | 8.0 | 0.00 | 0.00 | 0.00 | 88 | 1012.4 |
| 20260510122624 | 12 | 210 | 3.2 | 6.4 | 0.00 | 0.00 | 0.00 | 88 | 1012.4 |
| 20260510122619 | 12 | 154 | 3.2 | 9.7 | 0.00 | 0.00 | 0.00 | 88 | 1012.4 |
| 20260510122518 | 12 | 147 | 3.2 | 9.7 | 0.00 | 0.00 | 0.00 | 88 | 1012.3 |
| 20260510122413 | 12 | 217 | 3.2 | 9.7 | 0.00 | 0.00 | 0.00 | 88 | 1012.3 |
| 20260510122312 | 12 | 221 | 3.2 | 9.7 | 0.00 | 0.00 | 0.00 | 88 | 1012.4 |
| 20260510122212 | 12 | 197 | 4.8 | 9.7 | 0.00 | 0.00 | 0.00 | 88 | 1012.3 |
| 20260510122112 | 12 | 225 | 4.8 | 11.3 | 0.00 | 0.00 | 0.00 | 88 | 1012.3 |
| 20260510122012 | 12 | 240 | 4.8 | 11.3 | 0.00 | 0.00 | 0.00 | 88 | 1012.3 |
| 20260510121908 | 12 | 235 | 4.8 | 11.3 | 0.00 | 0.00 | 0.00 | 88 | 1012.3 |
| 20260510121806 | 12 | 143 | 4.8 | 11.3 | 0.00 | 0.00 | 0.00 | 88 | 1012.3 |
| 20260510121706 | 12 | 253 | 4.8 | 12.9 | 0.00 | 0.00 | 0.00 | 88 | 1012.3 |
| 20260510121619 | 12 | 239 | 4.8 | 12.9 | 0.00 | 0.00 | 0.00 | 88 | 1012.3 |
| 20260510121606 | 12 | 214 | 4.8 | 12.9 | 0.00 | 0.00 | 0.00 | 88 | 1012.3 |
| 20260510121506 | 12 | 267 | 4.8 | 12.9 | 0.00 | 0.00 | 0.00 | 88 | 1012.3 |
| 20260510121402 | 12 | 127 | 4.8 | 12.9 | 0.00 | 0.00 | 0.00 | 88 | 1012.3 |
| 20260510121337 | 12 | 260 | 3.2 | 12.9 | 0.00 | 0.00 | 0.00 | 88 | 1012.3 |
| 20260510121300 | 12 | 226 | 4.8 | 12.9 | 0.00 | 0.00 | 0.00 | 88 | 1012.3 |
| 20260510121230 | 12 | 243 | 3.2 | 12.9 | 0.00 | 0.00 | 0.00 | 88 | 1012.3 |
| 20260510121101 | 12 | 139 | 3.2 | 12.9 | 0.00 | 0.00 | 0.00 | 88 | 1012.3 |
| 20260510120959 | 12 | 242 | 4.8 | 12.9 | 0.00 | 0.00 | 0.00 | 88 | 1012.3 |
| 20260510120854 | 12 | 239 | 4.8 | 12.9 | 0.00 | 0.00 | 0.00 | 88 | 1012.3 |
| 20260510120754 | 12 | 231 | 4.8 | 12.9 | 0.00 | 0.00 | 0.00 | 88 | 1012.3 |
| 20260510120654 | 12 | 236 | 3.2 | 9.7 | 0.00 | 0.00 | 0.00 | 88 | 1012.2 |
| 20260510120619 | 12 | 242 | 3.2 | 9.7 | 0.00 | 0.00 | 0.00 | 88 | 1012.3 |
| 20260510120554 | 12 | 207 | 3.2 | 9.7 | 0.00 | 0.00 | 0.00 | 88 | 1012.3 |
| 20260510120454 | 12 | 215 | 3.2 | 9.7 | 0.00 | 0.00 | 0.00 | 88 | 1012.2 |
| 20260510120348 | 12 | 180 | 4.8 | 9.7 | 0.00 | 0.00 | 0.00 | 88 | 1012.3 |
| 20260510120249 | 12 | 194 | 3.2 | 9.7 | 0.00 | 0.00 | 0.00 | 88 | 1012.2 |
| 20260510120146 | 12 | 212 | 3.2 | 9.7 | 0.00 | 0.00 | 0.00 | 88 | 1012.2 |
| 20260510120120 | 12 | 245 | 3.2 | 9.7 | 0.00 | 0.00 | 0.00 | 88 | 1012.2 |
| 20260510120046 | 12 | 251 | 3.2 | 9.7 | 0.00 | 0.00 | 0.00 | 88 | 1012.2 |
| 20260510115946 | 12 | 236 | 3.2 | 11.3 | 0.00 | 0.00 | 0.00 | 88 | 1012.2 |
| 20260510115842 | 12 | 207 | 3.2 | 11.3 | 0.00 | 0.00 | 0.00 | 88 | 1012.2 |
| 20260510115827 | 12 | 230 | 4.8 | 11.3 | 0.00 | 0.00 | 0.00 | 88 | 1012.2 |
| 20260510115743 | 12 | 212 | 3.2 | 11.3 | 0.00 | 0.00 | 0.00 | 88 | 1012.2 |
| 20260510115724 | 12 | 239 | 3.2 | 11.3 | 0.00 | 0.00 | 0.00 | 88 | 1012.2 |
| 20260510115714 | 12 | 229 | 3.2 | 11.3 | 0.00 | 0.00 | 0.00 | 88 | 1012.2 |
| 20260510115542 | 12 | 225 | 3.2 | 11.3 | 0.00 | 0.00 | 0.00 | 88 | 1012.2 |
| 20260510115455 | 12 | 238 | 3.2 | 11.3 | 0.00 | 0.00 | 0.00 | 88 | 1012.2 |
| 20260510115342 | 12 | 225 | 3.2 | 11.3 | 0.00 | 0.00 | 0.00 | 88 | 1012.2 |
| 20260510115242 | 12 | 245 | 3.2 | 11.3 | 0.00 | 0.00 | 0.00 | 88 | 1012.3 |
| 20260510115230 | 12 | 217 | 3.2 | 11.3 | 0.00 | 0.00 | 0.00 | 88 | 1012.2 |
| 20260510115042 | 12 | 161 | 4.8 | 11.3 | 0.00 | 0.00 | 0.00 | 88 | 1012.2 |
| 20260510114942 | 13 | 242 | 3.2 | 8.0 | 0.00 | 0.00 | 0.00 | 88 | 1012.2 |
| 20260510114843 | 13 | 224 | 4.8 | 8.0 | 0.00 | 0.00 | 0.00 | 88 | 1012.2 |
| 20260510114742 | 13 | 238 | 4.8 | 8.0 | 0.00 | 0.00 | 0.00 | 88 | 1012.2 |
| 20260510114642 | 13 | 229 | 4.8 | 9.7 | 0.00 | 0.00 | 0.00 | 88 | 1012.2 |
| 20260510114620 | 13 | 243 | 4.8 | 9.7 | 0.00 | 0.00 | 0.00 | 88 | 1012.2 |
| 20260510114542 | 13 | 228 | 4.8 | 9.7 | 0.00 | 0.00 | 0.00 | 88 | 1012.2 |
| 20260510114442 | 13 | 239 | 4.8 | 9.7 | 0.00 | 0.00 | 0.00 | 88 | 1012.2 |
| 20260510114342 | 13 | 188 | 4.8 | 12.9 | 0.00 | 0.00 | 0.00 | 88 | 1012.1 |
| 20260510114242 | 13 | 211 | 4.8 | 12.9 | 0.00 | 0.00 | 0.00 | 87 | 1012.2 |
| 20260510114136 | 13 | 234 | 4.8 | 12.9 | 0.00 | 0.00 | 0.00 | 87 | 1012.1 |
| 20260510114119 | 13 | 224 | 4.8 | 12.9 | 0.00 | 0.00 | 0.00 | 87 | 1012.1 |
| 20260510114107 | 13 | 223 | 6.4 | 16.1 | 0.00 | 0.00 | 0.00 | 87 | 1012.2 |
| 20260510114036 | 13 | 221 | 4.8 | 12.9 | 0.00 | 0.00 | 0.00 | 87 | 1012.2 |
| 20260510113957 | 13 | 138 | 4.8 | 12.9 | 0.00 | 0.00 | 0.00 | 87 | 1012.2 |
| 20260510113836 | 13 | 200 | 6.4 | 16.1 | 0.00 | 0.00 | 0.00 | 87 | 1012.2 |
| 20260510113740 | 13 | 222 | 6.4 | 16.1 | 0.00 | 0.00 | 0.00 | 87 | 1012.2 |
| 20260510113732 | 13 | 238 | 6.4 | 16.1 | 0.00 | 0.00 | 0.00 | 87 | 1012.2 |
| 20260510113532 | 13 | 212 | 6.4 | 16.1 | 0.00 | 0.00 | 0.00 | 87 | 1012.2 |
| 20260510113432 | 13 | 221 | 6.4 | 16.1 | 0.00 | 0.00 | 0.00 | 87 | 1012.2 |
| 20260510113333 | 13 | 240 | 6.4 | 16.1 | 0.00 | 0.00 | 0.00 | 87 | 1012.2 |
| 20260510113233 | 13 | 241 | 6.4 | 16.1 | 0.00 | 0.00 | 0.00 | 87 | 1012.3 |
| 20260510113119 | 13 | 214 | 6.4 | 16.1 | 0.00 | 0.00 | 0.00 | 87 | 1012.3 |
| 20260510113032 | 13 | 250 | 6.4 | 16.1 | 0.00 | 0.00 | 0.00 | 87 | 1012.2 |
| 20260510112936 | 13 | 155 | 6.4 | 16.1 | 0.00 | 0.00 | 0.00 | 87 | 1012.3 |
| 20260510112832 | 13 | 180 | 4.8 | 16.1 | 0.00 | 0.00 | 0.00 | 87 | 1012.2 |
| 20260510112732 | 13 | 248 | 4.8 | 16.1 | 0.00 | 0.00 | 0.00 | 87 | 1012.3 |
| 20260510112632 | 13 | 168 | 4.8 | 16.1 | 0.00 | 0.00 | 0.00 | 87 | 1012.3 |
| 20260510112621 | 13 | 136 | 4.8 | 16.1 | 0.00 | 0.00 | 0.00 | 87 | 1012.3 |
| 20260510112532 | 13 | 239 | 4.8 | 16.1 | 0.00 | 0.00 | 0.00 | 87 | 1012.3 |
| 20260510112432 | 13 | 267 | 3.2 | 11.3 | 0.00 | 0.00 | 0.00 | 87 | 1012.3 |
| 20260510112332 | 13 | 224 | 3.2 | 9.7 | 0.00 | 0.00 | 0.00 | 87 | 1012.3 |
| 20260510112233 | 13 | 245 | 3.2 | 9.7 | 0.00 | 0.00 | 0.00 | 87 | 1012.3 |
| 20260510112132 | 13 | 214 | 3.2 | 9.7 | 0.00 | 0.00 | 0.00 | 87 | 1012.3 |
| 20260510112121 | 13 | 146 | 3.2 | 9.7 | 0.00 | 0.00 | 0.00 | 87 | 1012.3 |
| 20260510112030 | 13 | 243 | 3.2 | 9.7 | 0.00 | 0.00 | 0.00 | 87 | 1012.3 |
| 20260510111924 | 13 | 225 | 3.2 | 8.0 | 0.00 | 0.00 | 0.00 | 87 | 1012.3 |
| 20260510111847 | 13 | 222 | 1.6 | 8.0 | 0.00 | 0.00 | 0.00 | 87 | 1012.2 |
| 20260510111824 | 13 | 234 | 3.2 | 8.0 | 0.00 | 0.00 | 0.00 | 87 | 1012.3 |
| 20260510111739 | 13 | 229 | 1.6 | 8.0 | 0.00 | 0.00 | 0.00 | 87 | 1012.3 |
| 20260510111729 | 13 | 222 | 1.6 | 8.0 | 0.00 | 0.00 | 0.00 | 87 | 1012.2 |
| 20260510111522 | 13 | 236 | 1.6 | 8.0 | 0.00 | 0.00 | 0.00 | 87 | 1012.2 |
| 20260510111419 | 13 | 203 | 1.6 | 8.0 | 0.00 | 0.00 | 0.00 | 87 | 1012.2 |
| 20260510111319 | 13 | 218 | 1.6 | 8.0 | 0.00 | 0.00 | 0.00 | 87 | 1012.2 |
| 20260510111218 | 13 | 198 | 1.6 | 8.0 | 0.00 | 0.00 | 0.00 | 87 | 1012.2 |
| 20260510111119 | 13 | 215 | 3.2 | 8.0 | 0.00 | 0.00 | 0.00 | 87 | 1012.2 |
| 20260510111016 | 13 | 155 | 3.2 | 8.0 | 0.00 | 0.00 | 0.00 | 87 | 1012.2 |
| 20260510110911 | 13 | 150 | 3.2 | 8.0 | 0.00 | 0.00 | 0.00 | 87 | 1012.1 |
| 20260510110810 | 13 | 219 | 3.2 | 8.0 | 0.00 | 0.00 | 0.00 | 87 | 1012.1 |
| 20260510110710 | 13 | 235 | 3.2 | 8.0 | 0.00 | 0.00 | 0.00 | 87 | 1012.1 |
| 20260510110610 | 13 | 216 | 3.2 | 8.0 | 0.00 | 0.00 | 0.00 | 87 | 1012.1 |
| 20260510110511 | 13 | 211 | 3.2 | 8.0 | 0.00 | 0.00 | 0.00 | 87 | 1012.0 |
| 20260510110406 | 13 | 233 | 3.2 | 8.0 | 0.00 | 0.00 | 0.00 | 87 | 1012.0 |
| 20260510110307 | 13 | 218 | 1.6 | 6.4 | 0.00 | 0.00 | 0.00 | 87 | 1012.0 |
| 20260510110207 | 13 | 222 | 1.6 | 6.4 | 0.00 | 0.00 | 0.00 | 87 | 1012.0 |
| 20260510110119 | 13 | 230 | 1.6 | 6.4 | 0.00 | 0.00 | 0.00 | 87 | 1012.0 |
| 20260510110106 | 13 | 235 | 1.6 | 6.4 | 0.00 | 0.00 | 0.00 | 87 | 1012.0 |
| 20260510110006 | 13 | 232 | 3.2 | 9.7 | 0.00 | 0.00 | 0.00 | 87 | 1012.0 |
| 20260510105906 | 13 | 232 | 3.2 | 11.3 | 0.00 | 0.00 | 0.00 | 87 | 1012.0 |
| 20260510105805 | 13 | 222 | 3.2 | 11.3 | 0.00 | 0.00 | 0.00 | 87 | 1012.0 |
| 20260510105704 | 13 | 226 | 3.2 | 11.3 | 0.00 | 0.00 | 0.00 | 87 | 1012.0 |
| 20260510105619 | 13 | 252 | 3.2 | 11.3 | 0.00 | 0.00 | 0.00 | 87 | 1012.0 |
| 20260510105605 | 13 | 160 | 3.2 | 11.3 | 0.00 | 0.00 | 0.00 | 87 | 1012.0 |
| 20260510105504 | 13 | 154 | 4.8 | 11.3 | 0.00 | 0.00 | 0.00 | 87 | 1012.0 |
| 20260510105402 | 13 | 153 | 4.8 | 11.3 | 0.00 | 0.00 | 0.00 | 87 | 1012.0 |
| 20260510105306 | 13 | 154 | 4.8 | 11.3 | 0.00 | 0.00 | 0.00 | 87 | 1012.0 |
| 20260510105203 | 13 | 212 | 4.8 | 11.3 | 0.00 | 0.00 | 0.00 | 86 | 1012.0 |
| 20260510105119 | 13 | 211 | 4.8 | 11.3 | 0.00 | 0.00 | 0.00 | 86 | 1012.0 |
| 20260510105102 | 13 | 238 | 4.8 | 11.3 | 0.00 | 0.00 | 0.00 | 86 | 1012.0 |
| 20260510105002 | 13 | 141 | 3.2 | 11.3 | 0.00 | 0.00 | 0.00 | 86 | 1012.0 |
| 20260510104802 | 13 | 138 | 3.2 | 6.4 | 0.00 | 0.00 | 0.00 | 86 | 1012.0 |
| 20260510104658 | 13 | 218 | 3.2 | 9.7 | 0.00 | 0.00 | 0.00 | 86 | 1012.1 |
| 20260510104618 | 13 | 232 | 3.2 | 9.7 | 0.00 | 0.00 | 0.00 | 86 | 1012.0 |
| 20260510104558 | 13 | 231 | 3.2 | 9.7 | 0.00 | 0.00 | 0.00 | 86 | 1012.0 |
| 20260510104459 | 13 | 200 | 3.2 | 9.7 | 0.00 | 0.00 | 0.00 | 86 | 1012.0 |
| 20260510104358 | 13 | 211 | 3.2 | 9.7 | 0.00 | 0.00 | 0.00 | 86 | 1012.0 |
| 20260510104258 | 13 | 210 | 3.2 | 11.3 | 0.00 | 0.00 | 0.00 | 86 | 1012.0 |
| 20260510104159 | 13 | 190 | 3.2 | 11.3 | 0.00 | 0.00 | 0.00 | 86 | 1012.0 |
| 20260510104120 | 13 | 226 | 3.2 | 11.3 | 0.00 | 0.00 | 0.00 | 86 | 1012.0 |
| 20260510104058 | 13 | 228 | 3.2 | 11.3 | 0.00 | 0.00 | 0.00 | 86 | 1012.0 |
| 20260510103958 | 13 | 219 | 4.8 | 11.3 | 0.00 | 0.00 | 0.00 | 86 | 1012.0 |
| 20260510103858 | 13 | 162 | 3.2 | 11.3 | 0.00 | 0.00 | 0.00 | 86 | 1012.0 |
| 20260510103841 | 13 | 193 | 3.2 | 11.3 | 0.00 | 0.00 | 0.00 | 86 | 1012.0 |
| 20260510103758 | 13 | 222 | 3.2 | 11.3 | 0.00 | 0.00 | 0.00 | 86 | 1012.1 |
| 20260510103726 | 13 | 148 | 3.2 | 11.3 | 0.00 | 0.00 | 0.00 | 86 | 1012.1 |
| 20260510103558 | 13 | 193 | 3.2 | 11.3 | 0.00 | 0.00 | 0.00 | 86 | 1012.0 |
| 20260510103459 | 13 | 203 | 4.8 | 11.3 | 0.00 | 0.00 | 0.00 | 86 | 1012.1 |
| 20260510103358 | 13 | 169 | 3.2 | 11.3 | 0.00 | 0.00 | 0.00 | 86 | 1012.0 |
| 20260510103338 | 13 | 232 | 4.8 | 12.9 | 0.00 | 0.00 | 0.00 | 86 | 1012.0 |
| 20260510103258 | 13 | 269 | 3.2 | 9.7 | 0.00 | 0.00 | 0.00 | 86 | 1012.1 |
| 20260510103226 | 13 | 194 | 4.8 | 9.7 | 0.00 | 0.00 | 0.00 | 86 | 1012.1 |
| 20260510103058 | 13 | 230 | 4.8 | 12.9 | 0.00 | 0.00 | 0.00 | 86 | 1012.0 |
| 20260510102952 | 13 | 269 | 4.8 | 12.9 | 0.00 | 0.00 | 0.00 | 86 | 1012.0 |
| 20260510102853 | 13 | 243 | 4.8 | 12.9 | 0.00 | 0.00 | 0.00 | 86 | 1012.1 |
| 20260510102752 | 13 | 137 | 4.8 | 12.9 | 0.00 | 0.00 | 0.00 | 86 | 1012.1 |
| 20260510102652 | 13 | 186 | 4.8 | 12.9 | 0.00 | 0.00 | 0.00 | 86 | 1012.1 |
| 20260510102617 | 13 | 210 | 4.8 | 12.9 | 0.00 | 0.00 | 0.00 | 86 | 1012.1 |
| 20260510102552 | 13 | 162 | 4.8 | 12.9 | 0.00 | 0.00 | 0.00 | 86 | 1012.1 |
| 20260510102450 | 13 | 285 | 4.8 | 12.9 | 0.00 | 0.00 | 0.00 | 86 | 1012.1 |
| 20260510102350 | 13 | 225 | 4.8 | 12.9 | 0.00 | 0.00 | 0.00 | 86 | 1012.1 |
| 20260510102251 | 13 | 212 | 4.8 | 12.9 | 0.00 | 0.00 | 0.00 | 86 | 1012.1 |
| 20260510102151 | 13 | 200 | 4.8 | 12.9 | 0.00 | 0.00 | 0.00 | 86 | 1012.0 |
| 20260510102115 | 13 | 207 | 4.8 | 12.9 | 0.00 | 0.00 | 0.00 | 86 | 1012.1 |
| 20260510102049 | 13 | 205 | 4.8 | 12.9 | 0.00 | 0.00 | 0.00 | 86 | 1012.1 |
| 20260510101948 | 13 | 204 | 4.8 | 11.3 | 0.00 | 0.00 | 0.00 | 86 | 1012.1 |
| 20260510101848 | 13 | 239 | 4.8 | 11.3 | 0.00 | 0.00 | 0.00 | 86 | 1012.1 |
| 20260510101748 | 13 | 207 | 4.8 | 11.3 | 0.00 | 0.00 | 0.00 | 86 | 1012.1 |
| 20260510101648 | 13 | 240 | 4.8 | 11.3 | 0.00 | 0.00 | 0.00 | 86 | 1012.0 |
| 20260510101613 | 13 | 240 | 4.8 | 11.3 | 0.00 | 0.00 | 0.00 | 86 | 1012.0 |
| 20260510101557 | 13 | 204 | 4.8 | 14.5 | 0.00 | 0.00 | 0.00 | 86 | 1012.0 |
| 20260510101546 | 13 | 173 | 4.8 | 11.3 | 0.00 | 0.00 | 0.00 | 86 | 1012.0 |
| 20260510101451 | 13 | 174 | 4.8 | 9.7 | 0.00 | 0.00 | 0.00 | 86 | 1012.1 |
| 20260510101442 | 13 | 159 | 4.8 | 11.3 | 0.00 | 0.00 | 0.00 | 86 | 1012.1 |
| 20260510101246 | 13 | 228 | 4.8 | 11.3 | 0.00 | 0.00 | 0.00 | 86 | 1012.0 |
| 20260510101225 | 13 | 210 | 4.8 | 11.3 | 0.00 | 0.00 | 0.00 | 86 | 1012.1 |
| 20260510101047 | 13 | 228 | 4.8 | 14.5 | 0.00 | 0.00 | 0.00 | 86 | 1012.0 |
| 20260510100946 | 13 | 210 | 4.8 | 14.5 | 0.00 | 0.00 | 0.00 | 86 | 1012.0 |
| 20260510100847 | 13 | 160 | 4.8 | 14.5 | 0.00 | 0.00 | 0.00 | 85 | 1012.1 |
| 20260510100741 | 13 | 218 | 4.8 | 14.5 | 0.00 | 0.00 | 0.00 | 85 | 1012.1 |
| 20260510100640 | 13 | 248 | 6.4 | 14.5 | 0.00 | 0.00 | 0.00 | 85 | 1012.1 |
| 20260510100614 | 13 | 242 | 6.4 | 14.5 | 0.00 | 0.00 | 0.00 | 85 | 1012.1 |
| 20260510100540 | 13 | 176 | 6.4 | 14.5 | 0.00 | 0.00 | 0.00 | 85 | 1012.1 |
| 20260510100340 | 13 | 217 | 6.4 | 14.5 | 0.00 | 0.00 | 0.00 | 85 | 1012.0 |
| 20260510100238 | 13 | 242 | 6.4 | 16.1 | 0.00 | 0.00 | 0.00 | 85 | 1012.1 |
| 20260510100138 | 13 | 225 | 6.4 | 20.9 | 0.00 | 0.00 | 0.00 | 85 | 1012.0 |
| 20260510100121 | 13 | 248 | 6.4 | 20.9 | 0.00 | 0.00 | 0.00 | 85 | 1012.0 |
| 20260510100114 | 13 | 245 | 6.4 | 20.9 | 0.00 | 0.00 | 0.00 | 85 | 1012.0 |
| 20260510100038 | 13 | 224 | 8.0 | 20.9 | 0.00 | 0.00 | 0.00 | 85 | 1012.0 |
| 20260510095959 | 13 | 245 | 8.0 | 20.9 | 0.00 | 0.00 | 0.00 | 85 | 1012.0 |
| 20260510095836 | 13 | 239 | 6.4 | 20.9 | 0.00 | 0.00 | 0.00 | 85 | 1012.0 |
| 20260510095736 | 13 | 205 | 6.4 | 20.9 | 0.00 | 0.00 | 0.00 | 85 | 1012.0 |
| 20260510095726 | 13 | 228 | 6.4 | 20.9 | 0.00 | 0.00 | 0.00 | 85 | 1012.0 |
| 20260510095536 | 13 | 236 | 6.4 | 20.9 | 0.00 | 0.00 | 0.00 | 85 | 1012.1 |
| 20260510095436 | 13 | 226 | 6.4 | 20.9 | 0.00 | 0.00 | 0.00 | 85 | 1012.1 |
| 20260510095335 | 14 | 217 | 4.8 | 20.9 | 0.00 | 0.00 | 0.00 | 85 | 1012.1 |
| 20260510095238 | 14 | 232 | 4.8 | 20.9 | 0.00 | 0.00 | 0.00 | 85 | 1012.0 |
| 20260510095136 | 14 | 225 | 4.8 | 12.9 | 0.00 | 0.00 | 0.00 | 85 | 1012.0 |
| 20260510095114 | 14 | 218 | 4.8 | 12.9 | 0.00 | 0.00 | 0.00 | 85 | 1012.0 |
| 20260510095036 | 14 | 167 | 3.2 | 12.9 | 0.00 | 0.00 | 0.00 | 85 | 1012.0 |
| 20260510094936 | 14 | 204 | 3.2 | 8.0 | 0.00 | 0.00 | 0.00 | 85 | 1012.0 |
| 20260510094837 | 14 | 116 | 3.2 | 8.0 | 0.00 | 0.00 | 0.00 | 85 | 1012.0 |
| 20260510094738 | 14 | 195 | 3.2 | 8.0 | 0.00 | 0.00 | 0.00 | 85 | 1012.0 |
| 20260510094636 | 14 | 235 | 3.2 | 8.0 | 0.00 | 0.00 | 0.00 | 85 | 1012.0 |
| 20260510094614 | 14 | 224 | 3.2 | 8.0 | 0.00 | 0.00 | 0.00 | 85 | 1012.0 |
| 20260510094535 | 14 | 226 | 3.2 | 8.0 | 0.00 | 0.00 | 0.00 | 85 | 1012.0 |
| 20260510094434 | 14 | 208 | 3.2 | 8.0 | 0.00 | 0.00 | 0.00 | 84 | 1011.9 |
| 20260510094335 | 14 | 217 | 4.8 | 8.0 | 0.00 | 0.00 | 0.00 | 84 | 1011.9 |
| 20260510094238 | 14 | 208 | 4.8 | 14.5 | 0.00 | 0.00 | 0.00 | 84 | 1012.0 |
| 20260510094134 | 14 | 228 | 4.8 | 16.1 | 0.00 | 0.00 | 0.00 | 84 | 1011.9 |
| 20260510094112 | 14 | 241 | 4.8 | 16.1 | 0.00 | 0.00 | 0.00 | 84 | 1011.9 |
| 20260510094034 | 14 | 225 | 4.8 | 16.1 | 0.00 | 0.00 | 0.00 | 84 | 1011.9 |
| 20260510093935 | 14 | 221 | 4.8 | 16.1 | 0.00 | 0.00 | 0.00 | 84 | 1011.9 |
| 20260510093832 | 14 | 231 | 4.8 | 16.1 | 0.00 | 0.00 | 0.00 | 84 | 1011.9 |
| 20260510093732 | 14 | 215 | 4.8 | 16.1 | 0.00 | 0.00 | 0.00 | 84 | 1011.9 |
| 20260510093632 | 14 | 187 | 4.8 | 16.1 | 0.00 | 0.00 | 0.00 | 84 | 1011.9 |
| 20260510093612 | 14 | 219 | 4.8 | 16.1 | 0.00 | 0.00 | 0.00 | 84 | 1011.9 |
| 20260510093532 | 14 | 217 | 4.8 | 16.1 | 0.00 | 0.00 | 0.00 | 84 | 1011.9 |
| 20260510093433 | 14 | 229 | 4.8 | 16.1 | 0.00 | 0.00 | 0.00 | 84 | 1011.9 |
| 20260510093333 | 14 | 224 | 4.8 | 16.1 | 0.00 | 0.00 | 0.00 | 84 | 1011.8 |
| 20260510093232 | 14 | 245 | 3.2 | 16.1 | 0.00 | 0.00 | 0.00 | 84 | 1011.8 |
| 20260510093132 | 14 | 233 | 3.2 | 9.7 | 0.00 | 0.00 | 0.00 | 84 | 1011.8 |
| 20260510093112 | 14 | 232 | 3.2 | 9.7 | 0.00 | 0.00 | 0.00 | 84 | 1011.8 |
| 20260510093033 | 14 | 174 | 4.8 | 9.7 | 0.00 | 0.00 | 0.00 | 84 | 1011.9 |
| 20260510092932 | 14 | 221 | 4.8 | 14.5 | 0.00 | 0.00 | 0.00 | 84 | 1011.9 |
| 20260510092826 | 14 | 223 | 4.8 | 14.5 | 0.00 | 0.00 | 0.00 | 84 | 1011.9 |
| 20260510092726 | 14 | 216 | 4.8 | 14.5 | 0.00 | 0.00 | 0.00 | 84 | 1011.9 |
| 20260510092626 | 14 | 198 | 4.8 | 14.5 | 0.00 | 0.00 | 0.00 | 84 | 1011.9 |
| 20260510092612 | 14 | 187 | 4.8 | 14.5 | 0.00 | 0.00 | 0.00 | 84 | 1011.9 |
| 20260510092526 | 14 | 218 | 4.8 | 14.5 | 0.00 | 0.00 | 0.00 | 84 | 1011.9 |
| 20260510092426 | 14 | 232 | 4.8 | 14.5 | 0.00 | 0.00 | 0.00 | 84 | 1011.9 |
| 20260510092332 | 14 | 219 | 4.8 | 14.5 | 0.00 | 0.00 | 0.00 | 84 | 1011.9 |
| 20260510092326 | 14 | 256 | 4.8 | 14.5 | 0.00 | 0.00 | 0.00 | 84 | 1011.9 |
| 20260510092229 | 14 | 232 | 4.8 | 14.5 | 0.00 | 0.00 | 0.00 | 84 | 1011.9 |
| 20260510092220 | 14 | 218 | 4.8 | 14.5 | 0.00 | 0.00 | 0.00 | 84 | 1011.9 |
| 20260510092025 | 14 | 238 | 4.8 | 14.5 | 0.00 | 0.00 | 0.00 | 84 | 1011.9 |
| 20260510091927 | 14 | 211 | 4.8 | 12.9 | 0.00 | 0.00 | 0.00 | 84 | 1011.9 |
| 20260510091834 | 14 | 219 | 4.8 | 16.1 | 0.00 | 0.00 | 0.00 | 84 | 1011.9 |
| 20260510091824 | 14 | 187 | 6.4 | 12.9 | 0.00 | 0.00 | 0.00 | 84 | 1011.9 |
| 20260510091731 | 14 | 266 | 4.8 | 12.9 | 0.00 | 0.00 | 0.00 | 84 | 1012.0 |
| 20260510091722 | 14 | 210 | 4.8 | 16.1 | 0.00 | 0.00 | 0.00 | 84 | 1011.9 |
| 20260510091525 | 14 | 207 | 6.4 | 16.1 | 0.00 | 0.00 | 0.00 | 84 | 1011.9 |
| 20260510091425 | 14 | 257 | 4.8 | 16.1 | 0.00 | 0.00 | 0.00 | 84 | 1011.9 |
| 20260510091324 | 14 | 257 | 4.8 | 16.1 | 0.00 | 0.00 | 0.00 | 84 | 1011.9 |
| 20260510091224 | 14 | 214 | 4.8 | 16.1 | 0.00 | 0.00 | 0.00 | 84 | 1011.9 |
| 20260510091121 | 14 | 235 | 4.8 | 16.1 | 0.00 | 0.00 | 0.00 | 84 | 1011.9 |
| 20260510091110 | 14 | 205 | 4.8 | 16.1 | 0.00 | 0.00 | 0.00 | 84 | 1011.9 |
| 20260510091020 | 14 | 236 | 6.4 | 17.7 | 0.00 | 0.00 | 0.00 | 84 | 1011.9 |
| 20260510090921 | 14 | 262 | 4.8 | 17.7 | 0.00 | 0.00 | 0.00 | 85 | 1011.8 |
| 20260510090831 | 14 | 276 | 6.4 | 17.7 | 0.00 | 0.00 | 0.00 | 85 | 1011.8 |
| 20260510090820 | 14 | 225 | 6.4 | 17.7 | 0.00 | 0.00 | 0.00 | 85 | 1011.9 |
| 20260510090729 | 14 | 231 | 6.4 | 17.7 | 0.00 | 0.00 | 0.00 | 85 | 1011.8 |
| 20260510090720 | 14 | 276 | 6.4 | 17.7 | 0.00 | 0.00 | 0.00 | 85 | 1011.8 |
| 20260510090518 | 14 | 239 | 6.4 | 17.7 | 0.00 | 0.00 | 0.00 | 85 | 1011.8 |
| 20260510090418 | 14 | 221 | 6.4 | 17.7 | 0.00 | 0.00 | 0.00 | 85 | 1011.8 |
| 20260510090318 | 14 | 250 | 6.4 | 17.7 | 0.00 | 0.00 | 0.00 | 85 | 1011.9 |
| 20260510090216 | 14 | 294 | 6.4 | 17.7 | 0.00 | 0.00 | 0.00 | 85 | 1011.9 |
| 20260510090124 | 14 | 236 | 6.4 | 17.7 | 0.00 | 0.00 | 0.00 | 85 | 1011.8 |
| 20260510090113 | 14 | 235 | 6.4 | 17.7 | 0.00 | 0.00 | 0.00 | 85 | 1011.8 |
| 20260510090016 | 14 | 236 | 6.4 | 14.5 | 0.00 | 0.00 | 0.00 | 85 | 1011.8 |
| 20260510085917 | 14 | 184 | 6.4 | 14.5 | 0.00 | 0.00 | 0.00 | 85 | 1011.9 |
| 20260510085815 | 14 | 248 | 6.4 | 14.5 | 0.00 | 0.00 | 0.00 | 85 | 1011.8 |
| 20260510085716 | 14 | 219 | 6.4 | 14.5 | 0.00 | 0.00 | 0.00 | 85 | 1011.8 |
| 20260510085622 | 14 | 224 | 6.4 | 14.5 | 0.00 | 0.00 | 0.00 | 85 | 1011.9 |
| 20260510085612 | 14 | 236 | 6.4 | 14.5 | 0.00 | 0.00 | 0.00 | 85 | 1011.9 |
| 20260510085557 | 14 | 228 | 6.4 | 14.5 | 0.00 | 0.00 | 0.00 | 85 | 1011.8 |
| 20260510085516 | 14 | 236 | 6.4 | 14.5 | 0.00 | 0.00 | 0.00 | 85 | 1011.8 |
| 20260510085440 | 14 | 232 | 6.4 | 14.5 | 0.00 | 0.00 | 0.00 | 85 | 1011.8 |
| 20260510085314 | 14 | 219 | 6.4 | 14.5 | 0.00 | 0.00 | 0.00 | 85 | 1011.8 |
| 20260510085229 | 14 | 193 | 6.4 | 14.5 | 0.00 | 0.00 | 0.00 | 85 | 1011.9 |
| 20260510085221 | 14 | 228 | 6.4 | 14.5 | 0.00 | 0.00 | 0.00 | 85 | 1011.8 |
| 20260510085015 | 14 | 221 | 6.4 | 14.5 | 0.00 | 0.00 | 0.00 | 85 | 1011.9 |
| 20260510084909 | 14 | 224 | 6.4 | 14.5 | 0.00 | 0.00 | 0.00 | 85 | 1011.9 |
| 20260510084809 | 14 | 217 | 6.4 | 14.5 | 0.00 | 0.00 | 0.00 | 85 | 1011.8 |
| 20260510084707 | 14 | 253 | 6.4 | 12.9 | 0.00 | 0.00 | 0.00 | 84 | 1011.8 |
| 20260510084613 | 14 | 207 | 6.4 | 12.9 | 0.00 | 0.00 | 0.00 | 84 | 1011.8 |
| 20260510084606 | 14 | 186 | 6.4 | 12.9 | 0.00 | 0.00 | 0.00 | 84 | 1011.8 |
| 20260510084506 | 14 | 217 | 6.4 | 12.9 | 0.00 | 0.00 | 0.00 | 84 | 1011.8 |
| 20260510084405 | 14 | 184 | 6.4 | 12.9 | 0.00 | 0.00 | 0.00 | 84 | 1011.9 |
| 20260510084304 | 14 | 158 | 6.4 | 12.9 | 0.00 | 0.00 | 0.00 | 84 | 1011.8 |
| 20260510084205 | 14 | 205 | 6.4 | 12.9 | 0.00 | 0.00 | 0.00 | 84 | 1011.8 |
| 20260510084110 | 14 | 207 | 6.4 | 12.9 | 0.00 | 0.00 | 0.00 | 84 | 1011.8 |
| 20260510084104 | 14 | 207 | 6.4 | 12.9 | 0.00 | 0.00 | 0.00 | 84 | 1011.8 |
| 20260510084005 | 14 | 252 | 6.4 | 12.9 | 0.00 | 0.00 | 0.00 | 84 | 1011.8 |
| 20260510083904 | 14 | 235 | 6.4 | 12.9 | 0.00 | 0.00 | 0.00 | 84 | 1011.8 |
| 20260510083804 | 14 | 238 | 6.4 | 12.9 | 0.00 | 0.00 | 0.00 | 84 | 1011.8 |
| 20260510083704 | 14 | 214 | 6.4 | 12.9 | 0.00 | 0.00 | 0.00 | 84 | 1011.8 |
| 20260510083610 | 14 | 224 | 6.4 | 16.1 | 0.00 | 0.00 | 0.00 | 84 | 1011.8 |
| 20260510083604 | 14 | 229 | 6.4 | 16.1 | 0.00 | 0.00 | 0.00 | 84 | 1011.8 |
| 20260510083505 | 14 | 194 | 6.4 | 16.1 | 0.00 | 0.00 | 0.00 | 84 | 1011.8 |
| 20260510083404 | 14 | 235 | 6.4 | 16.1 | 0.00 | 0.00 | 0.00 | 83 | 1011.8 |
| 20260510083303 | 14 | 225 | 6.4 | 16.1 | 0.00 | 0.00 | 0.00 | 83 | 1011.7 |
| 20260510083202 | 14 | 235 | 6.4 | 16.1 | 0.00 | 0.00 | 0.00 | 83 | 1011.7 |
| 20260510083110 | 14 | 233 | 6.4 | 16.1 | 0.00 | 0.00 | 0.00 | 83 | 1011.8 |
| 20260510083102 | 14 | 207 | 6.4 | 16.1 | 0.00 | 0.00 | 0.00 | 83 | 1011.8 |
| 20260510083002 | 14 | 207 | 6.4 | 16.1 | 0.00 | 0.00 | 0.00 | 83 | 1011.8 |
| 20260510082903 | 15 | 198 | 6.4 | 16.1 | 0.00 | 0.00 | 0.00 | 83 | 1011.7 |
| 20260510082802 | 15 | 198 | 6.4 | 16.1 | 0.00 | 0.00 | 0.00 | 83 | 1011.7 |
| 20260510082656 | 15 | 211 | 6.4 | 16.1 | 0.00 | 0.00 | 0.00 | 83 | 1011.7 |
| 20260510082610 | 15 | 250 | 6.4 | 12.9 | 0.00 | 0.00 | 0.00 | 83 | 1011.8 |
| 20260510082557 | 15 | 233 | 6.4 | 12.9 | 0.00 | 0.00 | 0.00 | 83 | 1011.8 |
| 20260510082455 | 15 | 215 | 6.4 | 12.9 | 0.00 | 0.00 | 0.00 | 83 | 1011.7 |
| 20260510082354 | 15 | 226 | 6.4 | 12.9 | 0.00 | 0.00 | 0.00 | 83 | 1011.7 |
| 20260510082254 | 15 | 214 | 6.4 | 12.9 | 0.00 | 0.00 | 0.00 | 83 | 1011.7 |
| 20260510082148 | 15 | 229 | 6.4 | 12.9 | 0.00 | 0.00 | 0.00 | 83 | 1011.7 |
| 20260510082109 | 15 | 219 | 4.8 | 12.9 | 0.00 | 0.00 | 0.00 | 83 | 1011.7 |
| 20260510082048 | 15 | 222 | 4.8 | 12.9 | 0.00 | 0.00 | 0.00 | 82 | 1011.7 |
| 20260510081946 | 15 | 229 | 4.8 | 12.9 | 0.00 | 0.00 | 0.00 | 82 | 1011.7 |
| 20260510081846 | 15 | 240 | 4.8 | 12.9 | 0.00 | 0.00 | 0.00 | 82 | 1011.8 |
| 20260510081746 | 15 | 165 | 4.8 | 12.9 | 0.00 | 0.00 | 0.00 | 82 | 1011.8 |
| 20260510081640 | 15 | 173 | 6.4 | 12.9 | 0.00 | 0.00 | 0.00 | 82 | 1011.8 |
| 20260510081605 | 15 | 226 | 6.4 | 12.9 | 0.00 | 0.00 | 0.00 | 82 | 1011.8 |
| 20260510081541 | 15 | 231 | 6.4 | 12.9 | 0.00 | 0.00 | 0.00 | 82 | 1011.8 |
| 20260510081440 | 15 | 215 | 4.8 | 12.9 | 0.00 | 0.00 | 0.00 | 82 | 1011.8 |
| 20260510081340 | 15 | 155 | 4.8 | 12.9 | 0.00 | 0.00 | 0.00 | 82 | 1011.8 |
| 20260510081240 | 15 | 215 | 4.8 | 12.9 | 0.00 | 0.00 | 0.00 | 82 | 1011.8 |
| 20260510081134 | 15 | 172 | 4.8 | 12.9 | 0.00 | 0.00 | 0.00 | 82 | 1011.8 |
| 20260510081105 | 15 | 233 | 4.8 | 12.9 | 0.00 | 0.00 | 0.00 | 82 | 1011.8 |
| 20260510081035 | 15 | 198 | 4.8 | 12.9 | 0.00 | 0.00 | 0.00 | 82 | 1011.9 |
| 20260510080934 | 15 | 177 | 4.8 | 12.9 | 0.00 | 0.00 | 0.00 | 82 | 1011.8 |
| 20260510080834 | 15 | 225 | 4.8 | 12.9 | 0.00 | 0.00 | 0.00 | 82 | 1011.8 |
| 20260510080738 | 15 | 185 | 4.8 | 12.9 | 0.00 | 0.00 | 0.00 | 82 | 1011.8 |
| 20260510080631 | 15 | 103 | 3.2 | 12.9 | 0.00 | 0.00 | 0.00 | 81 | 1011.8 |
| 20260510080617 | 15 | 160 | 3.2 | 12.9 | 0.00 | 0.00 | 0.00 | 82 | 1011.8 |
| 20260510080530 | 15 | 207 | 3.2 | 12.9 | 0.00 | 0.00 | 0.00 | 81 | 1011.8 |
| 20260510080430 | 15 | 139 | 3.2 | 8.0 | 0.00 | 0.00 | 0.00 | 81 | 1011.8 |
| 20260510080330 | 15 | 242 | 3.2 | 8.0 | 0.00 | 0.00 | 0.00 | 81 | 1011.8 |
| 20260510080228 | 15 | 195 | 3.2 | 8.0 | 0.00 | 0.00 | 0.00 | 81 | 1011.8 |
| 20260510080122 | 15 | 233 | 3.2 | 6.4 | 0.00 | 0.00 | 0.00 | 81 | 1011.8 |
| 20260510080108 | 15 | 235 | 3.2 | 6.4 | 0.00 | 0.00 | 0.00 | 81 | 1011.8 |
| 20260510080022 | 15 | 161 | 3.2 | 6.4 | 0.00 | 0.00 | 0.00 | 81 | 1011.8 |
| 20260510075925 | 15 | 223 | 3.2 | 6.4 | 0.00 | 0.00 | 0.00 | 81 | 1011.8 |
| 20260510075822 | 15 | 153 | 3.2 | 8.0 | 0.00 | 0.00 | 0.00 | 81 | 1011.8 |
| 20260510075722 | 15 | 136 | 3.2 | 8.0 | 0.00 | 0.00 | 0.00 | 81 | 1011.8 |
| 20260510075622 | 15 | 225 | 1.6 | 8.0 | 0.00 | 0.00 | 0.00 | 81 | 1011.8 |
| 20260510075604 | 15 | 224 | 1.6 | 8.0 | 0.00 | 0.00 | 0.00 | 81 | 1011.8 |
| 20260510075520 | 15 | 176 | 1.6 | 8.0 | 0.00 | 0.00 | 0.00 | 81 | 1011.7 |
| 20260510075420 | 15 | 217 | 1.6 | 8.0 | 0.00 | 0.00 | 0.00 | 81 | 1011.7 |
| 20260510075319 | 15 | 236 | 1.6 | 8.0 | 0.00 | 0.00 | 0.00 | 81 | 1011.7 |
| 20260510075215 | 15 | 148 | 1.6 | 8.0 | 0.00 | 0.00 | 0.00 | 81 | 1011.7 |
| 20260510075116 | 15 | 196 | 1.6 | 8.0 | 0.00 | 0.00 | 0.00 | 81 | 1011.7 |
| 20260510075106 | 15 | 204 | 1.6 | 8.0 | 0.00 | 0.00 | 0.00 | 81 | 1011.7 |
| 20260510075057 | 15 | 188 | 1.6 | 6.4 | 0.00 | 0.00 | 0.00 | 81 | 1011.8 |
| 20260510075010 | 15 | 195 | 1.6 | 8.0 | 0.00 | 0.00 | 0.00 | 81 | 1011.7 |
| 20260510074942 | 15 | 124 | 1.6 | 8.0 | 0.00 | 0.00 | 0.00 | 81 | 1011.7 |
| 20260510074810 | 15 | 217 | 1.6 | 6.4 | 0.00 | 0.00 | 0.00 | 81 | 1011.7 |
| 20260510074722 | 15 | 224 | 1.6 | 6.4 | 0.00 | 0.00 | 0.00 | 81 | 1011.7 |
| 20260510074605 | 15 | 188 | 1.6 | 6.4 | 0.00 | 0.00 | 0.00 | 81 | 1011.8 |
| 20260510074504 | 15 | 188 | 1.6 | 6.4 | 0.00 | 0.00 | 0.00 | 81 | 1011.7 |
| 20260510074404 | 15 | 189 | 1.6 | 6.4 | 0.00 | 0.00 | 0.00 | 81 | 1011.7 |
| 20260510074304 | 15 | 212 | 1.6 | 6.4 | 0.00 | 0.00 | 0.00 | 81 | 1011.8 |
| 20260510074204 | 15 | 212 | 1.6 | 6.4 | 0.00 | 0.00 | 0.00 | 81 | 1011.7 |
| 20260510074111 | 15 | 143 | 1.6 | 6.4 | 0.00 | 0.00 | 0.00 | 81 | 1011.8 |
| 20260510074102 | 15 | 193 | 1.6 | 6.4 | 0.00 | 0.00 | 0.00 | 81 | 1011.8 |
| 20260510074003 | 15 | 203 | 1.6 | 6.4 | 0.00 | 0.00 | 0.00 | 81 | 1011.8 |
| 20260510073902 | 15 | 158 | 1.6 | 6.4 | 0.00 | 0.00 | 0.00 | 81 | 1011.7 |
| 20260510073822 | 15 | 146 | 1.6 | 6.4 | 0.00 | 0.00 | 0.00 | 81 | 1011.8 |
| 20260510073800 | 15 | 236 | 1.6 | 6.4 | 0.00 | 0.00 | 0.00 | 81 | 1011.8 |
| 20260510073714 | 15 | 236 | 1.6 | 6.4 | 0.00 | 0.00 | 0.00 | 81 | 1011.8 |
| 20260510073555 | 15 | 146 | 1.6 | 6.4 | 0.00 | 0.00 | 0.00 | 81 | 1011.8 |
| 20260510073454 | 15 | 222 | 1.6 | 6.4 | 0.00 | 0.00 | 0.00 | 81 | 1011.8 |
| 20260510073354 | 15 | 187 | 1.6 | 6.4 | 0.00 | 0.00 | 0.00 | 81 | 1011.8 |
| 20260510073255 | 15 | 137 | 1.6 | 6.4 | 0.00 | 0.00 | 0.00 | 81 | 1011.8 |
| 20260510073152 | 15 | 136 | 1.6 | 6.4 | 0.00 | 0.00 | 0.00 | 81 | 1011.8 |
| 20260510073104 | 15 | 126 | 1.6 | 6.4 | 0.00 | 0.00 | 0.00 | 81 | 1011.8 |
| 20260510073046 | 15 | 150 | 1.6 | 6.4 | 0.00 | 0.00 | 0.00 | 81 | 1011.8 |
| 20260510072946 | 15 | 150 | 1.6 | 6.4 | 0.00 | 0.00 | 0.00 | 81 | 1011.8 |
| 20260510072846 | 15 | 139 | 1.6 | 6.4 | 0.00 | 0.00 | 0.00 | 81 | 1011.8 |
| 20260510072746 | 15 | 161 | 1.6 | 6.4 | 0.00 | 0.00 | 0.00 | 81 | 1011.8 |
| 20260510072647 | 15 | 134 | 1.6 | 6.4 | 0.00 | 0.00 | 0.00 | 81 | 1011.8 |
| 20260510072604 | 15 | 134 | 1.6 | 6.4 | 0.00 | 0.00 | 0.00 | 80 | 1011.8 |
| 20260510072541 | 15 | 138 | 1.6 | 6.4 | 0.00 | 0.00 | 0.00 | 80 | 1011.8 |
| 20260510072440 | 15 | 131 | 3.2 | 6.4 | 0.00 | 0.00 | 0.00 | 80 | 1011.8 |
| 20260510072341 | 15 | 131 | 3.2 | 6.4 | 0.00 | 0.00 | 0.00 | 80 | 1011.8 |
| 20260510072240 | 15 | 131 | 3.2 | 6.4 | 0.00 | 0.00 | 0.00 | 80 | 1011.7 |
| 20260510072141 | 15 | 121 | 3.2 | 6.4 | 0.00 | 0.00 | 0.00 | 80 | 1011.8 |
| 20260510072104 | 15 | 131 | 3.2 | 6.4 | 0.00 | 0.00 | 0.00 | 80 | 1011.8 |
| 20260510072036 | 15 | 128 | 3.2 | 6.4 | 0.00 | 0.00 | 0.00 | 80 | 1011.7 |
| 20260510071937 | 15 | 129 | 3.2 | 6.4 | 0.00 | 0.00 | 0.00 | 80 | 1011.7 |
| 20260510071836 | 15 | 131 | 3.2 | 6.4 | 0.00 | 0.00 | 0.00 | 80 | 1011.7 |
| 20260510071738 | 15 | 131 | 3.2 | 6.4 | 0.00 | 0.00 | 0.00 | 80 | 1011.7 |
| 20260510071635 | 15 | 120 | 3.2 | 6.4 | 0.00 | 0.00 | 0.00 | 80 | 1011.7 |
| 20260510071605 | 15 | 131 | 3.2 | 6.4 | 0.00 | 0.00 | 0.00 | 80 | 1011.7 |
| 20260510071530 | 16 | 113 | 3.2 | 6.4 | 0.00 | 0.00 | 0.00 | 80 | 1011.7 |
| 20260510071428 | 16 | 129 | 3.2 | 6.4 | 0.00 | 0.00 | 0.00 | 80 | 1011.8 |
| 20260510071328 | 16 | 131 | 3.2 | 8.0 | 0.00 | 0.00 | 0.00 | 80 | 1011.7 |
| 20260510071228 | 16 | 137 | 3.2 | 8.0 | 0.00 | 0.00 | 0.00 | 80 | 1011.7 |
| 20260510071128 | 16 | 146 | 3.2 | 8.0 | 0.00 | 0.00 | 0.00 | 80 | 1011.7 |
| 20260510071104 | 16 | 143 | 3.2 | 8.0 | 0.00 | 0.00 | 0.00 | 80 | 1011.7 |
| 20260510071022 | 16 | 137 | 3.2 | 8.0 | 0.00 | 0.00 | 0.00 | 80 | 1011.7 |
| 20260510070926 | 16 | 134 | 3.2 | 8.0 | 0.00 | 0.00 | 0.00 | 79 | 1011.7 |
| 20260510070822 | 16 | 126 | 3.2 | 8.0 | 0.00 | 0.00 | 0.00 | 79 | 1011.7 |
| 20260510070722 | 16 | 113 | 3.2 | 8.0 | 0.00 | 0.00 | 0.00 | 79 | 1011.7 |
| 20260510070621 | 16 | 132 | 3.2 | 8.0 | 0.00 | 0.00 | 0.00 | 79 | 1011.7 |
| 20260510070605 | 16 | 137 | 3.2 | 8.0 | 0.00 | 0.00 | 0.00 | 79 | 1011.7 |
| 20260510070522 | 16 | 141 | 3.2 | 8.0 | 0.00 | 0.00 | 0.00 | 79 | 1011.7 |
| 20260510070422 | 16 | 143 | 3.2 | 8.0 | 0.00 | 0.00 | 0.00 | 79 | 1011.7 |
| 20260510070323 | 16 | 149 | 3.2 | 6.4 | 0.00 | 0.00 | 0.00 | 79 | 1011.7 |
| 20260510070222 | 16 | 148 | 3.2 | 6.4 | 0.00 | 0.00 | 0.00 | 79 | 1011.7 |
| 20260510070122 | 16 | 132 | 3.2 | 6.4 | 0.00 | 0.00 | 0.00 | 79 | 1011.7 |
| 20260510070108 | 16 | 143 | 3.2 | 6.4 | 0.00 | 0.00 | 0.00 | 79 | 1011.7 |
| 20260510070021 | 16 | 155 | 3.2 | 6.4 | 0.00 | 0.00 | 0.00 | 79 | 1011.7 |
| 20260510065928 | 16 | 138 | 3.2 | 6.4 | 0.00 | 0.00 | 0.00 | 79 | 1011.7 |
| 20260510065820 | 16 | 139 | 3.2 | 6.4 | 0.00 | 0.00 | 0.00 | 78 | 1011.7 |
| 20260510065720 | 16 | 143 | 1.6 | 6.4 | 0.00 | 0.00 | 0.00 | 78 | 1011.7 |
| 20260510065620 | 16 | 105 | 3.2 | 6.4 | 0.00 | 0.00 | 0.00 | 78 | 1011.6 |
| 20260510065601 | 16 | 146 | 3.2 | 6.4 | 0.00 | 0.00 | 0.00 | 78 | 1011.6 |
| 20260510065520 | 16 | 146 | 3.2 | 9.7 | 0.00 | 0.00 | 0.00 | 78 | 1011.7 |
| 20260510065421 | 16 | 143 | 3.2 | 9.7 | 0.00 | 0.00 | 0.00 | 78 | 1011.7 |
| 20260510065320 | 16 | 134 | 3.2 | 9.7 | 0.00 | 0.00 | 0.00 | 78 | 1011.7 |
| 20260510065220 | 16 | 132 | 3.2 | 9.7 | 0.00 | 0.00 | 0.00 | 78 | 1011.7 |
| 20260510065121 | 16 | 183 | 3.2 | 9.7 | 0.00 | 0.00 | 0.00 | 78 | 1011.7 |
| 20260510065100 | 16 | 136 | 3.2 | 9.7 | 0.00 | 0.00 | 0.00 | 78 | 1011.7 |
| 20260510065021 | 16 | 123 | 3.2 | 9.7 | 0.00 | 0.00 | 0.00 | 78 | 1011.7 |
| 20260510064923 | 16 | 160 | 3.2 | 9.7 | 0.00 | 0.00 | 0.00 | 78 | 1011.8 |
| 20260510064816 | 16 | 121 | 3.2 | 9.7 | 0.00 | 0.00 | 0.00 | 78 | 1011.7 |
| 20260510064715 | 16 | 127 | 3.2 | 9.7 | 0.00 | 0.00 | 0.00 | 77 | 1011.7 |
| 20260510064615 | 16 | 138 | 3.2 | 9.7 | 0.00 | 0.00 | 0.00 | 77 | 1011.7 |
| 20260510064554 | 16 | 132 | 3.2 | 9.7 | 0.00 | 0.00 | 0.00 | 77 | 1011.7 |
| 20260510064515 | 16 | 143 | 1.6 | 8.0 | 0.00 | 0.00 | 0.00 | 77 | 1011.7 |
| 20260510064414 | 16 | 136 | 1.6 | 6.4 | 0.00 | 0.00 | 0.00 | 77 | 1011.7 |
| 20260510064313 | 16 | 129 | 1.6 | 6.4 | 0.00 | 0.00 | 0.00 | 77 | 1011.7 |
| 20260510064212 | 16 | 130 | 1.6 | 6.4 | 0.00 | 0.00 | 0.00 | 77 | 1011.7 |
| 20260510064110 | 16 | 139 | 1.6 | 6.4 | 0.00 | 0.00 | 0.00 | 77 | 1011.6 |
| 20260510064048 | 16 | 128 | 1.6 | 6.4 | 0.00 | 0.00 | 0.00 | 77 | 1011.6 |
| 20260510064011 | 16 | 135 | 1.6 | 6.4 | 0.00 | 0.00 | 0.00 | 77 | 1011.6 |
| 20260510063908 | 16 | 133 | 1.6 | 6.4 | 0.00 | 0.00 | 0.00 | 76 | 1011.6 |
| 20260510063803 | 16 | 142 | 1.6 | 4.8 | 0.00 | 0.00 | 0.00 | 76 | 1011.6 |
| 20260510063702 | 16 | 135 | 1.6 | 4.8 | 0.00 | 0.00 | 0.00 | 76 | 1011.6 |
| 20260510063602 | 16 | 135 | 1.6 | 4.8 | 0.00 | 0.00 | 0.00 | 76 | 1011.6 |
| 20260510063543 | 16 | 139 | 1.6 | 4.8 | 0.00 | 0.00 | 0.00 | 76 | 1011.6 |
| 20260510063502 | 16 | 138 | 1.6 | 4.8 | 0.00 | 0.00 | 0.00 | 76 | 1011.6 |
| 20260510063402 | 17 | 138 | 1.6 | 4.8 | 0.00 | 0.00 | 0.00 | 76 | 1011.5 |
| 20260510063300 | 17 | 168 | 0.0 | 4.8 | 0.00 | 0.00 | 0.00 | 76 | 1011.5 |
| 20260510063200 | 17 | 97 | 0.0 | 3.2 | 0.00 | 0.00 | 0.00 | 75 | 1011.5 |
| 20260510063035 | 17 | 98 | 1.6 | 4.8 | 0.00 | 0.00 | 0.00 | 75 | 1011.5 |
| 20260510062958 | 17 | 98 | 1.6 | 4.8 | 0.00 | 0.00 | 0.00 | 75 | 1011.5 |
| 20260510062857 | 17 | 97 | 1.6 | 4.8 | 0.00 | 0.00 | 0.00 | 75 | 1011.5 |
| 20260510062753 | 17 | 195 | 1.6 | 4.8 | 0.00 | 0.00 | 0.00 | 75 | 1011.5 |
| 20260510062651 | 17 | 195 | 1.6 | 4.8 | 0.00 | 0.00 | 0.00 | 75 | 1011.5 |
| 20260510062530 | 17 | 208 | 1.6 | 4.8 | 0.00 | 0.00 | 0.00 | 75 | 1011.5 |
| 20260510062451 | 17 | 208 | 1.6 | 4.8 | 0.00 | 0.00 | 0.00 | 75 | 1011.5 |
| 20260510062350 | 17 | 208 | 1.6 | 4.8 | 0.00 | 0.00 | 0.00 | 75 | 1011.5 |
| 20260510062255 | 17 | 131 | 1.6 | 3.2 | 0.00 | 0.00 | 0.00 | 75 | 1011.5 |
| 20260510062247 | 17 | 208 | 1.6 | 4.8 | 0.00 | 0.00 | 0.00 | 75 | 1011.5 |
| 20260510062155 | 17 | 208 | 1.6 | 4.8 | 0.00 | 0.00 | 0.00 | 75 | 1011.5 |
| 20260510062147 | 17 | 118 | 1.6 | 4.8 | 0.00 | 0.00 | 0.00 | 75 | 1011.5 |
| 20260510061947 | 17 | 131 | 1.6 | 4.8 | 0.00 | 0.00 | 0.00 | 75 | 1011.5 |
| 20260510061844 | 17 | 150 | 1.6 | 4.8 | 0.00 | 0.00 | 0.00 | 74 | 1011.5 |
| 20260510061745 | 17 | 150 | 1.6 | 4.8 | 0.00 | 0.00 | 0.00 | 74 | 1011.5 |
| 20260510061741 | 17 | 150 | 1.6 | 4.8 | 0.00 | 0.00 | 0.00 | 74 | 1011.5 |
| 20260510061638 | 17 | 150 | 1.6 | 4.8 | 0.00 | 0.00 | 0.00 | 74 | 1011.5 |
| 20260510061627 | 17 | 150 | 1.6 | 4.8 | 0.00 | 0.00 | 0.00 | 74 | 1011.5 |
| 20260510061438 | 17 | 153 | 0.0 | 4.8 | 0.00 | 0.00 | 0.00 | 74 | 1011.5 |
| 20260510061338 | 17 | 127 | 0.0 | 4.8 | 0.00 | 0.00 | 0.00 | 74 | 1011.5 |
| 20260510061233 | 17 | 156 | 0.0 | 4.8 | 0.00 | 0.00 | 0.00 | 74 | 1011.5 |
| 20260510061133 | 17 | 188 | 0.0 | 4.8 | 0.00 | 0.00 | 0.00 | 74 | 1011.5 |
| 20260510061032 | 17 | 200 | 0.0 | 4.8 | 0.00 | 0.00 | 0.00 | 74 | 1011.4 |
| 20260510061012 | 17 | 211 | 0.0 | 3.2 | 0.00 | 0.00 | 0.00 | 74 | 1011.4 |
| 20260510060933 | 17 | 212 | 1.6 | 3.2 | 0.00 | 0.00 | 0.00 | 74 | 1011.4 |
| 20260510060832 | 17 | 212 | 1.6 | 3.2 | 0.00 | 0.00 | 0.00 | 73 | 1011.5 |
| 20260510060732 | 17 | 211 | 1.6 | 4.8 | 0.00 | 0.00 | 0.00 | 73 | 1011.5 |
| 20260510060630 | 17 | 211 | 1.6 | 4.8 | 0.00 | 0.00 | 0.00 | 73 | 1011.5 |
| 20260510060531 | 17 | 224 | 1.6 | 4.8 | 0.00 | 0.00 | 0.00 | 73 | 1011.5 |
| 20260510060506 | 17 | 248 | 1.6 | 6.4 | 0.00 | 0.00 | 0.00 | 73 | 1011.5 |
| 20260510060428 | 17 | 136 | 1.6 | 6.4 | 0.00 | 0.00 | 0.00 | 73 | 1011.5 |
| 20260510060327 | 17 | 136 | 1.6 | 6.4 | 0.00 | 0.00 | 0.00 | 73 | 1011.5 |
| 20260510060227 | 17 | 136 | 3.2 | 6.4 | 0.00 | 0.00 | 0.00 | 73 | 1011.5 |
| 20260510060124 | 17 | 203 | 3.2 | 6.4 | 0.00 | 0.00 | 0.00 | 73 | 1011.5 |
| 20260510060022 | 17 | 143 | 3.2 | 6.4 | 0.00 | 0.00 | 0.00 | 73 | 1011.6 |
| 20260510055959 | 17 | 166 | 3.2 | 6.4 | 0.00 | 0.00 | 0.00 | 73 | 1011.6 |
| 20260510055922 | 17 | 200 | 3.2 | 6.4 | 0.00 | 0.00 | 0.00 | 72 | 1011.5 |
| 20260510055819 | 17 | 224 | 3.2 | 6.4 | 0.00 | 0.00 | 0.00 | 72 | 1011.5 |
| 20260510055717 | 17 | 203 | 3.2 | 6.4 | 0.00 | 0.00 | 0.00 | 72 | 1011.5 |
| 20260510055616 | 17 | 203 | 3.2 | 6.4 | 0.00 | 0.00 | 0.00 | 72 | 1011.5 |
| 20260510055516 | 17 | 255 | 3.2 | 6.4 | 0.00 | 0.00 | 0.00 | 72 | 1011.5 |
| 20260510055453 | 17 | 243 | 3.2 | 6.4 | 0.00 | 0.00 | 0.00 | 72 | 1011.5 |
| 20260510055416 | 17 | 183 | 3.2 | 4.8 | 0.00 | 0.00 | 0.00 | 72 | 1011.5 |
| 20260510055314 | 17 | 211 | 3.2 | 8.0 | 0.00 | 0.00 | 0.00 | 72 | 1011.5 |
| 20260510055208 | 17 | 150 | 3.2 | 8.0 | 0.00 | 0.00 | 0.00 | 72 | 1011.5 |
| 20260510055109 | 17 | 228 | 3.2 | 8.0 | 0.00 | 0.00 | 0.00 | 72 | 1011.5 |
| 20260510055009 | 17 | 228 | 3.2 | 9.7 | 0.00 | 0.00 | 0.00 | 72 | 1011.5 |
| 20260510054951 | 17 | 228 | 3.2 | 9.7 | 0.00 | 0.00 | 0.00 | 72 | 1011.5 |
| 20260510054910 | 17 | 228 | 3.2 | 9.7 | 0.00 | 0.00 | 0.00 | 72 | 1011.5 |
| 20260510054808 | 17 | 222 | 3.2 | 9.7 | 0.00 | 0.00 | 0.00 | 72 | 1011.5 |
| 20260510054703 | 17 | 165 | 4.8 | 11.3 | 0.00 | 0.00 | 0.00 | 71 | 1011.5 |
| 20260510054602 | 17 | 239 | 4.8 | 11.3 | 0.00 | 0.00 | 0.00 | 71 | 1011.5 |
| 20260510054502 | 17 | 239 | 4.8 | 11.3 | 0.00 | 0.00 | 0.00 | 71 | 1011.5 |
| 20260510054442 | 17 | 228 | 4.8 | 11.3 | 0.00 | 0.00 | 0.00 | 71 | 1011.5 |
| 20260510054402 | 17 | 230 | 4.8 | 11.3 | 0.00 | 0.00 | 0.00 | 71 | 1011.5 |
| 20260510054302 | 17 | 236 | 4.8 | 11.3 | 0.00 | 0.00 | 0.00 | 71 | 1011.5 |
| 20260510054158 | 17 | 188 | 4.8 | 11.3 | 0.00 | 0.00 | 0.00 | 71 | 1011.5 |
| 20260510054057 | 17 | 222 | 4.8 | 11.3 | 0.00 | 0.00 | 0.00 | 71 | 1011.5 |
| 20260510053957 | 18 | 233 | 4.8 | 11.3 | 0.00 | 0.00 | 0.00 | 71 | 1011.5 |
| 20260510053936 | 18 | 176 | 3.2 | 11.3 | 0.00 | 0.00 | 0.00 | 71 | 1011.5 |
| 20260510053856 | 18 | 235 | 3.2 | 11.3 | 0.00 | 0.00 | 0.00 | 71 | 1011.5 |
| 20260510053756 | 18 | 229 | 3.2 | 11.3 | 0.00 | 0.00 | 0.00 | 71 | 1011.5 |
| 20260510053651 | 18 | 207 | 3.2 | 9.7 | 0.00 | 0.00 | 0.00 | 71 | 1011.4 |
| 20260510053550 | 18 | 203 | 3.2 | 9.7 | 0.00 | 0.00 | 0.00 | 71 | 1011.5 |
| 20260510053451 | 18 | 219 | 3.2 | 9.7 | 0.00 | 0.00 | 0.00 | 71 | 1011.4 |
| 20260510053430 | 18 | 219 | 3.2 | 9.7 | 0.00 | 0.00 | 0.00 | 71 | 1011.5 |
| 20260510053350 | 18 | 146 | 3.2 | 9.7 | 0.00 | 0.00 | 0.00 | 71 | 1011.5 |
| 20260510053250 | 18 | 240 | 1.6 | 9.7 | 0.00 | 0.00 | 0.00 | 71 | 1011.4 |
| 20260510053151 | 18 | 229 | 3.2 | 9.7 | 0.00 | 0.00 | 0.00 | 71 | 1011.5 |
| 20260510053049 | 18 | 217 | 3.2 | 9.7 | 0.00 | 0.00 | 0.00 | 70 | 1011.5 |
| 20260510052949 | 18 | 133 | 3.2 | 11.3 | 0.00 | 0.00 | 0.00 | 70 | 1011.5 |
| 20260510052924 | 18 | 180 | 3.2 | 11.3 | 0.00 | 0.00 | 0.00 | 70 | 1011.5 |
| 20260510052846 | 18 | 179 | 3.2 | 11.3 | 0.00 | 0.00 | 0.00 | 70 | 1011.5 |
| 20260510052745 | 18 | 221 | 3.2 | 11.3 | 0.00 | 0.00 | 0.00 | 70 | 1011.5 |
| 20260510052641 | 18 | 207 | 3.2 | 11.3 | 0.00 | 0.00 | 0.00 | 70 | 1011.4 |
| 20260510052539 | 18 | 150 | 3.2 | 11.3 | 0.00 | 0.00 | 0.00 | 70 | 1011.5 |
| 20260510052439 | 18 | 223 | 3.2 | 11.3 | 0.00 | 0.00 | 0.00 | 70 | 1011.4 |
| 20260510052419 | 18 | 191 | 3.2 | 11.3 | 0.00 | 0.00 | 0.00 | 70 | 1011.4 |
| 20260510052339 | 18 | 191 | 3.2 | 11.3 | 0.00 | 0.00 | 0.00 | 70 | 1011.4 |
| 20260510052238 | 18 | 195 | 3.2 | 11.3 | 0.00 | 0.00 | 0.00 | 70 | 1011.4 |
| 20260510052132 | 18 | 221 | 3.2 | 11.3 | 0.00 | 0.00 | 0.00 | 70 | 1011.4 |
| 20260510052032 | 18 | 226 | 3.2 | 11.3 | 0.00 | 0.00 | 0.00 | 70 | 1011.4 |
| 20260510051933 | 18 | 150 | 3.2 | 9.7 | 0.00 | 0.00 | 0.00 | 70 | 1011.4 |
| 20260510051917 | 18 | 158 | 3.2 | 9.7 | 0.00 | 0.00 | 0.00 | 70 | 1011.4 |
| 20260510051833 | 18 | 145 | 3.2 | 9.7 | 0.00 | 0.00 | 0.00 | 69 | 1011.3 |
| 20260510051732 | 18 | 203 | 3.2 | 9.7 | 0.00 | 0.00 | 0.00 | 69 | 1011.4 |
| 20260510051629 | 18 | 150 | 3.2 | 9.7 | 0.00 | 0.00 | 0.00 | 70 | 1011.3 |
| 20260510051526 | 18 | 238 | 3.2 | 12.9 | 0.00 | 0.00 | 0.00 | 69 | 1011.3 |
| 20260510051427 | 18 | 225 | 3.2 | 12.9 | 0.00 | 0.00 | 0.00 | 69 | 1011.3 |
| 20260510051407 | 18 | 158 | 3.2 | 12.9 | 0.00 | 0.00 | 0.00 | 69 | 1011.3 |
| 20260510051326 | 18 | 139 | 4.8 | 12.9 | 0.00 | 0.00 | 0.00 | 69 | 1011.3 |
| 20260510051226 | 18 | 217 | 4.8 | 12.9 | 0.00 | 0.00 | 0.00 | 69 | 1011.2 |
| 20260510051121 | 18 | 201 | 4.8 | 12.9 | 0.00 | 0.00 | 0.00 | 69 | 1011.2 |
| 20260510051020 | 18 | 232 | 4.8 | 12.9 | 0.00 | 0.00 | 0.00 | 69 | 1011.2 |
| 20260510050920 | 18 | 226 | 4.8 | 12.9 | 0.00 | 0.00 | 0.00 | 69 | 1011.2 |
| 20260510050900 | 18 | 229 | 4.8 | 12.9 | 0.00 | 0.00 | 0.00 | 69 | 1011.2 |
| 20260510050820 | 18 | 262 | 4.8 | 12.9 | 0.00 | 0.00 | 0.00 | 69 | 1011.2 |
| 20260510050721 | 18 | 153 | 6.4 | 12.9 | 0.00 | 0.00 | 0.00 | 69 | 1011.1 |
| 20260510050616 | 18 | 266 | 6.4 | 12.9 | 0.00 | 0.00 | 0.00 | 69 | 1011.2 |
| 20260510050516 | 18 | 225 | 6.4 | 12.9 | 0.00 | 0.00 | 0.00 | 69 | 1011.2 |
| 20260510050416 | 18 | 158 | 6.4 | 12.9 | 0.00 | 0.00 | 0.00 | 68 | 1011.2 |
| 20260510050354 | 18 | 156 | 6.4 | 12.9 | 0.00 | 0.00 | 0.00 | 68 | 1011.2 |
| 20260510050316 | 18 | 217 | 6.4 | 12.9 | 0.00 | 0.00 | 0.00 | 68 | 1011.1 |
| 20260510050214 | 18 | 168 | 6.4 | 12.9 | 0.00 | 0.00 | 0.00 | 68 | 1011.1 |
| 20260510050108 | 18 | 242 | 6.4 | 12.9 | 0.00 | 0.00 | 0.00 | 68 | 1011.2 |
| 20260510050008 | 18 | 248 | 6.4 | 12.9 | 0.00 | 0.00 | 0.00 | 68 | 1011.1 |
| 20260510045912 | 18 | 211 | 4.8 | 12.9 | 0.00 | 0.00 | 0.00 | 68 | 1011.1 |
| 20260510045849 | 18 | 236 | 4.8 | 12.9 | 0.00 | 0.00 | 0.00 | 68 | 1011.2 |
| 20260510045809 | 18 | 200 | 4.8 | 12.9 | 0.00 | 0.00 | 0.00 | 68 | 1011.2 |
| 20260510045708 | 18 | 229 | 4.8 | 12.9 | 0.00 | 0.00 | 0.00 | 68 | 1011.1 |
| 20260510045605 | 18 | 243 | 4.8 | 11.3 | 0.00 | 0.00 | 0.00 | 68 | 1011.1 |
| 20260510045504 | 19 | 217 | 4.8 | 11.3 | 0.00 | 0.00 | 0.00 | 68 | 1011.1 |
| 20260510045404 | 19 | 146 | 4.8 | 11.3 | 0.00 | 0.00 | 0.00 | 68 | 1011.1 |
| 20260510045342 | 19 | 195 | 4.8 | 16.1 | 0.00 | 0.00 | 0.00 | 68 | 1011.1 |
| 20260510045306 | 19 | 235 | 6.4 | 17.7 | 0.00 | 0.00 | 0.00 | 68 | 1011.1 |
| 20260510045202 | 19 | 214 | 4.8 | 17.7 | 0.00 | 0.00 | 0.00 | 67 | 1011.1 |
| 20260510045057 | 19 | 205 | 4.8 | 17.7 | 0.00 | 0.00 | 0.00 | 67 | 1011.1 |
| 20260510044956 | 19 | 208 | 4.8 | 17.7 | 0.00 | 0.00 | 0.00 | 67 | 1011.1 |
| 20260510044856 | 19 | 226 | 6.4 | 17.7 | 0.00 | 0.00 | 0.00 | 67 | 1011.1 |
| 20260510044835 | 19 | 243 | 6.4 | 17.7 | 0.00 | 0.00 | 0.00 | 67 | 1011.0 |
| 20260510044756 | 19 | 205 | 6.4 | 17.7 | 0.00 | 0.00 | 0.00 | 67 | 1011.0 |
| 20260510044657 | 19 | 236 | 6.4 | 17.7 | 0.00 | 0.00 | 0.00 | 67 | 1011.0 |
| 20260510044552 | 19 | 241 | 4.8 | 17.7 | 0.00 | 0.00 | 0.00 | 67 | 1011.0 |
| 20260510044451 | 19 | 215 | 6.4 | 17.7 | 0.00 | 0.00 | 0.00 | 67 | 1011.0 |
| 20260510044350 | 19 | 239 | 4.8 | 17.7 | 0.00 | 0.00 | 0.00 | 67 | 1011.0 |
| 20260510044330 | 19 | 259 | 4.8 | 9.7 | 0.00 | 0.00 | 0.00 | 67 | 1011.0 |
| 20260510044250 | 19 | 214 | 4.8 | 9.7 | 0.00 | 0.00 | 0.00 | 67 | 1011.0 |
| 20260510044150 | 19 | 243 | 4.8 | 9.7 | 0.00 | 0.00 | 0.00 | 67 | 1010.9 |
| 20260510044054 | 19 | 229 | 3.2 | 9.7 | 0.00 | 0.00 | 0.00 | 67 | 1010.9 |
| 20260510044049 | 19 | 239 | 4.8 | 9.7 | 0.00 | 0.00 | 0.00 | 67 | 1010.9 |
| 20260510043948 | 19 | 233 | 4.8 | 9.7 | 0.00 | 0.00 | 0.00 | 67 | 1010.9 |
| 20260510043937 | 19 | 240 | 3.2 | 9.7 | 0.00 | 0.00 | 0.00 | 67 | 1010.9 |
| 20260510043746 | 19 | 221 | 3.2 | 9.7 | 0.00 | 0.00 | 0.00 | 67 | 1010.9 |
| 20260510043644 | 20 | 205 | 3.2 | 9.7 | 0.00 | 0.00 | 0.00 | 67 | 1010.9 |
| 20260510043539 | 20 | 190 | 3.2 | 9.7 | 0.00 | 0.00 | 0.00 | 67 | 1010.9 |
| 20260510043438 | 20 | 243 | 3.2 | 9.7 | 0.00 | 0.00 | 0.00 | 67 | 1010.8 |
| 20260510043338 | 20 | 207 | 4.8 | 9.7 | 0.00 | 0.00 | 0.00 | 67 | 1010.8 |
| 20260510043319 | 20 | 233 | 4.8 | 9.7 | 0.00 | 0.00 | 0.00 | 67 | 1010.8 |
| 20260510043239 | 20 | 253 | 4.8 | 11.3 | 0.00 | 0.00 | 0.00 | 67 | 1010.8 |
| 20260510043138 | 20 | 232 | 4.8 | 11.3 | 0.00 | 0.00 | 0.00 | 67 | 1010.9 |
| 20260510043035 | 20 | 221 | 4.8 | 11.3 | 0.00 | 0.00 | 0.00 | 66 | 1010.8 |
| 20260510042934 | 20 | 255 | 4.8 | 11.3 | 0.00 | 0.00 | 0.00 | 66 | 1010.8 |
| 20260510042835 | 20 | 233 | 4.8 | 11.3 | 0.00 | 0.00 | 0.00 | 66 | 1010.8 |
| 20260510042811 | 20 | 243 | 4.8 | 11.3 | 0.00 | 0.00 | 0.00 | 66 | 1010.8 |
| 20260510042738 | 20 | 236 | 4.8 | 11.3 | 0.00 | 0.00 | 0.00 | 66 | 1010.8 |
| 20260510042633 | 20 | 233 | 4.8 | 11.3 | 0.00 | 0.00 | 0.00 | 66 | 1010.8 |
| 20260510042527 | 20 | 238 | 4.8 | 11.3 | 0.00 | 0.00 | 0.00 | 66 | 1010.8 |
| 20260510042427 | 20 | 221 | 4.8 | 11.3 | 0.00 | 0.00 | 0.00 | 66 | 1010.8 |
| 20260510042326 | 20 | 239 | 3.2 | 11.3 | 0.00 | 0.00 | 0.00 | 66 | 1010.7 |
| 20260510042307 | 20 | 253 | 3.2 | 11.3 | 0.00 | 0.00 | 0.00 | 66 | 1010.7 |
| 20260510042247 | 20 | 231 | 3.2 | 8.0 | 0.00 | 0.00 | 0.00 | 66 | 1010.7 |
| 20260510042226 | 20 | 211 | 3.2 | 11.3 | 0.00 | 0.00 | 0.00 | 66 | 1010.7 |
| 20260510042134 | 20 | 230 | 3.2 | 11.3 | 0.00 | 0.00 | 0.00 | 66 | 1010.7 |
| 20260510042021 | 20 | 210 | 3.2 | 11.3 | 0.00 | 0.00 | 0.00 | 66 | 1010.7 |
| 20260510041924 | 20 | 240 | 3.2 | 9.7 | 0.00 | 0.00 | 0.00 | 66 | 1010.7 |
| 20260510041910 | 20 | 216 | 3.2 | 8.0 | 0.00 | 0.00 | 0.00 | 66 | 1010.7 |
| 20260510041721 | 20 | 246 | 3.2 | 8.0 | 0.00 | 0.00 | 0.00 | 66 | 1010.7 |
| 20260510041620 | 20 | 245 | 3.2 | 16.1 | 0.00 | 0.00 | 0.00 | 66 | 1010.7 |
| 20260510041518 | 20 | 205 | 3.2 | 16.1 | 0.00 | 0.00 | 0.00 | 65 | 1010.6 |
| 20260510041418 | 20 | 240 | 3.2 | 16.1 | 0.00 | 0.00 | 0.00 | 65 | 1010.7 |
| 20260510041318 | 20 | 236 | 3.2 | 16.1 | 0.00 | 0.00 | 0.00 | 65 | 1010.7 |
| 20260510041255 | 20 | 236 | 3.2 | 16.1 | 0.00 | 0.00 | 0.00 | 65 | 1010.7 |
| 20260510041217 | 20 | 243 | 3.2 | 16.1 | 0.00 | 0.00 | 0.00 | 65 | 1010.7 |
| 20260510041114 | 20 | 214 | 3.2 | 16.1 | 0.00 | 0.00 | 0.00 | 65 | 1010.7 |
| 20260510041014 | 20 | 257 | 3.2 | 16.1 | 0.00 | 0.00 | 0.00 | 65 | 1010.7 |
| 20260510041008 | 20 | 236 | 3.2 | 16.1 | 0.00 | 0.00 | 0.00 | 65 | 1010.7 |
| 20260510040911 | 20 | 226 | 3.2 | 16.1 | 0.00 | 0.00 | 0.00 | 65 | 1010.6 |
| 20260510040859 | 20 | 263 | 3.2 | 16.1 | 0.00 | 0.00 | 0.00 | 65 | 1010.7 |
| 20260510040709 | 20 | 250 | 3.2 | 12.9 | 0.00 | 0.00 | 0.00 | 65 | 1010.7 |
| 20260510040608 | 20 | 232 | 3.2 | 12.9 | 0.00 | 0.00 | 0.00 | 65 | 1010.6 |
| 20260510040505 | 20 | 250 | 3.2 | 12.9 | 0.00 | 0.00 | 0.00 | 65 | 1010.6 |
| 20260510040404 | 20 | 226 | 3.2 | 12.9 | 0.00 | 0.00 | 0.00 | 65 | 1010.6 |
| 20260510040304 | 20 | 242 | 3.2 | 12.9 | 0.00 | 0.00 | 0.00 | 65 | 1010.6 |
| 20260510040241 | 20 | 284 | 3.2 | 12.9 | 0.00 | 0.00 | 0.00 | 65 | 1010.6 |
| 20260510040204 | 20 | 235 | 3.2 | 12.9 | 0.00 | 0.00 | 0.00 | 65 | 1010.6 |
| 20260510035959 | 21 | 243 | 3.2 | 12.9 | 0.00 | 0.00 | 0.00 | 65 | 1010.6 |
| 20260510035856 | 21 | 214 | 3.2 | 12.9 | 0.00 | 0.00 | 0.00 | 64 | 1010.5 |
| 20260510035756 | 21 | 226 | 3.2 | 16.1 | 0.00 | 0.00 | 0.00 | 64 | 1010.6 |
| 20260510035741 | 21 | 250 | 3.2 | 16.1 | 0.00 | 0.00 | 0.00 | 64 | 1010.6 |
| 20260510035656 | 21 | 233 | 3.2 | 16.1 | 0.00 | 0.00 | 0.00 | 64 | 1010.6 |
| 20260510035556 | 21 | 238 | 3.2 | 16.1 | 0.00 | 0.00 | 0.00 | 64 | 1010.5 |
| 20260510035500 | 21 | 274 | 3.2 | 16.1 | 0.00 | 0.00 | 0.00 | 64 | 1010.6 |
| 20260510035453 | 21 | 240 | 3.2 | 16.1 | 0.00 | 0.00 | 0.00 | 64 | 1010.5 |
| 20260510035352 | 21 | 243 | 3.2 | 16.1 | 0.00 | 0.00 | 0.00 | 64 | 1010.5 |
| 20260510035344 | 21 | 256 | 3.2 | 16.1 | 0.00 | 0.00 | 0.00 | 64 | 1010.6 |
| 20260510035152 | 21 | 224 | 3.2 | 16.1 | 0.00 | 0.00 | 0.00 | 64 | 1010.6 |
| 20260510035051 | 21 | 222 | 3.2 | 16.1 | 0.00 | 0.00 | 0.00 | 64 | 1010.6 |
| 20260510034944 | 21 | 257 | 4.8 | 16.1 | 0.00 | 0.00 | 0.00 | 64 | 1010.6 |
| 20260510034845 | 21 | 268 | 4.8 | 16.1 | 0.00 | 0.00 | 0.00 | 64 | 1010.6 |
| 20260510034744 | 21 | 289 | 4.8 | 14.5 | 0.00 | 0.00 | 0.00 | 64 | 1010.5 |
| 20260510034724 | 21 | 226 | 4.8 | 14.5 | 0.00 | 0.00 | 0.00 | 64 | 1010.5 |
| 20260510034644 | 21 | 193 | 4.8 | 14.5 | 0.00 | 0.00 | 0.00 | 64 | 1010.5 |
| 20260510034545 | 21 | 256 | 4.8 | 17.7 | 0.00 | 0.00 | 0.00 | 64 | 1010.5 |
| 20260510034441 | 21 | 232 | 6.4 | 19.3 | 0.00 | 0.00 | 0.00 | 64 | 1010.5 |
| 20260510034339 | 21 | 259 | 4.8 | 19.3 | 0.00 | 0.00 | 0.00 | 64 | 1010.4 |
| 20260510034238 | 21 | 231 | 4.8 | 19.3 | 0.00 | 0.00 | 0.00 | 64 | 1010.4 |
| 20260510034217 | 21 | 253 | 4.8 | 19.3 | 0.00 | 0.00 | 0.00 | 64 | 1010.4 |
| 20260510034138 | 21 | 233 | 4.8 | 19.3 | 0.00 | 0.00 | 0.00 | 64 | 1010.4 |
| 20260510034040 | 21 | 238 | 4.8 | 19.3 | 0.00 | 0.00 | 0.00 | 64 | 1010.4 |
| 20260510033932 | 21 | 231 | 4.8 | 19.3 | 0.00 | 0.00 | 0.00 | 64 | 1010.4 |
| 20260510033833 | 21 | 255 | 4.8 | 19.3 | 0.00 | 0.00 | 0.00 | 63 | 1010.4 |
| 20260510033733 | 21 | 259 | 4.8 | 19.3 | 0.00 | 0.00 | 0.00 | 63 | 1010.5 |
| 20260510033712 | 21 | 231 | 4.8 | 19.3 | 0.00 | 0.00 | 0.00 | 63 | 1010.5 |
| 20260510033633 | 21 | 228 | 4.8 | 19.3 | 0.00 | 0.00 | 0.00 | 63 | 1010.4 |
| 20260510033533 | 21 | 221 | 4.8 | 19.3 | 0.00 | 0.00 | 0.00 | 64 | 1010.4 |
| 20260510033426 | 21 | 256 | 4.8 | 19.3 | 0.00 | 0.00 | 0.00 | 64 | 1010.4 |
| 20260510033326 | 21 | 240 | 6.4 | 19.3 | 0.00 | 0.00 | 0.00 | 63 | 1010.4 |
| 20260510033227 | 21 | 256 | 6.4 | 19.3 | 0.00 | 0.00 | 0.00 | 63 | 1010.4 |
| 20260510033209 | 21 | 228 | 6.4 | 19.3 | 0.00 | 0.00 | 0.00 | 63 | 1010.4 |
| 20260510033126 | 21 | 266 | 6.4 | 19.3 | 0.00 | 0.00 | 0.00 | 63 | 1010.4 |
| 20260510033026 | 21 | 289 | 6.4 | 19.3 | 0.00 | 0.00 | 0.00 | 63 | 1010.3 |
| 20260510032920 | 21 | 257 | 6.4 | 19.3 | 0.00 | 0.00 | 0.00 | 63 | 1010.3 |
| 20260510032820 | 22 | 256 | 6.4 | 19.3 | 0.00 | 0.00 | 0.00 | 63 | 1010.4 |
| 20260510032720 | 22 | 225 | 4.8 | 19.3 | 0.00 | 0.00 | 0.00 | 63 | 1010.4 |
| 20260510032708 | 22 | 250 | 4.8 | 19.3 | 0.00 | 0.00 | 0.00 | 63 | 1010.4 |
| 20260510032620 | 22 | 235 | 4.8 | 19.3 | 0.00 | 0.00 | 0.00 | 63 | 1010.3 |
| 20260510032521 | 22 | 255 | 4.8 | 17.7 | 0.00 | 0.00 | 0.00 | 63 | 1010.3 |
| 20260510032414 | 22 | 225 | 3.2 | 12.9 | 0.00 | 0.00 | 0.00 | 63 | 1010.3 |
| 20260510032315 | 22 | 210 | 4.8 | 12.9 | 0.00 | 0.00 | 0.00 | 62 | 1010.3 |
| 20260510032209 | 22 | 233 | 3.2 | 12.9 | 0.00 | 0.00 | 0.00 | 62 | 1010.3 |
| 20260510032115 | 22 | 236 | 3.2 | 12.9 | 0.00 | 0.00 | 0.00 | 62 | 1010.3 |
| 20260510032014 | 22 | 240 | 3.2 | 14.5 | 0.00 | 0.00 | 0.00 | 62 | 1010.3 |
| 20260510031914 | 22 | 246 | 3.2 | 14.5 | 0.00 | 0.00 | 0.00 | 62 | 1010.2 |
| 20260510031812 | 22 | 233 | 4.8 | 16.1 | 0.00 | 0.00 | 0.00 | 62 | 1010.2 |
| 20260510031707 | 22 | 233 | 4.8 | 16.1 | 0.00 | 0.00 | 0.00 | 62 | 1010.2 |
| 20260510031610 | 22 | 264 | 6.4 | 16.1 | 0.00 | 0.00 | 0.00 | 61 | 1010.3 |
| 20260510031508 | 22 | 241 | 6.4 | 16.1 | 0.00 | 0.00 | 0.00 | 61 | 1010.2 |
| 20260510031403 | 22 | 240 | 6.4 | 16.1 | 0.00 | 0.00 | 0.00 | 61 | 1010.2 |
| 20260510031302 | 22 | 240 | 6.4 | 16.1 | 0.00 | 0.00 | 0.00 | 61 | 1010.2 |
| 20260510031208 | 22 | 248 | 6.4 | 16.1 | 0.00 | 0.00 | 0.00 | 61 | 1010.2 |
| 20260510031202 | 22 | 248 | 6.4 | 16.1 | 0.00 | 0.00 | 0.00 | 61 | 1010.2 |
| 20260510031103 | 22 | 225 | 6.4 | 16.1 | 0.00 | 0.00 | 0.00 | 61 | 1010.2 |
| 20260510031002 | 22 | 208 | 6.4 | 16.1 | 0.00 | 0.00 | 0.00 | 60 | 1010.2 |
| 20260510030934 | 23 | 204 | 8.0 | 16.1 | 0.00 | 0.00 | 0.00 | 61 | 1010.1 |
| 20260510030857 | 23 | 238 | 6.4 | 16.1 | 0.00 | 0.00 | 0.00 | 61 | 1010.1 |
| 20260510030820 | 23 | 264 | 6.4 | 16.1 | 0.00 | 0.00 | 0.00 | 61 | 1010.1 |
| 20260510030705 | 23 | 225 | 6.4 | 16.1 | 0.00 | 0.00 | 0.00 | 61 | 1010.1 |
| 20260510030656 | 23 | 242 | 6.4 | 16.1 | 0.00 | 0.00 | 0.00 | 61 | 1010.1 |
| 20260510030556 | 23 | 243 | 6.4 | 16.1 | 0.00 | 0.00 | 0.00 | 61 | 1010.1 |
| 20260510030548 | 23 | 262 | 6.4 | 16.1 | 0.00 | 0.00 | 0.00 | 61 | 1010.1 |
| 20260510030353 | 23 | 235 | 6.4 | 16.1 | 0.00 | 0.00 | 0.00 | 61 | 1010.1 |
| 20260510030328 | 23 | 243 | 6.4 | 16.1 | 0.00 | 0.00 | 0.00 | 61 | 1010.0 |
| 20260510030153 | 23 | 266 | 8.0 | 16.1 | 0.00 | 0.00 | 0.00 | 61 | 1010.1 |
| 20260510030052 | 23 | 244 | 8.0 | 16.1 | 0.00 | 0.00 | 0.00 | 60 | 1010.0 |
| 20260510025950 | 23 | 273 | 8.0 | 16.1 | 0.00 | 0.00 | 0.00 | 61 | 1010.0 |
| 20260510025848 | 23 | 226 | 8.0 | 16.1 | 0.00 | 0.00 | 0.00 | 60 | 1010.0 |
| 20260510025749 | 23 | 270 | 8.0 | 16.1 | 0.00 | 0.00 | 0.00 | 60 | 1010.1 |
| 20260510025705 | 23 | 230 | 8.0 | 16.1 | 0.00 | 0.00 | 0.00 | 60 | 1010.1 |
| 20260510025646 | 23 | 249 | 8.0 | 16.1 | 0.00 | 0.00 | 0.00 | 60 | 1010.1 |
| 20260510025546 | 23 | 250 | 8.0 | 16.1 | 0.00 | 0.00 | 0.00 | 60 | 1010.1 |
| 20260510025444 | 23 | 228 | 8.0 | 16.1 | 0.00 | 0.00 | 0.00 | 60 | 1010.1 |
| 20260510025338 | 23 | 219 | 8.0 | 17.7 | 0.00 | 0.00 | 0.00 | 60 | 1010.0 |
| 20260510025239 | 23 | 243 | 8.0 | 17.7 | 0.00 | 0.00 | 0.00 | 60 | 1010.0 |
| 20260510025204 | 23 | 241 | 8.0 | 19.3 | 0.00 | 0.00 | 0.00 | 60 | 1010.0 |
| 20260510025138 | 23 | 235 | 8.0 | 19.3 | 0.00 | 0.00 | 0.00 | 60 | 1010.0 |
| 20260510024938 | 23 | 233 | 8.0 | 19.3 | 0.00 | 0.00 | 0.00 | 60 | 1010.0 |
| 20260510024832 | 24 | 270 | 8.0 | 19.3 | 0.00 | 0.00 | 0.00 | 60 | 1010.0 |
| 20260510024733 | 24 | 264 | 8.0 | 19.3 | 0.00 | 0.00 | 0.00 | 60 | 1010.0 |
| 20260510024704 | 24 | 242 | 8.0 | 19.3 | 0.00 | 0.00 | 0.00 | 60 | 1010.0 |
| 20260510024632 | 24 | 238 | 6.4 | 19.3 | 0.00 | 0.00 | 0.00 | 60 | 1010.0 |
| 20260510024532 | 24 | 236 | 6.4 | 19.3 | 0.00 | 0.00 | 0.00 | 60 | 1010.0 |
| 20260510024432 | 24 | 243 | 6.4 | 19.3 | 0.00 | 0.00 | 0.00 | 60 | 1010.0 |
| 20260510024326 | 24 | 231 | 6.4 | 19.3 | 0.00 | 0.00 | 0.00 | 60 | 1010.0 |
| 20260510024226 | 24 | 221 | 6.4 | 19.3 | 0.00 | 0.00 | 0.00 | 60 | 1009.9 |
| 20260510024205 | 24 | 256 | 6.4 | 14.5 | 0.00 | 0.00 | 0.00 | 60 | 1009.9 |
| 20260510024126 | 24 | 215 | 6.4 | 12.9 | 0.00 | 0.00 | 0.00 | 60 | 1009.9 |
| 20260510024027 | 24 | 246 | 6.4 | 12.9 | 0.00 | 0.00 | 0.00 | 60 | 1010.0 |
| 20260510023926 | 24 | 200 | 6.4 | 12.9 | 0.00 | 0.00 | 0.00 | 60 | 1009.9 |
| 20260510023824 | 25 | 233 | 6.4 | 12.9 | 0.00 | 0.00 | 0.00 | 59 | 1009.9 |
| 20260510023725 | 25 | 222 | 6.4 | 12.9 | 0.00 | 0.00 | 0.00 | 59 | 1009.9 |
| 20260510023705 | 25 | 203 | 6.4 | 12.9 | 0.00 | 0.00 | 0.00 | 59 | 1009.9 |
| 20260510023624 | 25 | 255 | 6.4 | 12.9 | 0.00 | 0.00 | 0.00 | 59 | 1009.9 |
| 20260510023522 | 25 | 248 | 6.4 | 12.9 | 0.00 | 0.00 | 0.00 | 59 | 1009.8 |
| 20260510023421 | 25 | 217 | 6.4 | 12.9 | 0.00 | 0.00 | 0.00 | 59 | 1009.9 |
| 20260510023316 | 25 | 242 | 6.4 | 12.9 | 0.00 | 0.00 | 0.00 | 59 | 1009.9 |
| 20260510023216 | 25 | 239 | 6.4 | 11.3 | 0.00 | 0.00 | 0.00 | 59 | 1009.8 |
| 20260510023206 | 25 | 242 | 6.4 | 11.3 | 0.00 | 0.00 | 0.00 | 59 | 1009.8 |
| 20260510023116 | 25 | 242 | 6.4 | 14.5 | 0.00 | 0.00 | 0.00 | 59 | 1009.8 |
| 20260510023017 | 25 | 238 | 6.4 | 14.5 | 0.00 | 0.00 | 0.00 | 59 | 1009.8 |
| 20260510022917 | 25 | 242 | 6.4 | 14.5 | 0.00 | 0.00 | 0.00 | 59 | 1009.9 |
| 20260510022817 | 25 | 253 | 6.4 | 14.5 | 0.00 | 0.00 | 0.00 | 58 | 1009.8 |
| 20260510022716 | 25 | 238 | 6.4 | 14.5 | 0.00 | 0.00 | 0.00 | 59 | 1009.9 |
| 20260510022702 | 25 | 238 | 6.4 | 14.5 | 0.00 | 0.00 | 0.00 | 59 | 1009.9 |
| 20260510022614 | 25 | 243 | 6.4 | 14.5 | 0.00 | 0.00 | 0.00 | 59 | 1009.9 |
| 20260510022515 | 25 | 225 | 8.0 | 16.1 | 0.00 | 0.00 | 0.00 | 59 | 1009.9 |
| 20260510022414 | 25 | 238 | 8.0 | 16.1 | 0.00 | 0.00 | 0.00 | 59 | 1009.8 |
| 20260510022314 | 25 | 246 | 8.0 | 16.1 | 0.00 | 0.00 | 0.00 | 59 | 1009.8 |
| 20260510022214 | 25 | 162 | 8.0 | 16.1 | 0.00 | 0.00 | 0.00 | 59 | 1009.8 |
| 20260510022203 | 25 | 235 | 8.0 | 16.1 | 0.00 | 0.00 | 0.00 | 59 | 1009.8 |
| 20260510022115 | 25 | 236 | 8.0 | 16.1 | 0.00 | 0.00 | 0.00 | 58 | 1009.9 |
| 20260510022012 | 25 | 245 | 8.0 | 16.1 | 0.00 | 0.00 | 0.00 | 58 | 1009.8 |
| 20260510021910 | 25 | 224 | 8.0 | 16.1 | 0.00 | 0.00 | 0.00 | 58 | 1009.8 |
| 20260510021811 | 25 | 242 | 8.0 | 16.1 | 0.00 | 0.00 | 0.00 | 58 | 1009.9 |
| 20260510021713 | 25 | 207 | 8.0 | 16.1 | 0.00 | 0.00 | 0.00 | 58 | 1009.8 |
| 20260510021702 | 25 | 183 | 8.0 | 16.1 | 0.00 | 0.00 | 0.00 | 58 | 1009.8 |
| 20260510021607 | 25 | 232 | 6.4 | 14.5 | 0.00 | 0.00 | 0.00 | 58 | 1009.8 |
| 20260510021506 | 25 | 233 | 6.4 | 14.5 | 0.00 | 0.00 | 0.00 | 58 | 1009.8 |
| 20260510021407 | 25 | 256 | 6.4 | 12.9 | 0.00 | 0.00 | 0.00 | 58 | 1009.8 |
| 20260510021304 | 25 | 253 | 6.4 | 12.9 | 0.00 | 0.00 | 0.00 | 58 | 1009.9 |
| 20260510021220 | 25 | 229 | 6.4 | 14.5 | 0.00 | 0.00 | 0.00 | 58 | 1009.9 |
| 20260510021105 | 25 | 239 | 6.4 | 14.5 | 0.00 | 0.00 | 0.00 | 57 | 1009.9 |
| 20260510021005 | 25 | 195 | 6.4 | 14.5 | 0.00 | 0.00 | 0.00 | 57 | 1009.9 |
| 20260510020907 | 25 | 252 | 6.4 | 17.7 | 0.00 | 0.00 | 0.00 | 57 | 1009.8 |
| 20260510020805 | 25 | 239 | 6.4 | 17.7 | 0.00 | 0.00 | 0.00 | 57 | 1009.8 |
| 20260510020719 | 25 | 238 | 6.4 | 17.7 | 0.00 | 0.00 | 0.00 | 57 | 1009.8 |
| 20260510020403 | 26 | 238 | 8.0 | 20.9 | 0.00 | 0.00 | 0.00 | 57 | 1009.8 |
| 20260510020301 | 26 | 255 | 8.0 | 20.9 | 0.00 | 0.00 | 0.00 | 57 | 1009.9 |
| 20260510020201 | 26 | 225 | 8.0 | 20.9 | 0.00 | 0.00 | 0.00 | 57 | 1009.9 |
| 20260510020053 | 26 | 243 | 8.0 | 20.9 | 0.00 | 0.00 | 0.00 | 57 | 1009.9 |
| 20260510015953 | 26 | 245 | 8.0 | 20.9 | 0.00 | 0.00 | 0.00 | 57 | 1009.9 |
| 20260510015852 | 26 | 227 | 6.4 | 20.9 | 0.00 | 0.00 | 0.00 | 56 | 1009.9 |
| 20260510015752 | 26 | 238 | 6.4 | 20.9 | 0.00 | 0.00 | 0.00 | 56 | 1009.9 |
| 20260510015654 | 26 | 243 | 6.4 | 20.9 | 0.00 | 0.00 | 0.00 | 57 | 1009.9 |
| 20260510015546 | 26 | 250 | 6.4 | 19.3 | 0.00 | 0.00 | 0.00 | 56 | 1009.9 |
| 20260510015447 | 26 | 235 | 6.4 | 19.3 | 0.00 | 0.00 | 0.00 | 57 | 1009.9 |
| 20260510015347 | 26 | 230 | 6.4 | 19.3 | 0.00 | 0.00 | 0.00 | 57 | 1009.9 |
| 20260510015247 | 26 | 135 | 6.4 | 19.3 | 0.00 | 0.00 | 0.00 | 57 | 1009.9 |
| 20260510015150 | 26 | 221 | 6.4 | 19.3 | 0.00 | 0.00 | 0.00 | 57 | 1009.9 |
| 20260510015040 | 26 | 256 | 6.4 | 19.3 | 0.00 | 0.00 | 0.00 | 57 | 1010.0 |
| 20260510014940 | 26 | 214 | 8.0 | 19.3 | 0.00 | 0.00 | 0.00 | 56 | 1010.0 |
| 20260510014841 | 26 | 246 | 8.0 | 19.3 | 0.00 | 0.00 | 0.00 | 56 | 1010.0 |
| 20260510014740 | 26 | 195 | 8.0 | 19.3 | 0.00 | 0.00 | 0.00 | 56 | 1009.9 |
| 20260510014642 | 26 | 215 | 8.0 | 19.3 | 0.00 | 0.00 | 0.00 | 56 | 1009.9 |
| 20260510014535 | 26 | 222 | 9.7 | 22.5 | 0.00 | 0.00 | 0.00 | 56 | 1009.9 |
| 20260510014435 | 26 | 266 | 9.7 | 22.5 | 0.00 | 0.00 | 0.00 | 56 | 1009.9 |
| 20260510014334 | 26 | 235 | 9.7 | 22.5 | 0.00 | 0.00 | 0.00 | 56 | 1009.9 |
| 20260510014235 | 26 | 207 | 9.7 | 22.5 | 0.00 | 0.00 | 0.00 | 56 | 1009.9 |
| 20260510014136 | 26 | 208 | 9.7 | 22.5 | 0.00 | 0.00 | 0.00 | 55 | 1009.9 |
| 20260510014030 | 26 | 245 | 9.7 | 22.5 | 0.00 | 0.00 | 0.00 | 55 | 1009.9 |
| 20260510013930 | 26 | 257 | 11.3 | 22.5 | 0.00 | 0.00 | 0.00 | 56 | 1009.9 |
| 20260510013830 | 26 | 240 | 11.3 | 22.5 | 0.00 | 0.00 | 0.00 | 56 | 1010.0 |
| 20260510013731 | 26 | 214 | 11.3 | 22.5 | 0.00 | 0.00 | 0.00 | 55 | 1009.9 |
| 20260510013630 | 26 | 248 | 11.3 | 22.5 | 0.00 | 0.00 | 0.00 | 55 | 1010.0 |
| 20260510013522 | 26 | 243 | 11.3 | 22.5 | 0.00 | 0.00 | 0.00 | 56 | 1009.9 |
| 20260510013422 | 26 | 248 | 12.9 | 22.5 | 0.00 | 0.00 | 0.00 | 56 | 1009.9 |
| 20260510013322 | 26 | 160 | 12.9 | 22.5 | 0.00 | 0.00 | 0.00 | 56 | 1009.9 |
| 20260510013222 | 26 | 240 | 11.3 | 22.5 | 0.00 | 0.00 | 0.00 | 55 | 1010.0 |
| 20260510013124 | 26 | 253 | 11.3 | 22.5 | 0.00 | 0.00 | 0.00 | 56 | 1010.0 |
| 20260510013017 | 26 | 230 | 11.3 | 22.5 | 0.00 | 0.00 | 0.00 | 56 | 1010.0 |
| 20260510012916 | 26 | 232 | 11.3 | 22.5 | 0.00 | 0.00 | 0.00 | 55 | 1010.0 |
| 20260510012817 | 26 | 250 | 11.3 | 22.5 | 0.00 | 0.00 | 0.00 | 55 | 1009.9 |
| 20260510012716 | 26 | 219 | 11.3 | 22.5 | 0.00 | 0.00 | 0.00 | 55 | 1010.0 |
| 20260510012618 | 27 | 240 | 11.3 | 22.5 | 0.00 | 0.00 | 0.00 | 55 | 1010.0 |
| 20260510012513 | 27 | 232 | 9.7 | 22.5 | 0.00 | 0.00 | 0.00 | 55 | 1010.0 |
| 20260510012410 | 27 | 231 | 9.7 | 22.5 | 0.00 | 0.00 | 0.00 | 55 | 1010.0 |
| 20260510012311 | 27 | 174 | 9.7 | 22.5 | 0.00 | 0.00 | 0.00 | 55 | 1009.9 |
| 20260510012210 | 27 | 221 | 9.7 | 22.5 | 0.00 | 0.00 | 0.00 | 55 | 1010.0 |
| 20260510012113 | 27 | 217 | 9.7 | 22.5 | 0.00 | 0.00 | 0.00 | 55 | 1010.0 |
| 20260510012005 | 27 | 246 | 8.0 | 22.5 | 0.00 | 0.00 | 0.00 | 55 | 1009.9 |
| 20260510011907 | 27 | 233 | 8.0 | 22.5 | 0.00 | 0.00 | 0.00 | 55 | 1009.9 |
| 20260510011805 | 27 | 243 | 8.0 | 25.7 | 0.00 | 0.00 | 0.00 | 55 | 1009.9 |
| 20260510011704 | 27 | 231 | 6.4 | 25.7 | 0.00 | 0.00 | 0.00 | 54 | 1009.9 |
| 20260510011605 | 27 | 238 | 6.4 | 25.7 | 0.00 | 0.00 | 0.00 | 55 | 1010.0 |
| 20260510011459 | 27 | 224 | 6.4 | 25.7 | 0.00 | 0.00 | 0.00 | 54 | 1010.0 |
| 20260510011359 | 27 | 231 | 8.0 | 25.7 | 0.00 | 0.00 | 0.00 | 55 | 1010.0 |
| 20260510011325 | 27 | 242 | 8.0 | 25.7 | 0.00 | 0.00 | 0.00 | 54 | 1010.0 |
| 20260510011259 | 27 | 253 | 8.0 | 25.7 | 0.00 | 0.00 | 0.00 | 54 | 1009.9 |
| 20260510011215 | 27 | 222 | 6.4 | 25.7 | 0.00 | 0.00 | 0.00 | 54 | 1009.9 |
| 20260510011204 | 27 | 242 | 8.0 | 25.7 | 0.00 | 0.00 | 0.00 | 54 | 1010.0 |
| 20260510010955 | 27 | 231 | 8.0 | 25.7 | 0.00 | 0.00 | 0.00 | 54 | 1009.9 |
| 20260510010855 | 27 | 259 | 8.0 | 25.7 | 0.00 | 0.00 | 0.00 | 54 | 1010.0 |
| 20260510010755 | 27 | 221 | 6.4 | 22.5 | 0.00 | 0.00 | 0.00 | 54 | 1010.0 |
| 20260510010654 | 27 | 269 | 6.4 | 22.5 | 0.00 | 0.00 | 0.00 | 54 | 1010.0 |
| 20260510010608 | 27 | 207 | 8.0 | 22.5 | 0.00 | 0.00 | 0.00 | 53 | 1010.0 |
| 20260510010447 | 27 | 238 | 8.0 | 22.5 | 0.00 | 0.00 | 0.00 | 53 | 1010.0 |
| 20260510010346 | 27 | 270 | 8.0 | 22.5 | 0.00 | 0.00 | 0.00 | 53 | 1010.0 |
| 20260510010247 | 27 | 232 | 8.0 | 19.3 | 0.00 | 0.00 | 0.00 | 54 | 1010.0 |
| 20260510010146 | 27 | 232 | 8.0 | 19.3 | 0.00 | 0.00 | 0.00 | 53 | 1009.9 |
| 20260510010100 | 27 | 231 | 8.0 | 19.3 | 0.00 | 0.00 | 0.00 | 54 | 1009.9 |
| 20260510005941 | 27 | 250 | 8.0 | 19.3 | 0.00 | 0.00 | 0.00 | 54 | 1010.0 |
| 20260510005840 | 27 | 259 | 9.7 | 19.3 | 0.00 | 0.00 | 0.00 | 54 | 1010.0 |
| 20260510005810 | 28 | 210 | 9.7 | 19.3 | 0.00 | 0.00 | 0.00 | 53 | 1010.0 |
| 20260510005740 | 28 | 246 | 9.7 | 19.3 | 0.00 | 0.00 | 0.00 | 53 | 1010.0 |
| 20260510005658 | 28 | 259 | 9.7 | 19.3 | 0.00 | 0.00 | 0.00 | 53 | 1009.9 |
| 20260510005647 | 28 | 210 | 9.7 | 19.3 | 0.00 | 0.00 | 0.00 | 53 | 1010.0 |
| 20260510005434 | 28 | 238 | 9.7 | 17.7 | 0.00 | 0.00 | 0.00 | 54 | 1010.0 |
| 20260510005334 | 28 | 208 | 8.0 | 17.7 | 0.00 | 0.00 | 0.00 | 54 | 1010.0 |
| 20260510005238 | 28 | 229 | 8.0 | 17.7 | 0.00 | 0.00 | 0.00 | 54 | 1010.0 |
| 20260510005135 | 28 | 193 | 8.0 | 17.7 | 0.00 | 0.00 | 0.00 | 54 | 1010.0 |
| 20260510005038 | 28 | 284 | 8.0 | 17.7 | 0.00 | 0.00 | 0.00 | 53 | 1010.0 |
| 20260510004930 | 28 | 216 | 6.4 | 17.7 | 0.00 | 0.00 | 0.00 | 53 | 1010.0 |
| 20260510004829 | 28 | 233 | 6.4 | 17.7 | 0.00 | 0.00 | 0.00 | 53 | 1010.0 |
| 20260510004729 | 28 | 223 | 6.4 | 16.1 | 0.00 | 0.00 | 0.00 | 53 | 1010.0 |
| 20260510004629 | 28 | 248 | 6.4 | 16.1 | 0.00 | 0.00 | 0.00 | 53 | 1010.0 |
| 20260510004529 | 28 | 224 | 8.0 | 20.9 | 0.00 | 0.00 | 0.00 | 52 | 1010.0 |
| 20260510004422 | 28 | 232 | 8.0 | 20.9 | 0.00 | 0.00 | 0.00 | 52 | 1010.0 |
| 20260510004322 | 28 | 243 | 8.0 | 20.9 | 0.00 | 0.00 | 0.00 | 52 | 1010.0 |
| 20260510004223 | 28 | 239 | 9.7 | 22.5 | 0.00 | 0.00 | 0.00 | 52 | 1010.0 |
| 20260510004122 | 28 | 238 | 9.7 | 22.5 | 0.00 | 0.00 | 0.00 | 52 | 1010.0 |
| 20260510004023 | 28 | 248 | 11.3 | 22.5 | 0.00 | 0.00 | 0.00 | 52 | 1010.0 |
| 20260510003920 | 28 | 245 | 11.3 | 22.5 | 0.00 | 0.00 | 0.00 | 51 | 1010.0 |
| 20260510003821 | 28 | 226 | 11.3 | 22.5 | 0.00 | 0.00 | 0.00 | 51 | 1010.0 |
| 20260510003721 | 28 | 257 | 11.3 | 22.5 | 0.00 | 0.00 | 0.00 | 51 | 1010.0 |
| 20260510003618 | 28 | 233 | 11.3 | 22.5 | 0.00 | 0.00 | 0.00 | 51 | 1010.0 |
| 20260510003517 | 28 | 253 | 11.3 | 22.5 | 0.00 | 0.00 | 0.00 | 50 | 1010.0 |
| 20260510003410 | 28 | 253 | 9.7 | 22.5 | 0.00 | 0.00 | 0.00 | 50 | 1010.0 |
| 20260510003310 | 28 | 232 | 9.7 | 22.5 | 0.00 | 0.00 | 0.00 | 50 | 1010.0 |
| 20260510003211 | 28 | 253 | 9.7 | 22.5 | 0.00 | 0.00 | 0.00 | 49 | 1010.0 |
| 20260510003111 | 28 | 232 | 8.0 | 20.9 | 0.00 | 0.00 | 0.00 | 49 | 1010.1 |
| 20260510003012 | 28 | 207 | 8.0 | 20.9 | 0.00 | 0.00 | 0.00 | 49 | 1010.0 |
| 20260510002905 | 28 | 245 | 8.0 | 19.3 | 0.00 | 0.00 | 0.00 | 49 | 1010.0 |
| 20260510002805 | 28 | 207 | 8.0 | 19.3 | 0.00 | 0.00 | 0.00 | 49 | 1010.0 |
| 20260510002704 | 29 | 233 | 6.4 | 19.3 | 0.00 | 0.00 | 0.00 | 49 | 1010.0 |
| 20260510002604 | 29 | 302 | 6.4 | 19.3 | 0.00 | 0.00 | 0.00 | 49 | 1010.0 |
| 20260510002520 | 29 | 225 | 6.4 | 19.3 | 0.00 | 0.00 | 0.00 | 50 | 1010.0 |
| 20260510002402 | 29 | 231 | 6.4 | 17.7 | 0.00 | 0.00 | 0.00 | 50 | 1010.0 |
| 20260510002306 | 29 | 232 | 8.0 | 19.3 | 0.00 | 0.00 | 0.00 | 50 | 1010.0 |
| 20260510002225 | 29 | 249 | 9.7 | 19.3 | 0.00 | 0.00 | 0.00 | 49 | 1010.0 |
| 20260510002202 | 29 | 229 | 8.0 | 19.3 | 0.00 | 0.00 | 0.00 | 50 | 1009.9 |
| 20260510002116 | 29 | 245 | 8.0 | 19.3 | 0.00 | 0.00 | 0.00 | 49 | 1009.9 |
| 20260510002106 | 29 | 249 | 9.7 | 19.3 | 0.00 | 0.00 | 0.00 | 49 | 1010.0 |
| 20260510001856 | 29 | 253 | 9.7 | 19.3 | 0.00 | 0.00 | 0.00 | 49 | 1010.0 |
| 20260510001757 | 29 | 221 | 9.7 | 22.5 | 0.00 | 0.00 | 0.00 | 49 | 1010.0 |
| 20260510001655 | 29 | 222 | 9.7 | 22.5 | 0.00 | 0.00 | 0.00 | 49 | 1010.0 |
| 20260510001554 | 29 | 228 | 9.7 | 22.5 | 0.00 | 0.00 | 0.00 | 48 | 1010.0 |
| 20260510001454 | 29 | 264 | 9.7 | 22.5 | 0.00 | 0.00 | 0.00 | 48 | 1010.0 |
| 20260510001347 | 29 | 231 | 9.7 | 22.5 | 0.00 | 0.00 | 0.00 | 48 | 1010.0 |
| 20260510001246 | 30 | 256 | 8.0 | 22.5 | 0.00 | 0.00 | 0.00 | 47 | 1010.0 |
| 20260510001147 | 30 | 229 | 8.0 | 22.5 | 0.00 | 0.00 | 0.00 | 47 | 1010.0 |
| 20260510001046 | 30 | 219 | 8.0 | 22.5 | 0.00 | 0.00 | 0.00 | 47 | 1010.0 |
| 20260510000950 | 30 | 218 | 6.4 | 22.5 | 0.00 | 0.00 | 0.00 | 46 | 1010.1 |
| 20260510000840 | 30 | 238 | 6.4 | 22.5 | 0.00 | 0.00 | 0.00 | 47 | 1010.0 |
| 20260510000741 | 30 | 156 | 6.4 | 19.3 | 0.00 | 0.00 | 0.00 | 47 | 1010.0 |
| 20260510000640 | 30 | 238 | 6.4 | 19.3 | 0.00 | 0.00 | 0.00 | 47 | 1010.0 |
| 20260510000541 | 30 | 218 | 6.4 | 19.3 | 0.00 | 0.00 | 0.00 | 46 | 1010.1 |
| 20260510000443 | 30 | 222 | 6.4 | 19.3 | 0.00 | 0.00 | 0.00 | 46 | 1010.1 |
| 20260510000335 | 30 | 260 | 6.4 | 19.3 | 0.00 | 0.00 | 0.00 | 46 | 1010.0 |
| 20260510000237 | 30 | 302 | 4.8 | 19.3 | 0.00 | 0.00 | 0.00 | 46 | 1010.1 |
| 20260510000153 | 30 | 271 | 4.8 | 16.1 | 0.00 | 0.00 | 0.00 | 45 | 1010.1 |
| 20260510000135 | 30 | 226 | 4.8 | 16.1 | 0.00 | 0.00 | 0.00 | 45 | 1010.1 |
| 20260510000053 | 30 | 245 | 4.8 | 16.1 | 0.00 | 0.00 | 0.00 | 46 | 1010.1 |
| 20260510000043 | 30 | 271 | 4.8 | 16.1 | 0.00 | 0.00 | 0.00 | 45 | 1010.1 |
| 20260509235831 | 30 | 239 | 4.8 | 16.1 | 0.00 | 0.00 | 0.00 | 45 | 1010.1 |
| 20260509235728 | 30 | 233 | 3.2 | 16.1 | 0.00 | 0.00 | 0.00 | 45 | 1010.1 |
| 20260509235629 | 30 | 233 | 4.8 | 14.5 | 0.00 | 0.00 | 0.00 | 45 | 1010.1 |
| 20260509235619 | 30 | 238 | 6.4 | 16.1 | 0.00 | 0.00 | 0.00 | 45 | 1010.2 |
| 20260509235528 | 30 | 253 | 6.4 | 16.1 | 0.00 | 0.00 | 0.00 | 45 | 1010.2 |
| 20260509235513 | 30 | 311 | 4.8 | 16.1 | 0.00 | 0.00 | 0.00 | 45 | 1010.1 |
| 20260509235323 | 30 | 231 | 6.4 | 16.1 | 0.00 | 0.00 | 0.00 | 46 | 1010.1 |
| 20260509235252 | 30 | 243 | 6.4 | 16.1 | 0.00 | 0.00 | 0.00 | 46 | 1010.2 |
| 20260509235123 | 30 | 243 | 6.4 | 16.1 | 0.00 | 0.00 | 0.00 | 46 | 1010.2 |
| 20260509235040 | 30 | 225 | 6.4 | 16.1 | 0.00 | 0.00 | 0.00 | 46 | 1010.1 |
| 20260509235030 | 30 | 238 | 6.4 | 16.1 | 0.00 | 0.00 | 0.00 | 45 | 1010.2 |
| 20260509234853 | 30 | 260 | 8.0 | 16.1 | 0.00 | 0.00 | 0.00 | 46 | 1010.2 |
| 20260509234817 | 30 | 226 | 8.0 | 16.1 | 0.00 | 0.00 | 0.00 | 46 | 1010.2 |
| 20260509234745 | 30 | 217 | 8.0 | 16.1 | 0.00 | 0.00 | 0.00 | 46 | 1010.2 |
| 20260509234616 | 30 | 217 | 8.0 | 16.1 | 0.00 | 0.00 | 0.00 | 45 | 1010.2 |
| 20260509234532 | 30 | 253 | 6.4 | 16.1 | 0.00 | 0.00 | 0.00 | 46 | 1010.2 |
| 20260509234522 | 30 | 260 | 8.0 | 16.1 | 0.00 | 0.00 | 0.00 | 46 | 1010.2 |
| 20260509234311 | 30 | 217 | 6.4 | 16.1 | 0.00 | 0.00 | 0.00 | 46 | 1010.2 |
| 20260509234210 | 30 | 200 | 6.4 | 16.1 | 0.00 | 0.00 | 0.00 | 46 | 1010.2 |
| 20260509234110 | 30 | 271 | 8.0 | 16.1 | 0.00 | 0.00 | 0.00 | 46 | 1010.2 |
| 20260509234010 | 30 | 246 | 8.0 | 16.1 | 0.00 | 0.00 | 0.00 | 46 | 1010.2 |
| 20260509233916 | 30 | 248 | 6.4 | 16.1 | 0.00 | 0.00 | 0.00 | 46 | 1010.2 |
| 20260509233910 | 30 | 163 | 6.4 | 16.1 | 0.00 | 0.00 | 0.00 | 46 | 1010.2 |
| 20260509233807 | 30 | 228 | 6.4 | 16.1 | 0.00 | 0.00 | 0.00 | 46 | 1010.2 |
| 20260509233706 | 30 | 236 | 6.4 | 16.1 | 0.00 | 0.00 | 0.00 | 46 | 1010.2 |
| 20260509233606 | 30 | 225 | 6.4 | 17.7 | 0.00 | 0.00 | 0.00 | 46 | 1010.2 |
| 20260509233507 | 30 | 249 | 8.0 | 17.7 | 0.00 | 0.00 | 0.00 | 47 | 1010.2 |
| 20260509233413 | 30 | 243 | 8.0 | 17.7 | 0.00 | 0.00 | 0.00 | 46 | 1010.2 |
| 20260509233404 | 30 | 207 | 8.0 | 17.7 | 0.00 | 0.00 | 0.00 | 46 | 1010.2 |
| 20260509233259 | 30 | 238 | 8.0 | 17.7 | 0.00 | 0.00 | 0.00 | 46 | 1010.2 |
| 20260509233159 | 30 | 212 | 8.0 | 17.7 | 0.00 | 0.00 | 0.00 | 46 | 1010.3 |
| 20260509233059 | 30 | 238 | 8.0 | 17.7 | 0.00 | 0.00 | 0.00 | 46 | 1010.3 |
| 20260509232958 | 30 | 250 | 6.4 | 17.7 | 0.00 | 0.00 | 0.00 | 46 | 1010.3 |
| 20260509232913 | 30 | 231 | 6.4 | 17.7 | 0.00 | 0.00 | 0.00 | 46 | 1010.2 |
| 20260509232858 | 30 | 215 | 6.4 | 17.7 | 0.00 | 0.00 | 0.00 | 46 | 1010.2 |
| 20260509232752 | 30 | 231 | 6.4 | 17.7 | 0.00 | 0.00 | 0.00 | 46 | 1010.2 |
| 20260509232653 | 30 | 248 | 6.4 | 17.7 | 0.00 | 0.00 | 0.00 | 46 | 1010.2 |
| 20260509232552 | 30 | 199 | 6.4 | 17.7 | 0.00 | 0.00 | 0.00 | 46 | 1010.3 |
| 20260509232452 | 30 | 229 | 6.4 | 17.7 | 0.00 | 0.00 | 0.00 | 46 | 1010.2 |
| 20260509232413 | 30 | 273 | 8.0 | 17.7 | 0.00 | 0.00 | 0.00 | 46 | 1010.2 |
| 20260509232353 | 30 | 243 | 8.0 | 17.7 | 0.00 | 0.00 | 0.00 | 46 | 1010.2 |
| 20260509232248 | 31 | 248 | 6.4 | 17.7 | 0.00 | 0.00 | 0.00 | 46 | 1010.2 |
| 20260509232147 | 30 | 266 | 6.4 | 17.7 | 0.00 | 0.00 | 0.00 | 46 | 1010.2 |
| 20260509232046 | 30 | 249 | 6.4 | 17.7 | 0.00 | 0.00 | 0.00 | 46 | 1010.3 |
| 20260509231947 | 30 | 217 | 6.4 | 17.7 | 0.00 | 0.00 | 0.00 | 46 | 1010.3 |
| 20260509231914 | 30 | 257 | 6.4 | 17.7 | 0.00 | 0.00 | 0.00 | 45 | 1010.2 |
| 20260509231846 | 31 | 208 | 6.4 | 17.7 | 0.00 | 0.00 | 0.00 | 45 | 1010.3 |
| 20260509231740 | 31 | 226 | 6.4 | 17.7 | 0.00 | 0.00 | 0.00 | 45 | 1010.3 |
| 20260509231640 | 31 | 225 | 4.8 | 17.7 | 0.00 | 0.00 | 0.00 | 45 | 1010.3 |
| 20260509231541 | 31 | 192 | 4.8 | 17.7 | 0.00 | 0.00 | 0.00 | 45 | 1010.3 |
| 20260509231441 | 31 | 151 | 3.2 | 14.5 | 0.00 | 0.00 | 0.00 | 45 | 1010.3 |
| 20260509231412 | 31 | 192 | 3.2 | 11.3 | 0.00 | 0.00 | 0.00 | 45 | 1010.3 |
| 20260509231340 | 31 | 239 | 3.2 | 11.3 | 0.00 | 0.00 | 0.00 | 45 | 1010.4 |
| 20260509231237 | 31 | 249 | 3.2 | 11.3 | 0.00 | 0.00 | 0.00 | 45 | 1010.3 |
| 20260509231135 | 31 | 250 | 3.2 | 11.3 | 0.00 | 0.00 | 0.00 | 45 | 1010.4 |
| 20260509231034 | 31 | 240 | 3.2 | 11.3 | 0.00 | 0.00 | 0.00 | 44 | 1010.3 |
| 20260509230934 | 31 | 263 | 3.2 | 11.3 | 0.00 | 0.00 | 0.00 | 44 | 1010.3 |
| 20260509230914 | 31 | 231 | 3.2 | 11.3 | 0.00 | 0.00 | 0.00 | 44 | 1010.3 |
| 20260509230834 | 31 | 224 | 3.2 | 11.3 | 0.00 | 0.00 | 0.00 | 45 | 1010.3 |
| 20260509230729 | 31 | 332 | 3.2 | 11.3 | 0.00 | 0.00 | 0.00 | 45 | 1010.4 |
| 20260509230628 | 31 | 243 | 3.2 | 11.3 | 0.00 | 0.00 | 0.00 | 44 | 1010.4 |
| 20260509230529 | 31 | 214 | 3.2 | 11.3 | 0.00 | 0.00 | 0.00 | 44 | 1010.3 |
| 20260509230429 | 31 | 267 | 3.2 | 11.3 | 0.00 | 0.00 | 0.00 | 44 | 1010.4 |
| 20260509230414 | 31 | 264 | 3.2 | 11.3 | 0.00 | 0.00 | 0.00 | 44 | 1010.4 |
| 20260509230328 | 31 | 221 | 3.2 | 11.3 | 0.00 | 0.00 | 0.00 | 45 | 1010.4 |
| 20260509230222 | 31 | 232 | 3.2 | 9.7 | 0.00 | 0.00 | 0.00 | 45 | 1010.3 |
| 20260509230133 | 31 | 260 | 4.8 | 12.9 | 0.00 | 0.00 | 0.00 | 44 | 1010.4 |
| 20260509230122 | 31 | 222 | 3.2 | 9.7 | 0.00 | 0.00 | 0.00 | 44 | 1010.4 |
| 20260509230029 | 31 | 259 | 3.2 | 9.7 | 0.00 | 0.00 | 0.00 | 44 | 1010.4 |
| 20260509230021 | 31 | 197 | 4.8 | 12.9 | 0.00 | 0.00 | 0.00 | 44 | 1010.4 |
| 20260509225822 | 31 | 211 | 4.8 | 12.9 | 0.00 | 0.00 | 0.00 | 44 | 1010.4 |
| 20260509225719 | 31 | 236 | 3.2 | 12.9 | 0.00 | 0.00 | 0.00 | 44 | 1010.5 |
| 20260509225616 | 31 | 207 | 3.2 | 12.9 | 0.00 | 0.00 | 0.00 | 45 | 1010.5 |
| 20260509225517 | 31 | 232 | 3.2 | 12.9 | 0.00 | 0.00 | 0.00 | 44 | 1010.5 |
| 20260509225407 | 31 | 281 | 3.2 | 12.9 | 0.00 | 0.00 | 0.00 | 43 | 1010.5 |
| 20260509225316 | 31 | 281 | 3.2 | 12.9 | 0.00 | 0.00 | 0.00 | 42 | 1010.5 |
| 20260509225212 | 31 | 339 | 4.8 | 12.9 | 0.00 | 0.00 | 0.00 | 43 | 1010.5 |
| 20260509225110 | 31 | 245 | 4.8 | 16.1 | 0.00 | 0.00 | 0.00 | 43 | 1010.5 |
| 20260509225010 | 31 | 229 | 4.8 | 16.1 | 0.00 | 0.00 | 0.00 | 43 | 1010.5 |
| 20260509224912 | 31 | 253 | 3.2 | 16.1 | 0.00 | 0.00 | 0.00 | 44 | 1010.6 |
| 20260509224810 | 31 | 311 | 4.8 | 16.1 | 0.00 | 0.00 | 0.00 | 43 | 1010.5 |
| 20260509224709 | 31 | 232 | 4.8 | 16.1 | 0.00 | 0.00 | 0.00 | 45 | 1010.6 |
| 20260509224608 | 31 | 229 | 4.8 | 16.1 | 0.00 | 0.00 | 0.00 | 44 | 1010.6 |
| 20260509224508 | 31 | 218 | 4.8 | 16.1 | 0.00 | 0.00 | 0.00 | 43 | 1010.6 |
| 20260509224407 | 31 | 302 | 4.8 | 16.1 | 0.00 | 0.00 | 0.00 | 44 | 1010.5 |
| 20260509224304 | 31 | 296 | 4.8 | 16.1 | 0.00 | 0.00 | 0.00 | 43 | 1010.6 |
| 20260509224159 | 31 | 224 | 4.8 | 16.1 | 0.00 | 0.00 | 0.00 | 43 | 1010.6 |
| 20260509224059 | 31 | 219 | 3.2 | 16.1 | 0.00 | 0.00 | 0.00 | 44 | 1010.6 |
| 20260509223959 | 31 | 236 | 3.2 | 16.1 | 0.00 | 0.00 | 0.00 | 44 | 1010.6 |
| 20260509223908 | 31 | 232 | 3.2 | 16.1 | 0.00 | 0.00 | 0.00 | 43 | 1010.6 |
| 20260509223859 | 31 | 214 | 3.2 | 16.1 | 0.00 | 0.00 | 0.00 | 43 | 1010.6 |
| 20260509223758 | 31 | 231 | 3.2 | 16.1 | 0.00 | 0.00 | 0.00 | 43 | 1010.7 |
| 20260509223656 | 31 | 291 | 1.6 | 8.0 | 0.00 | 0.00 | 0.00 | 43 | 1010.7 |
| 20260509223630 | 32 | 305 | 3.2 | 14.5 | 0.00 | 0.00 | 0.00 | 43 | 1010.7 |
| 20260509223556 | 31 | 316 | 3.2 | 11.3 | 0.00 | 0.00 | 0.00 | 42 | 1010.6 |
| 20260509223517 | 32 | 4 | 3.2 | 14.5 | 0.00 | 0.00 | 0.00 | 43 | 1010.7 |
| 20260509223355 | 32 | 304 | 3.2 | 14.5 | 0.00 | 0.00 | 0.00 | 42 | 1010.7 |
| 20260509223252 | 32 | 304 | 3.2 | 14.5 | 0.00 | 0.00 | 0.00 | 42 | 1010.7 |
| 20260509223148 | 32 | 305 | 3.2 | 14.5 | 0.00 | 0.00 | 0.00 | 42 | 1010.7 |
| 20260509223046 | 32 | 305 | 4.8 | 14.5 | 0.00 | 0.00 | 0.00 | 41 | 1010.7 |
| 20260509222947 | 32 | 359 | 4.8 | 14.5 | 0.00 | 0.00 | 0.00 | 42 | 1010.7 |
| 20260509222919 | 32 | 0 | 4.8 | 14.5 | 0.00 | 0.00 | 0.00 | 42 | 1010.7 |
| 20260509222846 | 32 | 359 | 4.8 | 14.5 | 0.00 | 0.00 | 0.00 | 41 | 1010.7 |
| 20260509222746 | 32 | 318 | 4.8 | 14.5 | 0.00 | 0.00 | 0.00 | 42 | 1010.7 |
| 20260509222640 | 32 | 246 | 4.8 | 14.5 | 0.00 | 0.00 | 0.00 | 41 | 1010.7 |
| 20260509222621 | 32 | 353 | 3.2 | 12.9 | 0.00 | 0.00 | 0.00 | 41 | 1010.7 |
| 20260509222541 | 32 | 226 | 3.2 | 12.9 | 0.00 | 0.00 | 0.00 | 41 | 1010.7 |
| 20260509222515 | 32 | 316 | 3.2 | 12.9 | 0.00 | 0.00 | 0.00 | 41 | 1010.7 |
| 20260509222341 | 32 | 316 | 3.2 | 12.9 | 0.00 | 0.00 | 0.00 | 41 | 1010.8 |
| 20260509222240 | 32 | 212 | 3.2 | 12.9 | 0.00 | 0.00 | 0.00 | 41 | 1010.8 |
| 20260509222140 | 32 | 218 | 3.2 | 11.3 | 0.00 | 0.00 | 0.00 | 41 | 1010.8 |
| 20260509222130 | 32 | 225 | 3.2 | 8.0 | 0.00 | 0.00 | 0.00 | 41 | 1010.8 |
| 20260509222041 | 32 | 207 | 3.2 | 11.3 | 0.00 | 0.00 | 0.00 | 40 | 1010.8 |
| 20260509222015 | 32 | 214 | 3.2 | 11.3 | 0.00 | 0.00 | 0.00 | 40 | 1010.8 |
| 20260509221738 | 32 | 120 | 1.6 | 8.0 | 0.00 | 0.00 | 0.00 | 41 | 1010.9 |
| 20260509221631 | 32 | 283 | 1.6 | 8.0 | 0.00 | 0.00 | 0.00 | 40 | 1010.8 |
| 20260509221529 | 32 | 183 | 1.6 | 8.0 | 0.00 | 0.00 | 0.00 | 41 | 1010.9 |
| 20260509221404 | 32 | 319 | 1.6 | 8.0 | 0.00 | 0.00 | 0.00 | 39 | 1010.9 |
| 20260509221326 | 32 | 319 | 1.6 | 8.0 | 0.00 | 0.00 | 0.00 | 39 | 1010.8 |
| 20260509221224 | 32 | 319 | 1.6 | 8.0 | 0.00 | 0.00 | 0.00 | 39 | 1010.9 |
| 20260509221120 | 32 | 239 | 1.6 | 4.8 | 0.00 | 0.00 | 0.00 | 40 | 1010.9 |
| 20260509221021 | 32 | 236 | 1.6 | 6.4 | 0.00 | 0.00 | 0.00 | 39 | 1010.9 |
| 20260509220921 | 32 | 239 | 3.2 | 16.1 | 0.00 | 0.00 | 0.00 | 39 | 1010.9 |
| 20260509220904 | 32 | 212 | 3.2 | 20.9 | 0.00 | 0.00 | 0.00 | 39 | 1010.9 |
| 20260509220821 | 32 | 229 | 3.2 | 20.9 | 0.00 | 0.00 | 0.00 | 40 | 1010.9 |
| 20260509220718 | 32 | 229 | 3.2 | 20.9 | 0.00 | 0.00 | 0.00 | 41 | 1010.9 |
| 20260509220616 | 31 | 221 | 3.2 | 20.9 | 0.00 | 0.00 | 0.00 | 41 | 1010.9 |
| 20260509220517 | 31 | 217 | 3.2 | 20.9 | 0.00 | 0.00 | 0.00 | 41 | 1010.9 |
| 20260509220415 | 31 | 206 | 4.8 | 20.9 | 0.00 | 0.00 | 0.00 | 41 | 1010.9 |
| 20260509220351 | 31 | 198 | 4.8 | 20.9 | 0.00 | 0.00 | 0.00 | 42 | 1010.9 |
| 20260509220315 | 31 | 232 | 4.8 | 20.9 | 0.00 | 0.00 | 0.00 | 41 | 1010.9 |
| 20260509220212 | 31 | 232 | 4.8 | 20.9 | 0.00 | 0.00 | 0.00 | 41 | 1010.9 |
| 20260509220107 | 31 | 226 | 4.8 | 20.9 | 0.00 | 0.00 | 0.00 | 40 | 1010.9 |
| 20260509220006 | 31 | 169 | 3.2 | 20.9 | 0.00 | 0.00 | 0.00 | 39 | 1011.0 |
| 20260509215907 | 31 | 215 | 3.2 | 16.1 | 0.00 | 0.00 | 0.00 | 39 | 1010.9 |
| 20260509215846 | 31 | 274 | 3.2 | 11.3 | 0.00 | 0.00 | 0.00 | 39 | 1010.9 |
| 20260509215806 | 31 | 238 | 3.2 | 11.3 | 0.00 | 0.00 | 0.00 | 39 | 1010.9 |
| 20260509215706 | 31 | 136 | 3.2 | 11.3 | 0.00 | 0.00 | 0.00 | 38 | 1010.9 |
| 20260509215614 | 31 | 326 | 3.2 | 14.5 | 0.00 | 0.00 | 0.00 | 37 | 1011.0 |
| 20260509215607 | 31 | 321 | 3.2 | 11.3 | 0.00 | 0.00 | 0.00 | 37 | 1010.9 |
| 20260509215504 | 31 | 321 | 3.2 | 14.5 | 0.00 | 0.00 | 0.00 | 37 | 1010.9 |
| 20260509215450 | 31 | 336 | 3.2 | 14.5 | 0.00 | 0.00 | 0.00 | 37 | 1010.9 |
| 20260509215305 | 31 | 4 | 3.2 | 14.5 | 0.00 | 0.00 | 0.00 | 37 | 1011.0 |
| 20260509215200 | 31 | 335 | 3.2 | 14.5 | 0.00 | 0.00 | 0.00 | 36 | 1011.0 |
| 20260509215059 | 31 | 333 | 3.2 | 14.5 | 0.00 | 0.00 | 0.00 | 37 | 1011.0 |
| 20260509214958 | 31 | 287 | 3.2 | 14.5 | 0.00 | 0.00 | 0.00 | 37 | 1011.0 |
| 20260509214859 | 31 | 263 | 3.2 | 14.5 | 0.00 | 0.00 | 0.00 | 37 | 1011.0 |
| 20260509214834 | 31 | 229 | 3.2 | 14.5 | 0.00 | 0.00 | 0.00 | 39 | 1011.0 |
| 20260509214757 | 31 | 229 | 3.2 | 14.5 | 0.00 | 0.00 | 0.00 | 38 | 1011.0 |
| 20260509214654 | 31 | 229 | 3.2 | 14.5 | 0.00 | 0.00 | 0.00 | 38 | 1011.0 |
| 20260509214549 | 31 | 238 | 3.2 | 14.5 | 0.00 | 0.00 | 0.00 | 38 | 1011.0 |
| 20260509214448 | 31 | 231 | 3.2 | 12.9 | 0.00 | 0.00 | 0.00 | 38 | 1011.1 |
| 20260509214349 | 31 | 314 | 3.2 | 12.9 | 0.00 | 0.00 | 0.00 | 37 | 1011.1 |
| 20260509214329 | 31 | 302 | 3.2 | 16.1 | 0.00 | 0.00 | 0.00 | 38 | 1011.1 |
| 20260509214249 | 31 | 319 | 3.2 | 16.1 | 0.00 | 0.00 | 0.00 | 38 | 1011.1 |
| 20260509214148 | 31 | 350 | 3.2 | 16.1 | 0.00 | 0.00 | 0.00 | 39 | 1011.1 |
| 20260509214044 | 31 | 319 | 3.2 | 16.1 | 0.00 | 0.00 | 0.00 | 39 | 1011.1 |
| 20260509213945 | 31 | 319 | 3.2 | 16.1 | 0.00 | 0.00 | 0.00 | 38 | 1011.1 |
| 20260509213844 | 31 | 321 | 3.2 | 16.1 | 0.00 | 0.00 | 0.00 | 38 | 1011.2 |
| 20260509213822 | 31 | 321 | 3.2 | 16.1 | 0.00 | 0.00 | 0.00 | 37 | 1011.2 |
| 20260509213744 | 31 | 320 | 3.2 | 16.1 | 0.00 | 0.00 | 0.00 | 38 | 1011.2 |
| 20260509213642 | 31 | 284 | 3.2 | 16.1 | 0.00 | 0.00 | 0.00 | 38 | 1011.2 |
| 20260509213538 | 31 | 264 | 3.2 | 16.1 | 0.00 | 0.00 | 0.00 | 38 | 1011.2 |
| 20260509213438 | 31 | 344 | 3.2 | 16.1 | 0.00 | 0.00 | 0.00 | 37 | 1011.2 |
| 20260509213338 | 31 | 357 | 3.2 | 16.1 | 0.00 | 0.00 | 0.00 | 37 | 1011.3 |
| 20260509213315 | 31 | 328 | 3.2 | 11.3 | 0.00 | 0.00 | 0.00 | 39 | 1011.3 |
| 20260509213238 | 31 | 314 | 3.2 | 11.3 | 0.00 | 0.00 | 0.00 | 39 | 1011.3 |
| 20260509213136 | 31 | 296 | 3.2 | 11.3 | 0.00 | 0.00 | 0.00 | 38 | 1011.3 |
| 20260509213031 | 31 | 262 | 1.6 | 11.3 | 0.00 | 0.00 | 0.00 | 38 | 1011.3 |
| 20260509212930 | 31 | 5 | 1.6 | 11.3 | 0.00 | 0.00 | 0.00 | 39 | 1011.3 |
| 20260509212810 | 31 | 226 | 3.2 | 11.3 | 0.00 | 0.00 | 0.00 | 39 | 1011.4 |
| 20260509212731 | 31 | 226 | 3.2 | 11.3 | 0.00 | 0.00 | 0.00 | 39 | 1011.4 |
| 20260509212630 | 31 | 226 | 3.2 | 11.3 | 0.00 | 0.00 | 0.00 | 41 | 1011.5 |
| 20260509212525 | 31 | 226 | 3.2 | 11.3 | 0.00 | 0.00 | 0.00 | 38 | 1011.5 |
| 20260509212424 | 31 | 298 | 3.2 | 11.3 | 0.00 | 0.00 | 0.00 | 38 | 1011.4 |
| 20260509212324 | 31 | 318 | 3.2 | 11.3 | 0.00 | 0.00 | 0.00 | 38 | 1011.5 |
| 20260509212306 | 31 | 309 | 3.2 | 11.3 | 0.00 | 0.00 | 0.00 | 39 | 1011.5 |
| 20260509212224 | 31 | 322 | 3.2 | 11.3 | 0.00 | 0.00 | 0.00 | 39 | 1011.5 |
| 20260509212123 | 31 | 231 | 3.2 | 12.9 | 0.00 | 0.00 | 0.00 | 40 | 1011.5 |
| 20260509212024 | 30 | 210 | 3.2 | 12.9 | 0.00 | 0.00 | 0.00 | 42 | 1011.5 |
| 20260509212018 | 31 | 302 | 3.2 | 12.9 | 0.00 | 0.00 | 0.00 | 39 | 1011.5 |
| 20260509211924 | 30 | 201 | 3.2 | 12.9 | 0.00 | 0.00 | 0.00 | 40 | 1011.5 |
| 20260509211910 | 30 | 219 | 3.2 | 12.9 | 0.00 | 0.00 | 0.00 | 41 | 1011.5 |
| 20260509211719 | 30 | 285 | 3.2 | 12.9 | 0.00 | 0.00 | 0.00 | 42 | 1011.5 |
| 20260509211618 | 30 | 285 | 3.2 | 12.9 | 0.00 | 0.00 | 0.00 | 40 | 1011.5 |
| 20260509211518 | 30 | 340 | 3.2 | 12.9 | 0.00 | 0.00 | 0.00 | 40 | 1011.6 |
| 20260509211417 | 31 | 337 | 1.6 | 12.9 | 0.00 | 0.00 | 0.00 | 42 | 1011.6 |
| 20260509211317 | 31 | 352 | 1.6 | 12.9 | 0.00 | 0.00 | 0.00 | 41 | 1011.5 |
| 20260509211251 | 31 | 351 | 1.6 | 12.9 | 0.00 | 0.00 | 0.00 | 42 | 1011.5 |
| 20260509211214 | 31 | 311 | 3.2 | 12.9 | 0.00 | 0.00 | 0.00 | 42 | 1011.6 |
| 20260509211113 | 31 | 332 | 3.2 | 12.9 | 0.00 | 0.00 | 0.00 | 42 | 1011.6 |
| 20260509211014 | 30 | 307 | 3.2 | 12.9 | 0.00 | 0.00 | 0.00 | 44 | 1011.7 |
| 20260509211009 | 31 | 308 | 3.2 | 12.9 | 0.00 | 0.00 | 0.00 | 42 | 1011.6 |
| 20260509210909 | 31 | 318 | 3.2 | 12.9 | 0.00 | 0.00 | 0.00 | 43 | 1011.6 |
| 20260509210857 | 30 | 318 | 3.2 | 12.9 | 0.00 | 0.00 | 0.00 | 44 | 1011.6 |
| 20260509210708 | 30 | 321 | 3.2 | 12.9 | 0.00 | 0.00 | 0.00 | 44 | 1011.7 |
| 20260509210606 | 30 | 8 | 3.2 | 12.9 | 0.00 | 0.00 | 0.00 | 42 | 1011.6 |
| 20260509210504 | 30 | 334 | 3.2 | 12.9 | 0.00 | 0.00 | 0.00 | 44 | 1011.7 |
| 20260509210405 | 30 | 282 | 3.2 | 12.9 | 0.00 | 0.00 | 0.00 | 42 | 1011.7 |
| 20260509210303 | 30 | 23 | 1.6 | 12.9 | 0.00 | 0.00 | 0.00 | 42 | 1011.7 |
| 20260509210240 | 30 | 349 | 1.6 | 12.9 | 0.00 | 0.00 | 0.00 | 42 | 1011.7 |
| 20260509210203 | 30 | 302 | 1.6 | 12.9 | 0.00 | 0.00 | 0.00 | 42 | 1011.7 |
| 20260509210100 | 30 | 351 | 1.6 | 9.7 | 0.00 | 0.00 | 0.00 | 42 | 1011.7 |
| 20260509210001 | 30 | 34 | 1.6 | 9.7 | 0.00 | 0.00 | 0.00 | 41 | 1011.7 |
| 20260509205901 | 31 | 284 | 1.6 | 9.7 | 0.00 | 0.00 | 0.00 | 41 | 1011.8 |
| 20260509205759 | 31 | 304 | 1.6 | 9.7 | 0.00 | 0.00 | 0.00 | 43 | 1011.7 |
| 20260509205735 | 31 | 43 | 1.6 | 9.7 | 0.00 | 0.00 | 0.00 | 45 | 1011.7 |
| 20260509205656 | 31 | 242 | 1.6 | 9.7 | 0.00 | 0.00 | 0.00 | 45 | 1011.7 |
| 20260509205554 | 30 | 333 | 1.6 | 9.7 | 0.00 | 0.00 | 0.00 | 42 | 1011.8 |
| 20260509205448 | 30 | 352 | 1.6 | 9.7 | 0.00 | 0.00 | 0.00 | 45 | 1011.8 |
| 20260509205349 | 30 | 231 | 1.6 | 8.0 | 0.00 | 0.00 | 0.00 | 46 | 1011.8 |
| 20260509205229 | 30 | 231 | 3.2 | 8.0 | 0.00 | 0.00 | 0.00 | 45 | 1011.8 |
| 20260509205148 | 30 | 245 | 3.2 | 8.0 | 0.00 | 0.00 | 0.00 | 45 | 1011.8 |
| 20260509205048 | 30 | 295 | 3.2 | 8.0 | 0.00 | 0.00 | 0.00 | 47 | 1011.8 |
| 20260509204944 | 30 | 307 | 3.2 | 8.0 | 0.00 | 0.00 | 0.00 | 47 | 1011.8 |
| 20260509204842 | 30 | 305 | 3.2 | 8.0 | 0.00 | 0.00 | 0.00 | 46 | 1011.8 |
| 20260509204743 | 30 | 40 | 3.2 | 8.0 | 0.00 | 0.00 | 0.00 | 46 | 1011.8 |
| 20260509204723 | 30 | 52 | 1.6 | 8.0 | 0.00 | 0.00 | 0.00 | 46 | 1011.8 |
| 20260509204642 | 30 | 321 | 1.6 | 8.0 | 0.00 | 0.00 | 0.00 | 47 | 1011.8 |
| 20260509204542 | 30 | 203 | 1.6 | 6.4 | 0.00 | 0.00 | 0.00 | 47 | 1011.9 |
| 20260509204440 | 30 | 337 | 1.6 | 6.4 | 0.00 | 0.00 | 0.00 | 46 | 1011.9 |
| 20260509204346 | 30 | 321 | 1.6 | 6.4 | 0.00 | 0.00 | 0.00 | 46 | 1011.9 |
| 20260509204239 | 30 | 311 | 1.6 | 6.4 | 0.00 | 0.00 | 0.00 | 46 | 1011.9 |
| 20260509204216 | 30 | 316 | 1.6 | 6.4 | 0.00 | 0.00 | 0.00 | 46 | 1011.9 |
| 20260509204139 | 30 | 316 | 1.6 | 6.4 | 0.00 | 0.00 | 0.00 | 45 | 1011.9 |
| 20260509204036 | 30 | 321 | 1.6 | 4.8 | 0.00 | 0.00 | 0.00 | 46 | 1011.9 |
| 20260509203941 | 30 | 314 | 1.6 | 6.4 | 0.00 | 0.00 | 0.00 | 47 | 1012.0 |
| 20260509203932 | 30 | 224 | 1.6 | 6.4 | 0.00 | 0.00 | 0.00 | 46 | 1012.0 |
| 20260509203833 | 30 | 315 | 1.6 | 6.4 | 0.00 | 0.00 | 0.00 | 47 | 1012.0 |
| 20260509203821 | 30 | 315 | 1.6 | 6.4 | 0.00 | 0.00 | 0.00 | 47 | 1012.0 |
| 20260509203633 | 30 | 315 | 1.6 | 6.4 | 0.00 | 0.00 | 0.00 | 48 | 1012.0 |
| 20260509203530 | 30 | 354 | 1.6 | 6.4 | 0.00 | 0.00 | 0.00 | 48 | 1012.0 |
| 20260509203428 | 30 | 340 | 1.6 | 6.4 | 0.00 | 0.00 | 0.00 | 46 | 1012.0 |
| 20260509203329 | 30 | 295 | 1.6 | 6.4 | 0.00 | 0.00 | 0.00 | 47 | 1012.0 |
| 20260509203206 | 30 | 295 | 1.6 | 6.4 | 0.00 | 0.00 | 0.00 | 48 | 1012.0 |
| 20260509203126 | 30 | 295 | 1.6 | 6.4 | 0.00 | 0.00 | 0.00 | 49 | 1012.0 |
| 20260509203024 | 30 | 228 | 1.6 | 6.4 | 0.00 | 0.00 | 0.00 | 48 | 1012.0 |
| 20260509202926 | 30 | 229 | 1.6 | 6.4 | 0.00 | 0.00 | 0.00 | 48 | 1012.0 |
| 20260509202921 | 30 | 221 | 1.6 | 6.4 | 0.00 | 0.00 | 0.00 | 48 | 1012.0 |
| 20260509202819 | 30 | 346 | 1.6 | 6.4 | 0.00 | 0.00 | 0.00 | 48 | 1012.0 |
| 20260509202808 | 30 | 228 | 1.6 | 6.4 | 0.00 | 0.00 | 0.00 | 48 | 1012.0 |
| 20260509202618 | 30 | 316 | 1.6 | 4.8 | 0.00 | 0.00 | 0.00 | 47 | 1012.0 |
| 20260509202518 | 30 | 296 | 1.6 | 4.8 | 0.00 | 0.00 | 0.00 | 48 | 1012.1 |
| 20260509202413 | 30 | 296 | 1.6 | 4.8 | 0.00 | 0.00 | 0.00 | 49 | 1012.1 |
| 20260509202313 | 30 | 222 | 1.6 | 4.8 | 0.00 | 0.00 | 0.00 | 49 | 1012.1 |
| 20260509202212 | 30 | 222 | 1.6 | 4.8 | 0.00 | 0.00 | 0.00 | 49 | 1012.1 |
| 20260509202156 | 30 | 225 | 1.6 | 4.8 | 0.00 | 0.00 | 0.00 | 49 | 1012.1 |
| 20260509202113 | 30 | 124 | 1.6 | 4.8 | 0.00 | 0.00 | 0.00 | 49 | 1012.1 |
| 20260509202012 | 30 | 240 | 1.6 | 4.8 | 0.00 | 0.00 | 0.00 | 50 | 1012.1 |
| 20260509201909 | 30 | 240 | 1.6 | 4.8 | 0.00 | 0.00 | 0.00 | 51 | 1012.2 |
| 20260509201809 | 30 | 241 | 1.6 | 4.8 | 0.00 | 0.00 | 0.00 | 51 | 1012.2 |
| 20260509201709 | 30 | 240 | 1.6 | 8.0 | 0.00 | 0.00 | 0.00 | 51 | 1012.1 |
| 20260509201645 | 30 | 277 | 1.6 | 8.0 | 0.00 | 0.00 | 0.00 | 51 | 1012.1 |
| 20260509201608 | 29 | 275 | 1.6 | 8.0 | 0.00 | 0.00 | 0.00 | 51 | 1012.1 |
| 20260509201507 | 29 | 194 | 1.6 | 8.0 | 0.00 | 0.00 | 0.00 | 51 | 1012.1 |
| 20260509201404 | 29 | 150 | 1.6 | 8.0 | 0.00 | 0.00 | 0.00 | 50 | 1012.1 |
| 20260509201304 | 29 | 144 | 1.6 | 8.0 | 0.00 | 0.00 | 0.00 | 50 | 1012.2 |
| 20260509201203 | 29 | 232 | 1.6 | 8.0 | 0.00 | 0.00 | 0.00 | 52 | 1012.2 |
| 20260509201141 | 29 | 329 | 1.6 | 8.0 | 0.00 | 0.00 | 0.00 | 52 | 1012.2 |
| 20260509201103 | 29 | 328 | 1.6 | 8.0 | 0.00 | 0.00 | 0.00 | 51 | 1012.2 |
| 20260509201001 | 29 | 44 | 1.6 | 8.0 | 0.00 | 0.00 | 0.00 | 51 | 1012.2 |
| 20260509200858 | 29 | 296 | 1.6 | 8.0 | 0.00 | 0.00 | 0.00 | 50 | 1012.2 |
| 20260509200759 | 29 | 296 | 1.6 | 8.0 | 0.00 | 0.00 | 0.00 | 52 | 1012.3 |
| 20260509200659 | 28 | 217 | 1.6 | 3.2 | 0.00 | 0.00 | 0.00 | 52 | 1012.3 |
| 20260509200636 | 28 | 217 | 1.6 | 3.2 | 0.00 | 0.00 | 0.00 | 52 | 1012.2 |
| 20260509200557 | 28 | 217 | 1.6 | 3.2 | 0.00 | 0.00 | 0.00 | 52 | 1012.2 |
| 20260509200454 | 28 | 193 | 1.6 | 3.2 | 0.00 | 0.00 | 0.00 | 53 | 1012.3 |
| 20260509200353 | 28 | 236 | 1.6 | 8.0 | 0.00 | 0.00 | 0.00 | 54 | 1012.3 |
| 20260509200349 | 28 | 236 | 1.6 | 3.2 | 0.00 | 0.00 | 0.00 | 54 | 1012.3 |
| 20260509200249 | 28 | 236 | 1.6 | 3.2 | 0.00 | 0.00 | 0.00 | 53 | 1012.3 |
| 20260509200240 | 28 | 236 | 1.6 | 8.0 | 0.00 | 0.00 | 0.00 | 54 | 1012.4 |
| 20260509200049 | 28 | 225 | 1.6 | 8.0 | 0.00 | 0.00 | 0.00 | 55 | 1012.3 |
| 20260509195948 | 28 | 225 | 3.2 | 8.0 | 0.00 | 0.00 | 0.00 | 55 | 1012.3 |
| 20260509195852 | 28 | 224 | 3.2 | 11.3 | 0.00 | 0.00 | 0.00 | 55 | 1012.3 |
| 20260509195747 | 28 | 278 | 3.2 | 11.3 | 0.00 | 0.00 | 0.00 | 54 | 1012.3 |
| 20260509195622 | 28 | 311 | 3.2 | 11.3 | 0.00 | 0.00 | 0.00 | 55 | 1012.4 |
| 20260509195545 | 28 | 311 | 3.2 | 11.3 | 0.00 | 0.00 | 0.00 | 56 | 1012.4 |
| 20260509195442 | 27 | 311 | 3.2 | 11.3 | 0.00 | 0.00 | 0.00 | 56 | 1012.4 |
| 20260509195337 | 27 | 310 | 3.2 | 11.3 | 0.00 | 0.00 | 0.00 | 55 | 1012.5 |
| 20260509195237 | 28 | 314 | 3.2 | 11.3 | 0.00 | 0.00 | 0.00 | 54 | 1012.5 |
| 20260509195136 | 28 | 300 | 3.2 | 11.3 | 0.00 | 0.00 | 0.00 | 53 | 1012.5 |
| 20260509195116 | 28 | 309 | 3.2 | 11.3 | 0.00 | 0.00 | 0.00 | 53 | 1012.5 |
| 20260509195036 | 28 | 319 | 3.2 | 11.3 | 0.00 | 0.00 | 0.00 | 55 | 1012.5 |
| 20260509194936 | 28 | 318 | 3.2 | 11.3 | 0.00 | 0.00 | 0.00 | 54 | 1012.5 |
| 20260509194839 | 28 | 307 | 3.2 | 9.7 | 0.00 | 0.00 | 0.00 | 55 | 1012.5 |
| 20260509194830 | 28 | 65 | 3.2 | 9.7 | 0.00 | 0.00 | 0.00 | 54 | 1012.6 |
| 20260509194737 | 28 | 297 | 3.2 | 9.7 | 0.00 | 0.00 | 0.00 | 54 | 1012.5 |
| 20260509194721 | 28 | 102 | 3.2 | 9.7 | 0.00 | 0.00 | 0.00 | 54 | 1012.6 |
| 20260509194533 | 28 | 34 | 3.2 | 9.7 | 0.00 | 0.00 | 0.00 | 55 | 1012.5 |
| 20260509194430 | 28 | 8 | 3.2 | 9.7 | 0.00 | 0.00 | 0.00 | 55 | 1012.5 |
| 20260509194326 | 27 | 233 | 3.2 | 9.7 | 0.00 | 0.00 | 0.00 | 56 | 1012.6 |
| 20260509194224 | 27 | 246 | 3.2 | 9.7 | 0.00 | 0.00 | 0.00 | 54 | 1012.6 |
| 20260509194125 | 28 | 136 | 3.2 | 9.7 | 0.00 | 0.00 | 0.00 | 54 | 1012.5 |
| 20260509194112 | 28 | 211 | 3.2 | 9.7 | 0.00 | 0.00 | 0.00 | 54 | 1012.5 |
| 20260509194025 | 28 | 236 | 1.6 | 9.7 | 0.00 | 0.00 | 0.00 | 54 | 1012.6 |
| 20260509193924 | 28 | 222 | 1.6 | 8.0 | 0.00 | 0.00 | 0.00 | 54 | 1012.6 |
| 20260509193818 | 28 | 236 | 1.6 | 9.7 | 0.00 | 0.00 | 0.00 | 54 | 1012.7 |
| 20260509193718 | 28 | 245 | 1.6 | 9.7 | 0.00 | 0.00 | 0.00 | 55 | 1012.6 |
| 20260509193619 | 28 | 311 | 1.6 | 9.7 | 0.00 | 0.00 | 0.00 | 55 | 1012.7 |
| 20260509193558 | 28 | 311 | 1.6 | 9.7 | 0.00 | 0.00 | 0.00 | 55 | 1012.7 |
| 20260509193519 | 28 | 311 | 1.6 | 9.7 | 0.00 | 0.00 | 0.00 | 56 | 1012.7 |
| 20260509193418 | 28 | 311 | 1.6 | 9.7 | 0.00 | 0.00 | 0.00 | 56 | 1012.7 |
| 20260509193319 | 27 | 259 | 3.2 | 9.7 | 0.00 | 0.00 | 0.00 | 56 | 1012.7 |
| 20260509193315 | 28 | 314 | 1.6 | 9.7 | 0.00 | 0.00 | 0.00 | 56 | 1012.7 |
| 20260509193213 | 28 | 314 | 3.2 | 9.7 | 0.00 | 0.00 | 0.00 | 56 | 1012.7 |
| 20260509193204 | 27 | 309 | 3.2 | 9.7 | 0.00 | 0.00 | 0.00 | 56 | 1012.7 |
| 20260509193013 | 27 | 231 | 3.2 | 9.7 | 0.00 | 0.00 | 0.00 | 56 | 1012.7 |
| 20260509192912 | 27 | 219 | 3.2 | 9.7 | 0.00 | 0.00 | 0.00 | 55 | 1012.7 |
| 20260509192808 | 27 | 217 | 3.2 | 9.7 | 0.00 | 0.00 | 0.00 | 56 | 1012.7 |
| 20260509192708 | 27 | 142 | 3.2 | 9.7 | 0.00 | 0.00 | 0.00 | 55 | 1012.7 |
| 20260509192609 | 27 | 143 | 3.2 | 9.7 | 0.00 | 0.00 | 0.00 | 56 | 1012.8 |
| 20260509192548 | 27 | 143 | 3.2 | 9.7 | 0.00 | 0.00 | 0.00 | 56 | 1012.8 |
| 20260509192509 | 27 | 210 | 3.2 | 9.7 | 0.00 | 0.00 | 0.00 | 57 | 1012.8 |
| 20260509192406 | 27 | 200 | 3.2 | 9.7 | 0.00 | 0.00 | 0.00 | 56 | 1012.8 |
| 20260509192305 | 27 | 214 | 3.2 | 9.7 | 0.00 | 0.00 | 0.00 | 55 | 1012.9 |
| 20260509192200 | 27 | 243 | 1.6 | 9.7 | 0.00 | 0.00 | 0.00 | 56 | 1012.9 |
| 20260509192101 | 27 | 197 | 1.6 | 9.7 | 0.00 | 0.00 | 0.00 | 56 | 1012.9 |
| 20260509192040 | 27 | 228 | 1.6 | 9.7 | 0.00 | 0.00 | 0.00 | 56 | 1012.9 |
| 20260509192000 | 27 | 248 | 1.6 | 8.0 | 0.00 | 0.00 | 0.00 | 57 | 1012.9 |
| 20260509191901 | 27 | 141 | 1.6 | 3.2 | 0.00 | 0.00 | 0.00 | 58 | 1012.9 |
| 20260509191756 | 27 | 300 | 1.6 | 6.4 | 0.00 | 0.00 | 0.00 | 57 | 1012.9 |
| 20260509191654 | 27 | 300 | 1.6 | 6.4 | 0.00 | 0.00 | 0.00 | 57 | 1012.9 |
| 20260509191535 | 27 | 232 | 1.6 | 6.4 | 0.00 | 0.00 | 0.00 | 57 | 1012.9 |
| 20260509191454 | 27 | 230 | 1.6 | 6.4 | 0.00 | 0.00 | 0.00 | 57 | 1012.9 |
| 20260509191355 | 27 | 232 | 1.6 | 6.4 | 0.00 | 0.00 | 0.00 | 57 | 1013.0 |
| 20260509191251 | 27 | 232 | 1.6 | 6.4 | 0.00 | 0.00 | 0.00 | 56 | 1013.0 |
| 20260509191151 | 27 | 232 | 1.6 | 6.4 | 0.00 | 0.00 | 0.00 | 57 | 1013.0 |
| 20260509191050 | 27 | 229 | 1.6 | 6.4 | 0.00 | 0.00 | 0.00 | 58 | 1013.0 |
| 20260509191030 | 27 | 230 | 1.6 | 6.4 | 0.00 | 0.00 | 0.00 | 57 | 1013.0 |
| 20260509190951 | 27 | 229 | 1.6 | 6.4 | 0.00 | 0.00 | 0.00 | 57 | 1013.0 |
| 20260509190851 | 27 | 282 | 1.6 | 9.7 | 0.00 | 0.00 | 0.00 | 58 | 1013.1 |
| 20260509190747 | 27 | 211 | 1.6 | 9.7 | 0.00 | 0.00 | 0.00 | 59 | 1013.1 |
| 20260509190742 | 27 | 211 | 1.6 | 9.7 | 0.00 | 0.00 | 0.00 | 58 | 1013.1 |
| 20260509190642 | 27 | 211 | 1.6 | 9.7 | 0.00 | 0.00 | 0.00 | 58 | 1013.0 |
| 20260509190633 | 27 | 211 | 1.6 | 9.7 | 0.00 | 0.00 | 0.00 | 59 | 1013.1 |
| 20260509190442 | 27 | 211 | 1.6 | 9.7 | 0.00 | 0.00 | 0.00 | 60 | 1013.1 |
| 20260509190342 | 27 | 212 | 3.2 | 9.7 | 0.00 | 0.00 | 0.00 | 59 | 1013.0 |
| 20260509190238 | 26 | 211 | 1.6 | 9.7 | 0.00 | 0.00 | 0.00 | 59 | 1013.1 |
| 20260509190139 | 26 | 238 | 1.6 | 9.7 | 0.00 | 0.00 | 0.00 | 59 | 1013.0 |
| 20260509190017 | 26 | 151 | 1.6 | 9.7 | 0.00 | 0.00 | 0.00 | 59 | 1013.1 |
| 20260509185938 | 26 | 253 | 1.6 | 9.7 | 0.00 | 0.00 | 0.00 | 58 | 1013.1 |
| 20260509185836 | 26 | 248 | 1.6 | 6.4 | 0.00 | 0.00 | 0.00 | 59 | 1013.1 |
| 20260509185737 | 26 | 150 | 1.6 | 6.4 | 0.00 | 0.00 | 0.00 | 59 | 1013.1 |
| 20260509185635 | 26 | 153 | 1.6 | 6.4 | 0.00 | 0.00 | 0.00 | 59 | 1013.1 |
| 20260509185535 | 26 | 317 | 1.6 | 6.4 | 0.00 | 0.00 | 0.00 | 58 | 1013.2 |
| 20260509185511 | 26 | 316 | 1.6 | 6.4 | 0.00 | 0.00 | 0.00 | 58 | 1013.2 |
| 20260509185433 | 26 | 316 | 1.6 | 6.4 | 0.00 | 0.00 | 0.00 | 59 | 1013.2 |
| 20260509185330 | 26 | 49 | 1.6 | 4.8 | 0.00 | 0.00 | 0.00 | 59 | 1013.2 |
| 20260509185233 | 26 | 37 | 1.6 | 6.4 | 0.00 | 0.00 | 0.00 | 59 | 1013.2 |
| 20260509185228 | 26 | 141 | 1.6 | 4.8 | 0.00 | 0.00 | 0.00 | 60 | 1013.3 |
| 20260509185129 | 26 | 41 | 1.6 | 6.4 | 0.00 | 0.00 | 0.00 | 60 | 1013.3 |
| 20260509185114 | 26 | 37 | 1.6 | 6.4 | 0.00 | 0.00 | 0.00 | 59 | 1013.2 |
| 20260509184926 | 26 | 37 | 1.6 | 6.4 | 0.00 | 0.00 | 0.00 | 59 | 1013.3 |
| 20260509184825 | 26 | 328 | 1.6 | 6.4 | 0.00 | 0.00 | 0.00 | 60 | 1013.3 |
| 20260509184723 | 26 | 243 | 1.6 | 6.4 | 0.00 | 0.00 | 0.00 | 60 | 1013.3 |
| 20260509184623 | 26 | 161 | 1.6 | 6.4 | 0.00 | 0.00 | 0.00 | 60 | 1013.3 |
| 20260509184522 | 26 | 207 | 1.6 | 11.3 | 0.00 | 0.00 | 0.00 | 60 | 1013.3 |
| 20260509184459 | 26 | 211 | 1.6 | 11.3 | 0.00 | 0.00 | 0.00 | 60 | 1013.3 |
| 20260509184421 | 26 | 307 | 1.6 | 11.3 | 0.00 | 0.00 | 0.00 | 60 | 1013.4 |
| 20260509184318 | 26 | 307 | 1.6 | 11.3 | 0.00 | 0.00 | 0.00 | 60 | 1013.3 |
| 20260509184216 | 26 | 316 | 1.6 | 11.3 | 0.00 | 0.00 | 0.00 | 60 | 1013.3 |
| 20260509184117 | 26 | 198 | 1.6 | 11.3 | 0.00 | 0.00 | 0.00 | 59 | 1013.3 |
| 20260509184015 | 26 | 198 | 1.6 | 11.3 | 0.00 | 0.00 | 0.00 | 60 | 1013.4 |
| 20260509183954 | 26 | 219 | 1.6 | 11.3 | 0.00 | 0.00 | 0.00 | 61 | 1013.4 |
| 20260509183915 | 26 | 238 | 1.6 | 11.3 | 0.00 | 0.00 | 0.00 | 61 | 1013.4 |
| 20260509183813 | 26 | 238 | 1.6 | 11.3 | 0.00 | 0.00 | 0.00 | 60 | 1013.4 |
| 20260509183712 | 26 | 238 | 1.6 | 11.3 | 0.00 | 0.00 | 0.00 | 60 | 1013.4 |
| 20260509183611 | 26 | 219 | 1.6 | 4.8 | 0.00 | 0.00 | 0.00 | 61 | 1013.4 |
| 20260509183511 | 26 | 235 | 1.6 | 6.4 | 0.00 | 0.00 | 0.00 | 60 | 1013.4 |
| 20260509183446 | 26 | 235 | 1.6 | 8.0 | 0.00 | 0.00 | 0.00 | 61 | 1013.4 |
| 20260509183409 | 26 | 235 | 1.6 | 9.7 | 0.00 | 0.00 | 0.00 | 61 | 1013.4 |
| 20260509183306 | 26 | 204 | 1.6 | 9.7 | 0.00 | 0.00 | 0.00 | 60 | 1013.4 |
| 20260509183203 | 26 | 195 | 1.6 | 9.7 | 0.00 | 0.00 | 0.00 | 61 | 1013.4 |
| 20260509183102 | 26 | 188 | 1.6 | 9.7 | 0.00 | 0.00 | 0.00 | 62 | 1013.4 |
| 20260509182943 | 25 | 228 | 1.6 | 9.7 | 0.00 | 0.00 | 0.00 | 62 | 1013.5 |
| 20260509182902 | 25 | 228 | 1.6 | 9.7 | 0.00 | 0.00 | 0.00 | 62 | 1013.5 |
| 20260509182800 | 25 | 228 | 1.6 | 9.7 | 0.00 | 0.00 | 0.00 | 62 | 1013.5 |
| 20260509182657 | 25 | 228 | 1.6 | 9.7 | 0.00 | 0.00 | 0.00 | 63 | 1013.4 |
| 20260509182554 | 25 | 228 | 1.6 | 9.7 | 0.00 | 0.00 | 0.00 | 62 | 1013.5 |
| 20260509182454 | 25 | 238 | 1.6 | 9.7 | 0.00 | 0.00 | 0.00 | 62 | 1013.5 |
| 20260509182435 | 25 | 236 | 1.6 | 6.4 | 0.00 | 0.00 | 0.00 | 62 | 1013.4 |
| 20260509182410 | 25 | 232 | 1.6 | 6.4 | 0.00 | 0.00 | 0.00 | 62 | 1013.5 |
| 20260509182355 | 25 | 235 | 1.6 | 6.4 | 0.00 | 0.00 | 0.00 | 62 | 1013.4 |
| 20260509182307 | 25 | 219 | 0.0 | 6.4 | 0.00 | 0.00 | 0.00 | 62 | 1013.5 |
| 20260509182258 | 25 | 232 | 1.6 | 6.4 | 0.00 | 0.00 | 0.00 | 62 | 1013.4 |
| 20260509182052 | 25 | 232 | 1.6 | 6.4 | 0.00 | 0.00 | 0.00 | 62 | 1013.4 |
| 20260509182039 | 25 | 232 | 1.6 | 6.4 | 0.00 | 0.00 | 0.00 | 63 | 1013.4 |
| 20260509181851 | 25 | 232 | 1.6 | 8.0 | 0.00 | 0.00 | 0.00 | 62 | 1013.5 |
| 20260509181748 | 25 | 298 | 1.6 | 9.7 | 0.00 | 0.00 | 0.00 | 62 | 1013.5 |
| 20260509181643 | 25 | 297 | 1.6 | 9.7 | 0.00 | 0.00 | 0.00 | 63 | 1013.5 |
| 20260509181542 | 25 | 296 | 3.2 | 9.7 | 0.00 | 0.00 | 0.00 | 63 | 1013.5 |
| 20260509181442 | 25 | 289 | 3.2 | 9.7 | 0.00 | 0.00 | 0.00 | 63 | 1013.6 |
| 20260509181424 | 25 | 289 | 3.2 | 9.7 | 0.00 | 0.00 | 0.00 | 64 | 1013.6 |
| 20260509181343 | 25 | 290 | 3.2 | 9.7 | 0.00 | 0.00 | 0.00 | 64 | 1013.6 |
| 20260509181242 | 25 | 288 | 3.2 | 11.3 | 0.00 | 0.00 | 0.00 | 63 | 1013.6 |
| 20260509181140 | 24 | 222 | 3.2 | 11.3 | 0.00 | 0.00 | 0.00 | 64 | 1013.6 |
| 20260509181040 | 24 | 238 | 3.2 | 11.3 | 0.00 | 0.00 | 0.00 | 65 | 1013.6 |
| 20260509180938 | 24 | 233 | 3.2 | 11.3 | 0.00 | 0.00 | 0.00 | 64 | 1013.6 |
| 20260509180915 | 24 | 239 | 3.2 | 11.3 | 0.00 | 0.00 | 0.00 | 64 | 1013.6 |
| 20260509180839 | 24 | 223 | 3.2 | 11.3 | 0.00 | 0.00 | 0.00 | 64 | 1013.6 |
| 20260509180737 | 24 | 233 | 3.2 | 11.3 | 0.00 | 0.00 | 0.00 | 64 | 1013.6 |
| 20260509180638 | 24 | 222 | 3.2 | 11.3 | 0.00 | 0.00 | 0.00 | 63 | 1013.7 |
| 20260509180631 | 24 | 118 | 3.2 | 11.3 | 0.00 | 0.00 | 0.00 | 64 | 1013.7 |
| 20260509180530 | 24 | 222 | 3.2 | 11.3 | 0.00 | 0.00 | 0.00 | 64 | 1013.7 |
| 20260509180521 | 24 | 222 | 3.2 | 11.3 | 0.00 | 0.00 | 0.00 | 64 | 1013.7 |
| 20260509180331 | 24 | 229 | 3.2 | 11.3 | 0.00 | 0.00 | 0.00 | 63 | 1013.7 |
| 20260509180230 | 24 | 245 | 3.2 | 9.7 | 0.00 | 0.00 | 0.00 | 65 | 1013.6 |
| 20260509180126 | 23 | 221 | 3.2 | 9.7 | 0.00 | 0.00 | 0.00 | 64 | 1013.7 |
| 20260509180025 | 24 | 175 | 1.6 | 9.7 | 0.00 | 0.00 | 0.00 | 64 | 1013.7 |
| 20260509175927 | 24 | 257 | 1.6 | 9.7 | 0.00 | 0.00 | 0.00 | 63 | 1013.7 |
| 20260509175917 | 24 | 238 | 1.6 | 9.7 | 0.00 | 0.00 | 0.00 | 63 | 1013.7 |
| 20260509175825 | 24 | 250 | 1.6 | 8.0 | 0.00 | 0.00 | 0.00 | 63 | 1013.7 |
| 20260509175724 | 24 | 233 | 1.6 | 8.0 | 0.00 | 0.00 | 0.00 | 64 | 1013.7 |
| 20260509175624 | 24 | 321 | 1.6 | 8.0 | 0.00 | 0.00 | 0.00 | 63 | 1013.7 |
| 20260509175522 | 24 | 318 | 1.6 | 9.7 | 0.00 | 0.00 | 0.00 | 65 | 1013.7 |
| 20260509175423 | 23 | 243 | 1.6 | 9.7 | 0.00 | 0.00 | 0.00 | 64 | 1013.7 |
| 20260509175358 | 23 | 243 | 1.6 | 9.7 | 0.00 | 0.00 | 0.00 | 64 | 1013.7 |
| 20260509175320 | 23 | 239 | 1.6 | 9.7 | 0.00 | 0.00 | 0.00 | 64 | 1013.7 |
| 20260509175218 | 23 | 239 | 1.6 | 9.7 | 0.00 | 0.00 | 0.00 | 65 | 1013.7 |
| 20260509175117 | 23 | 235 | 1.6 | 9.7 | 0.00 | 0.00 | 0.00 | 64 | 1013.7 |
| 20260509175016 | 23 | 235 | 1.6 | 9.7 | 0.00 | 0.00 | 0.00 | 64 | 1013.7 |
| 20260509174916 | 23 | 235 | 1.6 | 9.7 | 0.00 | 0.00 | 0.00 | 63 | 1013.8 |
| 20260509174854 | 23 | 233 | 1.6 | 9.7 | 0.00 | 0.00 | 0.00 | 63 | 1013.8 |
| 20260509174815 | 23 | 214 | 1.6 | 9.7 | 0.00 | 0.00 | 0.00 | 64 | 1013.7 |
| 20260509174712 | 23 | 262 | 1.6 | 9.7 | 0.00 | 0.00 | 0.00 | 63 | 1013.8 |
| 20260509174608 | 23 | 277 | 1.6 | 9.7 | 0.00 | 0.00 | 0.00 | 65 | 1013.8 |
| 20260509174508 | 23 | 146 | 1.6 | 9.7 | 0.00 | 0.00 | 0.00 | 65 | 1013.8 |
| 20260509174409 | 23 | 295 | 1.6 | 9.7 | 0.00 | 0.00 | 0.00 | 65 | 1013.8 |
| 20260509174346 | 23 | 295 | 1.6 | 9.7 | 0.00 | 0.00 | 0.00 | 65 | 1013.8 |
| 20260509174309 | 23 | 295 | 1.6 | 9.7 | 0.00 | 0.00 | 0.00 | 65 | 1013.8 |
| 20260509174206 | 23 | 295 | 1.6 | 9.7 | 0.00 | 0.00 | 0.00 | 64 | 1013.8 |
| 20260509174106 | 23 | 207 | 1.6 | 9.7 | 0.00 | 0.00 | 0.00 | 64 | 1013.8 |
| 20260509174004 | 23 | 207 | 1.6 | 9.7 | 0.00 | 0.00 | 0.00 | 66 | 1013.8 |
| 20260509173842 | 23 | 207 | 1.6 | 9.7 | 0.00 | 0.00 | 0.00 | 66 | 1013.8 |
| 20260509173802 | 23 | 207 | 1.6 | 9.7 | 0.00 | 0.00 | 0.00 | 66 | 1013.8 |
| 20260509173700 | 23 | 207 | 1.6 | 9.7 | 0.00 | 0.00 | 0.00 | 65 | 1013.8 |
| 20260509173600 | 23 | 225 | 1.6 | 9.7 | 0.00 | 0.00 | 0.00 | 64 | 1013.8 |
| 20260509173459 | 23 | 219 | 1.6 | 6.4 | 0.00 | 0.00 | 0.00 | 65 | 1013.8 |
| 20260509173359 | 23 | 221 | 1.6 | 6.4 | 0.00 | 0.00 | 0.00 | 66 | 1013.8 |
| 20260509173337 | 23 | 221 | 1.6 | 6.4 | 0.00 | 0.00 | 0.00 | 66 | 1013.7 |